<?xml version="1.0" encoding="UTF-8" standalone="no" ?>
<gpx xmlns="http://www.topografix.com/GPX/1/1" xmlns:xsi="http://www.w3.org/2001/XMLSchema-instance" xsi:schemaLocation="http://www.topografix.com/GPX/1/1 http://www.topografix.com/GPX/1/1/gpx.xsd" version="1.1" creator="VisuGPX - https://www.visugpx.com">
  <metadata>
    <name>BEARN</name>
    <desc><![CDATA[Eysus Asasp Issor Escot]]></desc>
  </metadata>
  <trk>
    <name><![CDATA[Randonnée de Serres Castets 2011]]></name>
    <trkseg>
      <trkpt lat="43.37843" lon="-0.37495">
        <ele>198.037</ele>
        <time>2011-05-29T06:30:13Z</time>
      </trkpt>
      <trkpt lat="43.3785" lon="-0.37482">
        <ele>198.138</ele>
        <time>2011-05-29T06:30:18Z</time>
      </trkpt>
      <trkpt lat="43.37853" lon="-0.37465">
        <ele>198.328</ele>
        <time>2011-05-29T06:30:23Z</time>
      </trkpt>
      <trkpt lat="43.37851" lon="-0.37445">
        <ele>198.417</ele>
        <time>2011-05-29T06:30:28Z</time>
      </trkpt>
      <trkpt lat="43.37846" lon="-0.37429">
        <ele>198.571</ele>
        <time>2011-05-29T06:30:31Z</time>
      </trkpt>
      <trkpt lat="43.37839" lon="-0.37412">
        <ele>198.469</ele>
        <time>2011-05-29T06:30:34Z</time>
      </trkpt>
      <trkpt lat="43.37828" lon="-0.37393">
        <ele>198.176</ele>
        <time>2011-05-29T06:30:38Z</time>
      </trkpt>
      <trkpt lat="43.37821" lon="-0.37384">
        <ele>198.05</ele>
        <time>2011-05-29T06:30:40Z</time>
      </trkpt>
      <trkpt lat="43.37812" lon="-0.37374">
        <ele>198.085</ele>
        <time>2011-05-29T06:30:42Z</time>
      </trkpt>
      <trkpt lat="43.37791" lon="-0.37364">
        <ele>198.31</ele>
        <time>2011-05-29T06:30:46Z</time>
      </trkpt>
      <trkpt lat="43.37782" lon="-0.37368">
        <ele>198.417</ele>
        <time>2011-05-29T06:30:49Z</time>
      </trkpt>
      <trkpt lat="43.3778" lon="-0.37366">
        <ele>198.49</ele>
        <time>2011-05-29T06:30:50Z</time>
      </trkpt>
      <trkpt lat="43.3776" lon="-0.37367">
        <ele>198.558</ele>
        <time>2011-05-29T06:30:55Z</time>
      </trkpt>
      <trkpt lat="43.37744" lon="-0.37364">
        <ele>198.49</ele>
        <time>2011-05-29T06:30:59Z</time>
      </trkpt>
      <trkpt lat="43.37738" lon="-0.37355">
        <ele>198.486</ele>
        <time>2011-05-29T06:31:01Z</time>
      </trkpt>
      <trkpt lat="43.37706" lon="-0.37325">
        <ele>198.881</ele>
        <time>2011-05-29T06:31:10Z</time>
      </trkpt>
      <trkpt lat="43.37687" lon="-0.37299">
        <ele>199.016</ele>
        <time>2011-05-29T06:31:16Z</time>
      </trkpt>
      <trkpt lat="43.37677" lon="-0.37284">
        <ele>198.987</ele>
        <time>2011-05-29T06:31:19Z</time>
      </trkpt>
      <trkpt lat="43.37661" lon="-0.37272">
        <ele>199.052</ele>
        <time>2011-05-29T06:31:23Z</time>
      </trkpt>
      <trkpt lat="43.37637" lon="-0.37261">
        <ele>199.496</ele>
        <time>2011-05-29T06:31:29Z</time>
      </trkpt>
      <trkpt lat="43.37619" lon="-0.37248">
        <ele>199.673</ele>
        <time>2011-05-29T06:31:34Z</time>
      </trkpt>
      <trkpt lat="43.37605" lon="-0.37236">
        <ele>199.555</ele>
        <time>2011-05-29T06:31:38Z</time>
      </trkpt>
      <trkpt lat="43.37608" lon="-0.37224">
        <ele>199.589</ele>
        <time>2011-05-29T06:31:41Z</time>
      </trkpt>
      <trkpt lat="43.37615" lon="-0.37202">
        <ele>199.995</ele>
        <time>2011-05-29T06:31:45Z</time>
      </trkpt>
      <trkpt lat="43.37605" lon="-0.37184">
        <ele>200.906</ele>
        <time>2011-05-29T06:31:48Z</time>
      </trkpt>
      <trkpt lat="43.37592" lon="-0.37162">
        <ele>202.361</ele>
        <time>2011-05-29T06:31:52Z</time>
      </trkpt>
      <trkpt lat="43.37588" lon="-0.3715">
        <ele>203.463</ele>
        <time>2011-05-29T06:31:54Z</time>
      </trkpt>
      <trkpt lat="43.37574" lon="-0.3713">
        <ele>205.319</ele>
        <time>2011-05-29T06:31:58Z</time>
      </trkpt>
      <trkpt lat="43.37541" lon="-0.37096">
        <ele>206.318</ele>
        <time>2011-05-29T06:32:07Z</time>
      </trkpt>
      <trkpt lat="43.37519" lon="-0.37066">
        <ele>205.716</ele>
        <time>2011-05-29T06:32:13Z</time>
      </trkpt>
      <trkpt lat="43.37496" lon="-0.37024">
        <ele>204.776</ele>
        <time>2011-05-29T06:32:20Z</time>
      </trkpt>
      <trkpt lat="43.37493" lon="-0.37018">
        <ele>204.668</ele>
        <time>2011-05-29T06:32:21Z</time>
      </trkpt>
      <trkpt lat="43.37489" lon="-0.36995">
        <ele>204.347</ele>
        <time>2011-05-29T06:32:25Z</time>
      </trkpt>
      <trkpt lat="43.37499" lon="-0.36978">
        <ele>204.691</ele>
        <time>2011-05-29T06:32:29Z</time>
      </trkpt>
      <trkpt lat="43.37502" lon="-0.36974">
        <ele>204.875</ele>
        <time>2011-05-29T06:32:30Z</time>
      </trkpt>
      <trkpt lat="43.37534" lon="-0.36949">
        <ele>206.785</ele>
        <time>2011-05-29T06:32:39Z</time>
      </trkpt>
      <trkpt lat="43.37557" lon="-0.36933">
        <ele>207.257</ele>
        <time>2011-05-29T06:32:45Z</time>
      </trkpt>
      <trkpt lat="43.37569" lon="-0.36917">
        <ele>207.613</ele>
        <time>2011-05-29T06:32:49Z</time>
      </trkpt>
      <trkpt lat="43.376" lon="-0.36895">
        <ele>207.501</ele>
        <time>2011-05-29T06:32:56Z</time>
      </trkpt>
      <trkpt lat="43.37634" lon="-0.36872">
        <ele>206.68</ele>
        <time>2011-05-29T06:33:03Z</time>
      </trkpt>
      <trkpt lat="43.37662" lon="-0.36856">
        <ele>206.189</ele>
        <time>2011-05-29T06:33:09Z</time>
      </trkpt>
      <trkpt lat="43.3769" lon="-0.36833">
        <ele>206.562</ele>
        <time>2011-05-29T06:33:16Z</time>
      </trkpt>
      <trkpt lat="43.37724" lon="-0.36804">
        <ele>205.92</ele>
        <time>2011-05-29T06:33:24Z</time>
      </trkpt>
      <trkpt lat="43.37756" lon="-0.36773">
        <ele>204.293</ele>
        <time>2011-05-29T06:33:30Z</time>
      </trkpt>
      <trkpt lat="43.37791" lon="-0.3675">
        <ele>202.955</ele>
        <time>2011-05-29T06:33:36Z</time>
      </trkpt>
      <trkpt lat="43.37833" lon="-0.36737">
        <ele>202.613</ele>
        <time>2011-05-29T06:33:43Z</time>
      </trkpt>
      <trkpt lat="43.3785" lon="-0.3673">
        <ele>202.695</ele>
        <time>2011-05-29T06:33:46Z</time>
      </trkpt>
      <trkpt lat="43.37861" lon="-0.36723">
        <ele>202.863</ele>
        <time>2011-05-29T06:33:48Z</time>
      </trkpt>
      <trkpt lat="43.37891" lon="-0.36686">
        <ele>203.267</ele>
        <time>2011-05-29T06:33:55Z</time>
      </trkpt>
      <trkpt lat="43.37906" lon="-0.36664">
        <ele>203.305</ele>
        <time>2011-05-29T06:33:59Z</time>
      </trkpt>
      <trkpt lat="43.37932" lon="-0.36626">
        <ele>203.885</ele>
        <time>2011-05-29T06:34:06Z</time>
      </trkpt>
      <trkpt lat="43.37974" lon="-0.36567">
        <ele>204.707</ele>
        <time>2011-05-29T06:34:17Z</time>
      </trkpt>
      <trkpt lat="43.38008" lon="-0.36516">
        <ele>205.178</ele>
        <time>2011-05-29T06:34:26Z</time>
      </trkpt>
      <trkpt lat="43.38042" lon="-0.36471">
        <ele>206.675</ele>
        <time>2011-05-29T06:34:35Z</time>
      </trkpt>
      <trkpt lat="43.38076" lon="-0.36427">
        <ele>207.165</ele>
        <time>2011-05-29T06:34:44Z</time>
      </trkpt>
      <trkpt lat="43.38104" lon="-0.36398">
        <ele>207.934</ele>
        <time>2011-05-29T06:34:51Z</time>
      </trkpt>
      <trkpt lat="43.38143" lon="-0.36369">
        <ele>208.799</ele>
        <time>2011-05-29T06:35:00Z</time>
      </trkpt>
      <trkpt lat="43.38152" lon="-0.36364">
        <ele>208.972</ele>
        <time>2011-05-29T06:35:02Z</time>
      </trkpt>
      <trkpt lat="43.38169" lon="-0.36352">
        <ele>209.169</ele>
        <time>2011-05-29T06:35:06Z</time>
      </trkpt>
      <trkpt lat="43.38202" lon="-0.36317">
        <ele>209.666</ele>
        <time>2011-05-29T06:35:14Z</time>
      </trkpt>
      <trkpt lat="43.38217" lon="-0.36279">
        <ele>210.56</ele>
        <time>2011-05-29T06:35:20Z</time>
      </trkpt>
      <trkpt lat="43.38224" lon="-0.36244">
        <ele>211.256</ele>
        <time>2011-05-29T06:35:25Z</time>
      </trkpt>
      <trkpt lat="43.38245" lon="-0.36204">
        <ele>212.032</ele>
        <time>2011-05-29T06:35:32Z</time>
      </trkpt>
      <trkpt lat="43.38256" lon="-0.3619">
        <ele>212.491</ele>
        <time>2011-05-29T06:35:35Z</time>
      </trkpt>
      <trkpt lat="43.3829" lon="-0.36167">
        <ele>213.374</ele>
        <time>2011-05-29T06:35:43Z</time>
      </trkpt>
      <trkpt lat="43.38315" lon="-0.36163">
        <ele>213.62</ele>
        <time>2011-05-29T06:35:49Z</time>
      </trkpt>
      <trkpt lat="43.38321" lon="-0.36163">
        <ele>213.851</ele>
        <time>2011-05-29T06:35:52Z</time>
      </trkpt>
      <trkpt lat="43.38326" lon="-0.36159">
        <ele>213.937</ele>
        <time>2011-05-29T06:35:54Z</time>
      </trkpt>
      <trkpt lat="43.38342" lon="-0.3616">
        <ele>214.401</ele>
        <time>2011-05-29T06:35:59Z</time>
      </trkpt>
      <trkpt lat="43.3835" lon="-0.36153">
        <ele>214.975</ele>
        <time>2011-05-29T06:36:02Z</time>
      </trkpt>
      <trkpt lat="43.38357" lon="-0.36132">
        <ele>215.894</ele>
        <time>2011-05-29T06:36:07Z</time>
      </trkpt>
      <trkpt lat="43.38364" lon="-0.36102">
        <ele>217.079</ele>
        <time>2011-05-29T06:36:13Z</time>
      </trkpt>
      <trkpt lat="43.38368" lon="-0.36085">
        <ele>217.702</ele>
        <time>2011-05-29T06:36:18Z</time>
      </trkpt>
      <trkpt lat="43.38378" lon="-0.36055">
        <ele>219.314</ele>
        <time>2011-05-29T06:36:26Z</time>
      </trkpt>
      <trkpt lat="43.38386" lon="-0.36026">
        <ele>220.03</ele>
        <time>2011-05-29T06:36:32Z</time>
      </trkpt>
      <trkpt lat="43.38395" lon="-0.35986">
        <ele>221.568</ele>
        <time>2011-05-29T06:36:40Z</time>
      </trkpt>
      <trkpt lat="43.38405" lon="-0.35953">
        <ele>223.061</ele>
        <time>2011-05-29T06:36:47Z</time>
      </trkpt>
      <trkpt lat="43.38415" lon="-0.35915">
        <ele>224.403</ele>
        <time>2011-05-29T06:36:55Z</time>
      </trkpt>
      <trkpt lat="43.38425" lon="-0.35883">
        <ele>226.504</ele>
        <time>2011-05-29T06:37:02Z</time>
      </trkpt>
      <trkpt lat="43.3843" lon="-0.35857">
        <ele>227.991</ele>
        <time>2011-05-29T06:37:08Z</time>
      </trkpt>
      <trkpt lat="43.38438" lon="-0.35824">
        <ele>229.534</ele>
        <time>2011-05-29T06:37:16Z</time>
      </trkpt>
      <trkpt lat="43.38447" lon="-0.35807">
        <ele>230.73</ele>
        <time>2011-05-29T06:37:22Z</time>
      </trkpt>
      <trkpt lat="43.38453" lon="-0.35799">
        <ele>231.134</ele>
        <time>2011-05-29T06:37:26Z</time>
      </trkpt>
      <trkpt lat="43.38457" lon="-0.35797">
        <ele>231.061</ele>
        <time>2011-05-29T06:37:29Z</time>
      </trkpt>
      <trkpt lat="43.38461" lon="-0.35798">
        <ele>232.586</ele>
        <time>2011-05-29T06:37:37Z</time>
      </trkpt>
      <trkpt lat="43.38471" lon="-0.35798">
        <ele>233.938</ele>
        <time>2011-05-29T06:37:43Z</time>
      </trkpt>
      <trkpt lat="43.38472" lon="-0.35798">
        <ele>233.941</ele>
        <time>2011-05-29T06:37:44Z</time>
      </trkpt>
      <trkpt lat="43.38477" lon="-0.35794">
        <ele>235.467</ele>
        <time>2011-05-29T06:37:48Z</time>
      </trkpt>
      <trkpt lat="43.38481" lon="-0.3579">
        <ele>237.056</ele>
        <time>2011-05-29T06:37:52Z</time>
      </trkpt>
      <trkpt lat="43.38492" lon="-0.35779">
        <ele>239.902</ele>
        <time>2011-05-29T06:38:00Z</time>
      </trkpt>
      <trkpt lat="43.38497" lon="-0.35766">
        <ele>240.853</ele>
        <time>2011-05-29T06:38:05Z</time>
      </trkpt>
      <trkpt lat="43.38502" lon="-0.35759">
        <ele>241.117</ele>
        <time>2011-05-29T06:38:09Z</time>
      </trkpt>
      <trkpt lat="43.3851" lon="-0.35755">
        <ele>242.915</ele>
        <time>2011-05-29T06:38:16Z</time>
      </trkpt>
      <trkpt lat="43.38518" lon="-0.35751">
        <ele>245.22</ele>
        <time>2011-05-29T06:38:23Z</time>
      </trkpt>
      <trkpt lat="43.38527" lon="-0.35745">
        <ele>247.389</ele>
        <time>2011-05-29T06:38:30Z</time>
      </trkpt>
      <trkpt lat="43.38538" lon="-0.35737">
        <ele>248.159</ele>
        <time>2011-05-29T06:38:38Z</time>
      </trkpt>
      <trkpt lat="43.38549" lon="-0.35731">
        <ele>250.508</ele>
        <time>2011-05-29T06:38:47Z</time>
      </trkpt>
      <trkpt lat="43.38562" lon="-0.35725">
        <ele>253.878</ele>
        <time>2011-05-29T06:38:57Z</time>
      </trkpt>
      <trkpt lat="43.38571" lon="-0.35718">
        <ele>256.24</ele>
        <time>2011-05-29T06:39:06Z</time>
      </trkpt>
      <trkpt lat="43.38579" lon="-0.35709">
        <ele>258.766</ele>
        <time>2011-05-29T06:39:15Z</time>
      </trkpt>
      <trkpt lat="43.38583" lon="-0.35694">
        <ele>260.079</ele>
        <time>2011-05-29T06:39:23Z</time>
      </trkpt>
      <trkpt lat="43.38583" lon="-0.35692">
        <ele>260.083</ele>
        <time>2011-05-29T06:39:24Z</time>
      </trkpt>
      <trkpt lat="43.38588" lon="-0.3569">
        <ele>260.819</ele>
        <time>2011-05-29T06:39:29Z</time>
      </trkpt>
      <trkpt lat="43.38588" lon="-0.35692">
        <ele>261.105</ele>
        <time>2011-05-29T06:39:30Z</time>
      </trkpt>
      <trkpt lat="43.38592" lon="-0.35708">
        <ele>263.174</ele>
        <time>2011-05-29T06:39:38Z</time>
      </trkpt>
      <trkpt lat="43.386" lon="-0.35716">
        <ele>265.481</ele>
        <time>2011-05-29T06:39:46Z</time>
      </trkpt>
      <trkpt lat="43.38603" lon="-0.35711">
        <ele>266.866</ele>
        <time>2011-05-29T06:39:50Z</time>
      </trkpt>
      <trkpt lat="43.38603" lon="-0.35704">
        <ele>268.37</ele>
        <time>2011-05-29T06:39:54Z</time>
      </trkpt>
      <trkpt lat="43.386" lon="-0.35678">
        <ele>268.494</ele>
        <time>2011-05-29T06:40:01Z</time>
      </trkpt>
      <trkpt lat="43.38599" lon="-0.3567">
        <ele>268.32</ele>
        <time>2011-05-29T06:40:03Z</time>
      </trkpt>
      <trkpt lat="43.38603" lon="-0.35667">
        <ele>268.762</ele>
        <time>2011-05-29T06:40:07Z</time>
      </trkpt>
      <trkpt lat="43.38607" lon="-0.35671">
        <ele>270.209</ele>
        <time>2011-05-29T06:40:13Z</time>
      </trkpt>
      <trkpt lat="43.38617" lon="-0.35679">
        <ele>273.547</ele>
        <time>2011-05-29T06:40:23Z</time>
      </trkpt>
      <trkpt lat="43.38625" lon="-0.35682">
        <ele>276.008</ele>
        <time>2011-05-29T06:40:30Z</time>
      </trkpt>
      <trkpt lat="43.38633" lon="-0.35674">
        <ele>278.109</ele>
        <time>2011-05-29T06:40:38Z</time>
      </trkpt>
      <trkpt lat="43.3864" lon="-0.35666">
        <ele>279.976</ele>
        <time>2011-05-29T06:40:46Z</time>
      </trkpt>
      <trkpt lat="43.3864" lon="-0.35666">
        <ele>280.21</ele>
        <time>2011-05-29T06:40:47Z</time>
      </trkpt>
      <trkpt lat="43.38642" lon="-0.35656">
        <ele>281.201</ele>
        <time>2011-05-29T06:40:54Z</time>
      </trkpt>
      <trkpt lat="43.38644" lon="-0.3564">
        <ele>282.457</ele>
        <time>2011-05-29T06:41:03Z</time>
      </trkpt>
      <trkpt lat="43.38641" lon="-0.35625">
        <ele>283.921</ele>
        <time>2011-05-29T06:41:11Z</time>
      </trkpt>
      <trkpt lat="43.38641" lon="-0.35622">
        <ele>284.271</ele>
        <time>2011-05-29T06:41:13Z</time>
      </trkpt>
      <trkpt lat="43.38643" lon="-0.35612">
        <ele>285.362</ele>
        <time>2011-05-29T06:41:19Z</time>
      </trkpt>
      <trkpt lat="43.38647" lon="-0.35605">
        <ele>285.969</ele>
        <time>2011-05-29T06:41:24Z</time>
      </trkpt>
      <trkpt lat="43.38647" lon="-0.35601">
        <ele>286.182</ele>
        <time>2011-05-29T06:41:26Z</time>
      </trkpt>
      <trkpt lat="43.38645" lon="-0.35582">
        <ele>286.714</ele>
        <time>2011-05-29T06:41:33Z</time>
      </trkpt>
      <trkpt lat="43.38644" lon="-0.3555">
        <ele>287.514</ele>
        <time>2011-05-29T06:41:42Z</time>
      </trkpt>
      <trkpt lat="43.3865" lon="-0.35518">
        <ele>289.246</ele>
        <time>2011-05-29T06:41:50Z</time>
      </trkpt>
      <trkpt lat="43.38648" lon="-0.35493">
        <ele>290.983</ele>
        <time>2011-05-29T06:41:56Z</time>
      </trkpt>
      <trkpt lat="43.38649" lon="-0.35468">
        <ele>292.168</ele>
        <time>2011-05-29T06:42:02Z</time>
      </trkpt>
      <trkpt lat="43.38653" lon="-0.35436">
        <ele>293.227</ele>
        <time>2011-05-29T06:42:09Z</time>
      </trkpt>
      <trkpt lat="43.38649" lon="-0.35391">
        <ele>293.477</ele>
        <time>2011-05-29T06:42:17Z</time>
      </trkpt>
      <trkpt lat="43.38641" lon="-0.3534">
        <ele>293.798</ele>
        <time>2011-05-29T06:42:25Z</time>
      </trkpt>
      <trkpt lat="43.38638" lon="-0.3531">
        <ele>293.599</ele>
        <time>2011-05-29T06:42:30Z</time>
      </trkpt>
      <trkpt lat="43.38634" lon="-0.35282">
        <ele>293.406</ele>
        <time>2011-05-29T06:42:34Z</time>
      </trkpt>
      <trkpt lat="43.38639" lon="-0.35242">
        <ele>292.798</ele>
        <time>2011-05-29T06:42:39Z</time>
      </trkpt>
      <trkpt lat="43.38642" lon="-0.35235">
        <ele>292.612</ele>
        <time>2011-05-29T06:42:40Z</time>
      </trkpt>
      <trkpt lat="43.38661" lon="-0.35192">
        <ele>292.434</ele>
        <time>2011-05-29T06:42:46Z</time>
      </trkpt>
      <trkpt lat="43.38676" lon="-0.35129">
        <ele>291.973</ele>
        <time>2011-05-29T06:42:53Z</time>
      </trkpt>
      <trkpt lat="43.38685" lon="-0.35085">
        <ele>292.068</ele>
        <time>2011-05-29T06:42:58Z</time>
      </trkpt>
      <trkpt lat="43.387" lon="-0.35001">
        <ele>292.793</ele>
        <time>2011-05-29T06:43:08Z</time>
      </trkpt>
      <trkpt lat="43.38708" lon="-0.34953">
        <ele>292.789</ele>
        <time>2011-05-29T06:43:14Z</time>
      </trkpt>
      <trkpt lat="43.38717" lon="-0.34937">
        <ele>292.792</ele>
        <time>2011-05-29T06:43:18Z</time>
      </trkpt>
      <trkpt lat="43.38725" lon="-0.34937">
        <ele>292.818</ele>
        <time>2011-05-29T06:43:20Z</time>
      </trkpt>
      <trkpt lat="43.38738" lon="-0.34941">
        <ele>292.826</ele>
        <time>2011-05-29T06:43:23Z</time>
      </trkpt>
      <trkpt lat="43.38753" lon="-0.34937">
        <ele>292.497</ele>
        <time>2011-05-29T06:43:27Z</time>
      </trkpt>
      <trkpt lat="43.38761" lon="-0.3492">
        <ele>292.115</ele>
        <time>2011-05-29T06:43:30Z</time>
      </trkpt>
      <trkpt lat="43.3878" lon="-0.34872">
        <ele>291.837</ele>
        <time>2011-05-29T06:43:36Z</time>
      </trkpt>
      <trkpt lat="43.38784" lon="-0.34863">
        <ele>291.844</ele>
        <time>2011-05-29T06:43:37Z</time>
      </trkpt>
      <trkpt lat="43.3879" lon="-0.34846">
        <ele>291.799</ele>
        <time>2011-05-29T06:43:39Z</time>
      </trkpt>
      <trkpt lat="43.38802" lon="-0.3478">
        <ele>291.212</ele>
        <time>2011-05-29T06:43:45Z</time>
      </trkpt>
      <trkpt lat="43.38806" lon="-0.34757">
        <ele>290.818</ele>
        <time>2011-05-29T06:43:47Z</time>
      </trkpt>
      <trkpt lat="43.38828" lon="-0.34706">
        <ele>289.018</ele>
        <time>2011-05-29T06:43:52Z</time>
      </trkpt>
      <trkpt lat="43.38843" lon="-0.34647">
        <ele>286.366</ele>
        <time>2011-05-29T06:43:57Z</time>
      </trkpt>
      <trkpt lat="43.38847" lon="-0.34623">
        <ele>285.319</ele>
        <time>2011-05-29T06:43:59Z</time>
      </trkpt>
      <trkpt lat="43.3884" lon="-0.34578">
        <ele>283.87</ele>
        <time>2011-05-29T06:44:03Z</time>
      </trkpt>
      <trkpt lat="43.38818" lon="-0.34522">
        <ele>281.714</ele>
        <time>2011-05-29T06:44:08Z</time>
      </trkpt>
      <trkpt lat="43.38808" lon="-0.34499">
        <ele>280.981</ele>
        <time>2011-05-29T06:44:10Z</time>
      </trkpt>
      <trkpt lat="43.38799" lon="-0.34462">
        <ele>279.428</ele>
        <time>2011-05-29T06:44:13Z</time>
      </trkpt>
      <trkpt lat="43.38796" lon="-0.34383">
        <ele>275.994</ele>
        <time>2011-05-29T06:44:19Z</time>
      </trkpt>
      <trkpt lat="43.38801" lon="-0.34346">
        <ele>275.128</ele>
        <time>2011-05-29T06:44:22Z</time>
      </trkpt>
      <trkpt lat="43.38798" lon="-0.34299">
        <ele>274.61</ele>
        <time>2011-05-29T06:44:26Z</time>
      </trkpt>
      <trkpt lat="43.38779" lon="-0.34232">
        <ele>274.022</ele>
        <time>2011-05-29T06:44:32Z</time>
      </trkpt>
      <trkpt lat="43.38775" lon="-0.34222">
        <ele>273.908</ele>
        <time>2011-05-29T06:44:33Z</time>
      </trkpt>
      <trkpt lat="43.38746" lon="-0.34178">
        <ele>273.415</ele>
        <time>2011-05-29T06:44:38Z</time>
      </trkpt>
      <trkpt lat="43.38717" lon="-0.34154">
        <ele>272.726</ele>
        <time>2011-05-29T06:44:42Z</time>
      </trkpt>
      <trkpt lat="43.38684" lon="-0.34138">
        <ele>271.74</ele>
        <time>2011-05-29T06:44:46Z</time>
      </trkpt>
      <trkpt lat="43.38664" lon="-0.3412">
        <ele>270.698</ele>
        <time>2011-05-29T06:44:49Z</time>
      </trkpt>
      <trkpt lat="43.38646" lon="-0.34081">
        <ele>269.249</ele>
        <time>2011-05-29T06:44:53Z</time>
      </trkpt>
      <trkpt lat="43.38652" lon="-0.34048">
        <ele>267.444</ele>
        <time>2011-05-29T06:44:58Z</time>
      </trkpt>
      <trkpt lat="43.38665" lon="-0.34026">
        <ele>266.797</ele>
        <time>2011-05-29T06:45:01Z</time>
      </trkpt>
      <trkpt lat="43.38672" lon="-0.34011">
        <ele>266.561</ele>
        <time>2011-05-29T06:45:03Z</time>
      </trkpt>
      <trkpt lat="43.38692" lon="-0.33962">
        <ele>266.114</ele>
        <time>2011-05-29T06:45:08Z</time>
      </trkpt>
      <trkpt lat="43.38724" lon="-0.33897">
        <ele>262.746</ele>
        <time>2011-05-29T06:45:14Z</time>
      </trkpt>
      <trkpt lat="43.38738" lon="-0.33859">
        <ele>261.015</ele>
        <time>2011-05-29T06:45:17Z</time>
      </trkpt>
      <trkpt lat="43.38753" lon="-0.33788">
        <ele>256.504</ele>
        <time>2011-05-29T06:45:22Z</time>
      </trkpt>
      <trkpt lat="43.38759" lon="-0.33758">
        <ele>254.205</ele>
        <time>2011-05-29T06:45:24Z</time>
      </trkpt>
      <trkpt lat="43.38769" lon="-0.33718">
        <ele>249.985</ele>
        <time>2011-05-29T06:45:27Z</time>
      </trkpt>
      <trkpt lat="43.38773" lon="-0.33664">
        <ele>243.619</ele>
        <time>2011-05-29T06:45:31Z</time>
      </trkpt>
      <trkpt lat="43.38767" lon="-0.33609">
        <ele>237.966</ele>
        <time>2011-05-29T06:45:35Z</time>
      </trkpt>
      <trkpt lat="43.38757" lon="-0.33563">
        <ele>234.268</ele>
        <time>2011-05-29T06:45:40Z</time>
      </trkpt>
      <trkpt lat="43.38744" lon="-0.33552">
        <ele>233.522</ele>
        <time>2011-05-29T06:45:42Z</time>
      </trkpt>
      <trkpt lat="43.38725" lon="-0.33513">
        <ele>232.546</ele>
        <time>2011-05-29T06:45:47Z</time>
      </trkpt>
      <trkpt lat="43.38734" lon="-0.3349">
        <ele>232.482</ele>
        <time>2011-05-29T06:45:50Z</time>
      </trkpt>
      <trkpt lat="43.38767" lon="-0.33444">
        <ele>232.936</ele>
        <time>2011-05-29T06:45:56Z</time>
      </trkpt>
      <trkpt lat="43.38784" lon="-0.33424">
        <ele>233.143</ele>
        <time>2011-05-29T06:45:59Z</time>
      </trkpt>
      <trkpt lat="43.38796" lon="-0.33413">
        <ele>233.199</ele>
        <time>2011-05-29T06:46:01Z</time>
      </trkpt>
      <trkpt lat="43.38807" lon="-0.33401">
        <ele>233.049</ele>
        <time>2011-05-29T06:46:03Z</time>
      </trkpt>
      <trkpt lat="43.38837" lon="-0.33379">
        <ele>232.74</ele>
        <time>2011-05-29T06:46:08Z</time>
      </trkpt>
      <trkpt lat="43.38861" lon="-0.33378">
        <ele>232.386</ele>
        <time>2011-05-29T06:46:12Z</time>
      </trkpt>
      <trkpt lat="43.38871" lon="-0.33387">
        <ele>232.251</ele>
        <time>2011-05-29T06:46:14Z</time>
      </trkpt>
      <trkpt lat="43.38879" lon="-0.33398">
        <ele>232.294</ele>
        <time>2011-05-29T06:46:16Z</time>
      </trkpt>
      <trkpt lat="43.38904" lon="-0.33438">
        <ele>232.537</ele>
        <time>2011-05-29T06:46:23Z</time>
      </trkpt>
      <trkpt lat="43.3893" lon="-0.3348">
        <ele>232.165</ele>
        <time>2011-05-29T06:46:30Z</time>
      </trkpt>
      <trkpt lat="43.3895" lon="-0.33506">
        <ele>232.082</ele>
        <time>2011-05-29T06:46:35Z</time>
      </trkpt>
      <trkpt lat="43.38964" lon="-0.33518">
        <ele>232.077</ele>
        <time>2011-05-29T06:46:38Z</time>
      </trkpt>
      <trkpt lat="43.38986" lon="-0.33534">
        <ele>232.615</ele>
        <time>2011-05-29T06:46:43Z</time>
      </trkpt>
      <trkpt lat="43.39009" lon="-0.3355">
        <ele>232.903</ele>
        <time>2011-05-29T06:46:48Z</time>
      </trkpt>
      <trkpt lat="43.39027" lon="-0.33569">
        <ele>232.953</ele>
        <time>2011-05-29T06:46:53Z</time>
      </trkpt>
      <trkpt lat="43.39039" lon="-0.33567">
        <ele>233.348</ele>
        <time>2011-05-29T06:46:57Z</time>
      </trkpt>
      <trkpt lat="43.39057" lon="-0.33542">
        <ele>234.195</ele>
        <time>2011-05-29T06:47:04Z</time>
      </trkpt>
      <trkpt lat="43.39076" lon="-0.33518">
        <ele>235.522</ele>
        <time>2011-05-29T06:47:11Z</time>
      </trkpt>
      <trkpt lat="43.39095" lon="-0.33497">
        <ele>236.809</ele>
        <time>2011-05-29T06:47:18Z</time>
      </trkpt>
      <trkpt lat="43.39115" lon="-0.33482">
        <ele>237.985</ele>
        <time>2011-05-29T06:47:25Z</time>
      </trkpt>
      <trkpt lat="43.39131" lon="-0.33458">
        <ele>239.211</ele>
        <time>2011-05-29T06:47:32Z</time>
      </trkpt>
      <trkpt lat="43.39146" lon="-0.33441">
        <ele>240.146</ele>
        <time>2011-05-29T06:47:38Z</time>
      </trkpt>
      <trkpt lat="43.39162" lon="-0.33426">
        <ele>240.88</ele>
        <time>2011-05-29T06:47:44Z</time>
      </trkpt>
      <trkpt lat="43.39173" lon="-0.33432">
        <ele>241.582</ele>
        <time>2011-05-29T06:47:48Z</time>
      </trkpt>
      <trkpt lat="43.3919" lon="-0.33449">
        <ele>243.02</ele>
        <time>2011-05-29T06:47:55Z</time>
      </trkpt>
      <trkpt lat="43.39203" lon="-0.3346">
        <ele>244.396</ele>
        <time>2011-05-29T06:48:01Z</time>
      </trkpt>
      <trkpt lat="43.39225" lon="-0.33486">
        <ele>247.842</ele>
        <time>2011-05-29T06:48:12Z</time>
      </trkpt>
      <trkpt lat="43.39234" lon="-0.33504">
        <ele>250.026</ele>
        <time>2011-05-29T06:48:20Z</time>
      </trkpt>
      <trkpt lat="43.3924" lon="-0.33524">
        <ele>252.289</ele>
        <time>2011-05-29T06:48:28Z</time>
      </trkpt>
      <trkpt lat="43.39246" lon="-0.33542">
        <ele>254.338</ele>
        <time>2011-05-29T06:48:36Z</time>
      </trkpt>
      <trkpt lat="43.39258" lon="-0.33545">
        <ele>255.582</ele>
        <time>2011-05-29T06:48:42Z</time>
      </trkpt>
      <trkpt lat="43.39278" lon="-0.33538">
        <ele>258.337</ele>
        <time>2011-05-29T06:48:51Z</time>
      </trkpt>
      <trkpt lat="43.39292" lon="-0.3353">
        <ele>259.755</ele>
        <time>2011-05-29T06:48:57Z</time>
      </trkpt>
      <trkpt lat="43.39312" lon="-0.33522">
        <ele>260.912</ele>
        <time>2011-05-29T06:49:04Z</time>
      </trkpt>
      <trkpt lat="43.39338" lon="-0.33511">
        <ele>262.559</ele>
        <time>2011-05-29T06:49:13Z</time>
      </trkpt>
      <trkpt lat="43.39362" lon="-0.33502">
        <ele>264.425</ele>
        <time>2011-05-29T06:49:22Z</time>
      </trkpt>
      <trkpt lat="43.39386" lon="-0.33497">
        <ele>266.565</ele>
        <time>2011-05-29T06:49:31Z</time>
      </trkpt>
      <trkpt lat="43.39402" lon="-0.33492">
        <ele>269.198</ele>
        <time>2011-05-29T06:49:38Z</time>
      </trkpt>
      <trkpt lat="43.39413" lon="-0.33477">
        <ele>271.961</ele>
        <time>2011-05-29T06:49:45Z</time>
      </trkpt>
      <trkpt lat="43.39425" lon="-0.33457">
        <ele>274.92</ele>
        <time>2011-05-29T06:49:54Z</time>
      </trkpt>
      <trkpt lat="43.39438" lon="-0.33433">
        <ele>278.019</ele>
        <time>2011-05-29T06:50:05Z</time>
      </trkpt>
      <trkpt lat="43.39447" lon="-0.33416">
        <ele>280.727</ele>
        <time>2011-05-29T06:50:13Z</time>
      </trkpt>
      <trkpt lat="43.39457" lon="-0.33398">
        <ele>282.874</ele>
        <time>2011-05-29T06:50:22Z</time>
      </trkpt>
      <trkpt lat="43.39466" lon="-0.33385">
        <ele>284.729</ele>
        <time>2011-05-29T06:50:29Z</time>
      </trkpt>
      <trkpt lat="43.39481" lon="-0.33368">
        <ele>287.824</ele>
        <time>2011-05-29T06:50:39Z</time>
      </trkpt>
      <trkpt lat="43.39495" lon="-0.33352">
        <ele>290.585</ele>
        <time>2011-05-29T06:50:49Z</time>
      </trkpt>
      <trkpt lat="43.39512" lon="-0.33332">
        <ele>293.702</ele>
        <time>2011-05-29T06:51:00Z</time>
      </trkpt>
      <trkpt lat="43.39525" lon="-0.33314">
        <ele>294.846</ele>
        <time>2011-05-29T06:51:08Z</time>
      </trkpt>
      <trkpt lat="43.39539" lon="-0.33277">
        <ele>295.561</ele>
        <time>2011-05-29T06:51:18Z</time>
      </trkpt>
      <trkpt lat="43.39549" lon="-0.33238">
        <ele>296.763</ele>
        <time>2011-05-29T06:51:26Z</time>
      </trkpt>
      <trkpt lat="43.39553" lon="-0.33207">
        <ele>297.595</ele>
        <time>2011-05-29T06:51:32Z</time>
      </trkpt>
      <trkpt lat="43.39553" lon="-0.33184">
        <ele>298.025</ele>
        <time>2011-05-29T06:51:36Z</time>
      </trkpt>
      <trkpt lat="43.39543" lon="-0.33145">
        <ele>298.664</ele>
        <time>2011-05-29T06:51:43Z</time>
      </trkpt>
      <trkpt lat="43.39526" lon="-0.33097">
        <ele>299.007</ele>
        <time>2011-05-29T06:51:51Z</time>
      </trkpt>
      <trkpt lat="43.39509" lon="-0.33053">
        <ele>299.143</ele>
        <time>2011-05-29T06:51:58Z</time>
      </trkpt>
      <trkpt lat="43.39497" lon="-0.33012">
        <ele>298.971</ele>
        <time>2011-05-29T06:52:04Z</time>
      </trkpt>
      <trkpt lat="43.39492" lon="-0.32961">
        <ele>299.122</ele>
        <time>2011-05-29T06:52:11Z</time>
      </trkpt>
      <trkpt lat="43.39479" lon="-0.32881">
        <ele>299.38</ele>
        <time>2011-05-29T06:52:22Z</time>
      </trkpt>
      <trkpt lat="43.39461" lon="-0.32815">
        <ele>299.608</ele>
        <time>2011-05-29T06:52:31Z</time>
      </trkpt>
      <trkpt lat="43.3944" lon="-0.32758">
        <ele>299.081</ele>
        <time>2011-05-29T06:52:38Z</time>
      </trkpt>
      <trkpt lat="43.39421" lon="-0.32706">
        <ele>298.229</ele>
        <time>2011-05-29T06:52:44Z</time>
      </trkpt>
      <trkpt lat="43.39412" lon="-0.32643">
        <ele>297.988</ele>
        <time>2011-05-29T06:52:51Z</time>
      </trkpt>
      <trkpt lat="43.39412" lon="-0.32581">
        <ele>298.28</ele>
        <time>2011-05-29T06:52:58Z</time>
      </trkpt>
      <trkpt lat="43.39415" lon="-0.32531">
        <ele>299.825</ele>
        <time>2011-05-29T06:53:04Z</time>
      </trkpt>
      <trkpt lat="43.39419" lon="-0.32507">
        <ele>301.102</ele>
        <time>2011-05-29T06:53:07Z</time>
      </trkpt>
      <trkpt lat="43.39438" lon="-0.32465">
        <ele>304.182</ele>
        <time>2011-05-29T06:53:14Z</time>
      </trkpt>
      <trkpt lat="43.39454" lon="-0.32423">
        <ele>305.839</ele>
        <time>2011-05-29T06:53:22Z</time>
      </trkpt>
      <trkpt lat="43.39461" lon="-0.32397">
        <ele>306.824</ele>
        <time>2011-05-29T06:53:27Z</time>
      </trkpt>
      <trkpt lat="43.39471" lon="-0.32378">
        <ele>307.678</ele>
        <time>2011-05-29T06:53:32Z</time>
      </trkpt>
      <trkpt lat="43.39501" lon="-0.32354">
        <ele>308.582</ele>
        <time>2011-05-29T06:53:40Z</time>
      </trkpt>
      <trkpt lat="43.39523" lon="-0.32336">
        <ele>308.971</ele>
        <time>2011-05-29T06:53:47Z</time>
      </trkpt>
      <trkpt lat="43.3953" lon="-0.32327">
        <ele>309.053</ele>
        <time>2011-05-29T06:53:50Z</time>
      </trkpt>
      <trkpt lat="43.39563" lon="-0.32305">
        <ele>308.461</ele>
        <time>2011-05-29T06:53:57Z</time>
      </trkpt>
      <trkpt lat="43.39591" lon="-0.32285">
        <ele>307.253</ele>
        <time>2011-05-29T06:54:02Z</time>
      </trkpt>
      <trkpt lat="43.39602" lon="-0.32273">
        <ele>306.709</ele>
        <time>2011-05-29T06:54:04Z</time>
      </trkpt>
      <trkpt lat="43.39638" lon="-0.32226">
        <ele>303.911</ele>
        <time>2011-05-29T06:54:10Z</time>
      </trkpt>
      <trkpt lat="43.39673" lon="-0.32182">
        <ele>299.855</ele>
        <time>2011-05-29T06:54:15Z</time>
      </trkpt>
      <trkpt lat="43.39691" lon="-0.32152">
        <ele>298.404</ele>
        <time>2011-05-29T06:54:18Z</time>
      </trkpt>
      <trkpt lat="43.3972" lon="-0.32112">
        <ele>298.831</ele>
        <time>2011-05-29T06:54:23Z</time>
      </trkpt>
      <trkpt lat="43.39745" lon="-0.32087">
        <ele>300.402</ele>
        <time>2011-05-29T06:54:28Z</time>
      </trkpt>
      <trkpt lat="43.39762" lon="-0.32072">
        <ele>301.646</ele>
        <time>2011-05-29T06:54:33Z</time>
      </trkpt>
      <trkpt lat="43.39783" lon="-0.32052">
        <ele>303.445</ele>
        <time>2011-05-29T06:54:41Z</time>
      </trkpt>
      <trkpt lat="43.39813" lon="-0.32017">
        <ele>305.424</ele>
        <time>2011-05-29T06:54:53Z</time>
      </trkpt>
      <trkpt lat="43.39837" lon="-0.31995">
        <ele>306.595</ele>
        <time>2011-05-29T06:55:02Z</time>
      </trkpt>
      <trkpt lat="43.39858" lon="-0.3198">
        <ele>307.936</ele>
        <time>2011-05-29T06:55:10Z</time>
      </trkpt>
      <trkpt lat="43.39888" lon="-0.31963">
        <ele>310.016</ele>
        <time>2011-05-29T06:55:20Z</time>
      </trkpt>
      <trkpt lat="43.39913" lon="-0.31946">
        <ele>310.819</ele>
        <time>2011-05-29T06:55:28Z</time>
      </trkpt>
      <trkpt lat="43.39936" lon="-0.31925">
        <ele>310.223</ele>
        <time>2011-05-29T06:55:33Z</time>
      </trkpt>
      <trkpt lat="43.39968" lon="-0.31898">
        <ele>308.714</ele>
        <time>2011-05-29T06:55:39Z</time>
      </trkpt>
      <trkpt lat="43.39998" lon="-0.31888">
        <ele>307.609</ele>
        <time>2011-05-29T06:55:44Z</time>
      </trkpt>
      <trkpt lat="43.40019" lon="-0.31894">
        <ele>307.015</ele>
        <time>2011-05-29T06:55:48Z</time>
      </trkpt>
      <trkpt lat="43.40056" lon="-0.31923">
        <ele>305.607</ele>
        <time>2011-05-29T06:55:55Z</time>
      </trkpt>
      <trkpt lat="43.40099" lon="-0.31953">
        <ele>303.905</ele>
        <time>2011-05-29T06:56:03Z</time>
      </trkpt>
      <trkpt lat="43.40103" lon="-0.31956">
        <ele>303.703</ele>
        <time>2011-05-29T06:56:04Z</time>
      </trkpt>
      <trkpt lat="43.40124" lon="-0.31963">
        <ele>303.25</ele>
        <time>2011-05-29T06:56:08Z</time>
      </trkpt>
      <trkpt lat="43.40135" lon="-0.31963">
        <ele>303.001</ele>
        <time>2011-05-29T06:56:10Z</time>
      </trkpt>
      <trkpt lat="43.40152" lon="-0.31973">
        <ele>302.694</ele>
        <time>2011-05-29T06:56:14Z</time>
      </trkpt>
      <trkpt lat="43.40158" lon="-0.31982">
        <ele>302.633</ele>
        <time>2011-05-29T06:56:16Z</time>
      </trkpt>
      <trkpt lat="43.40187" lon="-0.32025">
        <ele>302.336</ele>
        <time>2011-05-29T06:56:25Z</time>
      </trkpt>
      <trkpt lat="43.40192" lon="-0.32033">
        <ele>302.341</ele>
        <time>2011-05-29T06:56:27Z</time>
      </trkpt>
      <trkpt lat="43.40205" lon="-0.32049">
        <ele>302.647</ele>
        <time>2011-05-29T06:56:31Z</time>
      </trkpt>
      <trkpt lat="43.40227" lon="-0.32082">
        <ele>303.207</ele>
        <time>2011-05-29T06:56:38Z</time>
      </trkpt>
      <trkpt lat="43.40257" lon="-0.32128">
        <ele>303.893</ele>
        <time>2011-05-29T06:56:47Z</time>
      </trkpt>
      <trkpt lat="43.4029" lon="-0.32177">
        <ele>304.959</ele>
        <time>2011-05-29T06:56:57Z</time>
      </trkpt>
      <trkpt lat="43.40319" lon="-0.32217">
        <ele>306.03</ele>
        <time>2011-05-29T06:57:05Z</time>
      </trkpt>
      <trkpt lat="43.40345" lon="-0.32259">
        <ele>306.264</ele>
        <time>2011-05-29T06:57:13Z</time>
      </trkpt>
      <trkpt lat="43.40373" lon="-0.32304">
        <ele>306.271</ele>
        <time>2011-05-29T06:57:21Z</time>
      </trkpt>
      <trkpt lat="43.40403" lon="-0.32357">
        <ele>306.188</ele>
        <time>2011-05-29T06:57:30Z</time>
      </trkpt>
      <trkpt lat="43.40419" lon="-0.3238">
        <ele>306.194</ele>
        <time>2011-05-29T06:57:34Z</time>
      </trkpt>
      <trkpt lat="43.40461" lon="-0.32422">
        <ele>305.74</ele>
        <time>2011-05-29T06:57:43Z</time>
      </trkpt>
      <trkpt lat="43.40507" lon="-0.32464">
        <ele>305.217</ele>
        <time>2011-05-29T06:57:52Z</time>
      </trkpt>
      <trkpt lat="43.40549" lon="-0.32505">
        <ele>304.812</ele>
        <time>2011-05-29T06:58:00Z</time>
      </trkpt>
      <trkpt lat="43.40605" lon="-0.3256">
        <ele>304.154</ele>
        <time>2011-05-29T06:58:10Z</time>
      </trkpt>
      <trkpt lat="43.40646" lon="-0.32609">
        <ele>303.858</ele>
        <time>2011-05-29T06:58:18Z</time>
      </trkpt>
      <trkpt lat="43.40677" lon="-0.32663">
        <ele>304.218</ele>
        <time>2011-05-29T06:58:26Z</time>
      </trkpt>
      <trkpt lat="43.40711" lon="-0.32725">
        <ele>304.311</ele>
        <time>2011-05-29T06:58:35Z</time>
      </trkpt>
      <trkpt lat="43.40744" lon="-0.32772">
        <ele>303.76</ele>
        <time>2011-05-29T06:58:42Z</time>
      </trkpt>
      <trkpt lat="43.40786" lon="-0.32815">
        <ele>302.504</ele>
        <time>2011-05-29T06:58:49Z</time>
      </trkpt>
      <trkpt lat="43.40823" lon="-0.32846">
        <ele>301.613</ele>
        <time>2011-05-29T06:58:55Z</time>
      </trkpt>
      <trkpt lat="43.40841" lon="-0.32859">
        <ele>301.167</ele>
        <time>2011-05-29T06:58:58Z</time>
      </trkpt>
      <trkpt lat="43.40882" lon="-0.32873">
        <ele>299.687</ele>
        <time>2011-05-29T06:59:04Z</time>
      </trkpt>
      <trkpt lat="43.40911" lon="-0.32876">
        <ele>299.151</ele>
        <time>2011-05-29T06:59:08Z</time>
      </trkpt>
      <trkpt lat="43.40959" lon="-0.32882">
        <ele>299.33</ele>
        <time>2011-05-29T06:59:15Z</time>
      </trkpt>
      <trkpt lat="43.40996" lon="-0.32898">
        <ele>300.198</ele>
        <time>2011-05-29T06:59:21Z</time>
      </trkpt>
      <trkpt lat="43.41041" lon="-0.32929">
        <ele>299.843</ele>
        <time>2011-05-29T06:59:28Z</time>
      </trkpt>
      <trkpt lat="43.41105" lon="-0.32985">
        <ele>298.154</ele>
        <time>2011-05-29T06:59:38Z</time>
      </trkpt>
      <trkpt lat="43.41161" lon="-0.33037">
        <ele>295.945</ele>
        <time>2011-05-29T06:59:47Z</time>
      </trkpt>
      <trkpt lat="43.41186" lon="-0.33066">
        <ele>294.192</ele>
        <time>2011-05-29T06:59:51Z</time>
      </trkpt>
      <trkpt lat="43.41207" lon="-0.3309">
        <ele>291.051</ele>
        <time>2011-05-29T06:59:55Z</time>
      </trkpt>
      <trkpt lat="43.41217" lon="-0.33108">
        <ele>288.763</ele>
        <time>2011-05-29T06:59:58Z</time>
      </trkpt>
      <trkpt lat="43.41225" lon="-0.33141">
        <ele>286.234</ele>
        <time>2011-05-29T07:00:03Z</time>
      </trkpt>
      <trkpt lat="43.41239" lon="-0.33162">
        <ele>283.354</ele>
        <time>2011-05-29T07:00:07Z</time>
      </trkpt>
      <trkpt lat="43.41244" lon="-0.33165">
        <ele>282.647</ele>
        <time>2011-05-29T07:00:08Z</time>
      </trkpt>
      <trkpt lat="43.41268" lon="-0.33171">
        <ele>280.212</ele>
        <time>2011-05-29T07:00:13Z</time>
      </trkpt>
      <trkpt lat="43.4128" lon="-0.33175">
        <ele>279.799</ele>
        <time>2011-05-29T07:00:15Z</time>
      </trkpt>
      <trkpt lat="43.413" lon="-0.33196">
        <ele>278.476</ele>
        <time>2011-05-29T07:00:19Z</time>
      </trkpt>
      <trkpt lat="43.41325" lon="-0.33211">
        <ele>276.278</ele>
        <time>2011-05-29T07:00:22Z</time>
      </trkpt>
      <trkpt lat="43.41341" lon="-0.33214">
        <ele>275.326</ele>
        <time>2011-05-29T07:00:24Z</time>
      </trkpt>
      <trkpt lat="43.41353" lon="-0.33216">
        <ele>272.853</ele>
        <time>2011-05-29T07:00:26Z</time>
      </trkpt>
      <trkpt lat="43.41353" lon="-0.33237">
        <ele>267.592</ele>
        <time>2011-05-29T07:00:30Z</time>
      </trkpt>
      <trkpt lat="43.41334" lon="-0.33261">
        <ele>263.33</ele>
        <time>2011-05-29T07:00:33Z</time>
      </trkpt>
      <trkpt lat="43.41326" lon="-0.33265">
        <ele>262.059</ele>
        <time>2011-05-29T07:00:34Z</time>
      </trkpt>
      <trkpt lat="43.41311" lon="-0.33273">
        <ele>259.505</ele>
        <time>2011-05-29T07:00:36Z</time>
      </trkpt>
      <trkpt lat="43.4129" lon="-0.33283">
        <ele>255.445</ele>
        <time>2011-05-29T07:00:39Z</time>
      </trkpt>
      <trkpt lat="43.41288" lon="-0.33306">
        <ele>250.567</ele>
        <time>2011-05-29T07:00:43Z</time>
      </trkpt>
      <trkpt lat="43.41294" lon="-0.3331">
        <ele>249.433</ele>
        <time>2011-05-29T07:00:44Z</time>
      </trkpt>
      <trkpt lat="43.41326" lon="-0.33348">
        <ele>244.32</ele>
        <time>2011-05-29T07:00:49Z</time>
      </trkpt>
      <trkpt lat="43.41336" lon="-0.33389">
        <ele>242.11</ele>
        <time>2011-05-29T07:00:53Z</time>
      </trkpt>
      <trkpt lat="43.4134" lon="-0.33403">
        <ele>241.442</ele>
        <time>2011-05-29T07:00:55Z</time>
      </trkpt>
      <trkpt lat="43.41349" lon="-0.33428">
        <ele>241.347</ele>
        <time>2011-05-29T07:00:59Z</time>
      </trkpt>
      <trkpt lat="43.41367" lon="-0.33472">
        <ele>242.711</ele>
        <time>2011-05-29T07:01:08Z</time>
      </trkpt>
      <trkpt lat="43.41381" lon="-0.33496">
        <ele>243.655</ele>
        <time>2011-05-29T07:01:14Z</time>
      </trkpt>
      <trkpt lat="43.41399" lon="-0.33518">
        <ele>245.403</ele>
        <time>2011-05-29T07:01:22Z</time>
      </trkpt>
      <trkpt lat="43.41408" lon="-0.33528">
        <ele>246.736</ele>
        <time>2011-05-29T07:01:27Z</time>
      </trkpt>
      <trkpt lat="43.41425" lon="-0.33542">
        <ele>248.526</ele>
        <time>2011-05-29T07:01:34Z</time>
      </trkpt>
      <trkpt lat="43.41438" lon="-0.33555">
        <ele>250.245</ele>
        <time>2011-05-29T07:01:40Z</time>
      </trkpt>
      <trkpt lat="43.41452" lon="-0.33576">
        <ele>252.182</ele>
        <time>2011-05-29T07:01:47Z</time>
      </trkpt>
      <trkpt lat="43.41463" lon="-0.33597">
        <ele>253.364</ele>
        <time>2011-05-29T07:01:54Z</time>
      </trkpt>
      <trkpt lat="43.41477" lon="-0.33623">
        <ele>254.491</ele>
        <time>2011-05-29T07:02:02Z</time>
      </trkpt>
      <trkpt lat="43.41487" lon="-0.33654">
        <ele>255.53</ele>
        <time>2011-05-29T07:02:10Z</time>
      </trkpt>
      <trkpt lat="43.41493" lon="-0.33683">
        <ele>257.163</ele>
        <time>2011-05-29T07:02:18Z</time>
      </trkpt>
      <trkpt lat="43.41497" lon="-0.33714">
        <ele>259.084</ele>
        <time>2011-05-29T07:02:27Z</time>
      </trkpt>
      <trkpt lat="43.41506" lon="-0.33745">
        <ele>261.379</ele>
        <time>2011-05-29T07:02:37Z</time>
      </trkpt>
      <trkpt lat="43.41518" lon="-0.33767">
        <ele>263.691</ele>
        <time>2011-05-29T07:02:46Z</time>
      </trkpt>
      <trkpt lat="43.41526" lon="-0.33781">
        <ele>265.281</ele>
        <time>2011-05-29T07:02:52Z</time>
      </trkpt>
      <trkpt lat="43.41538" lon="-0.33792">
        <ele>266.181</ele>
        <time>2011-05-29T07:02:58Z</time>
      </trkpt>
      <trkpt lat="43.41549" lon="-0.33803">
        <ele>266.635</ele>
        <time>2011-05-29T07:03:03Z</time>
      </trkpt>
      <trkpt lat="43.41549" lon="-0.33831">
        <ele>267.94</ele>
        <time>2011-05-29T07:03:10Z</time>
      </trkpt>
      <trkpt lat="43.41541" lon="-0.33852">
        <ele>269.644</ele>
        <time>2011-05-29T07:03:17Z</time>
      </trkpt>
      <trkpt lat="43.41529" lon="-0.33868">
        <ele>271.075</ele>
        <time>2011-05-29T07:03:23Z</time>
      </trkpt>
      <trkpt lat="43.4151" lon="-0.33883">
        <ele>274.008</ele>
        <time>2011-05-29T07:03:32Z</time>
      </trkpt>
      <trkpt lat="43.415" lon="-0.33902">
        <ele>277.232</ele>
        <time>2011-05-29T07:03:40Z</time>
      </trkpt>
      <trkpt lat="43.41493" lon="-0.33926">
        <ele>279.776</ele>
        <time>2011-05-29T07:03:48Z</time>
      </trkpt>
      <trkpt lat="43.4149" lon="-0.33946">
        <ele>282.337</ele>
        <time>2011-05-29T07:03:55Z</time>
      </trkpt>
      <trkpt lat="43.4149" lon="-0.3397">
        <ele>285.077</ele>
        <time>2011-05-29T07:04:03Z</time>
      </trkpt>
      <trkpt lat="43.4149" lon="-0.33999">
        <ele>287.273</ele>
        <time>2011-05-29T07:04:12Z</time>
      </trkpt>
      <trkpt lat="43.41491" lon="-0.34026">
        <ele>289.37</ele>
        <time>2011-05-29T07:04:21Z</time>
      </trkpt>
      <trkpt lat="43.41494" lon="-0.34054">
        <ele>290.656</ele>
        <time>2011-05-29T07:04:29Z</time>
      </trkpt>
      <trkpt lat="43.41495" lon="-0.34074">
        <ele>291.409</ele>
        <time>2011-05-29T07:04:34Z</time>
      </trkpt>
      <trkpt lat="43.415" lon="-0.34109">
        <ele>292.818</ele>
        <time>2011-05-29T07:04:43Z</time>
      </trkpt>
      <trkpt lat="43.415" lon="-0.34113">
        <ele>293.046</ele>
        <time>2011-05-29T07:04:44Z</time>
      </trkpt>
      <trkpt lat="43.41511" lon="-0.34118">
        <ele>293.778</ele>
        <time>2011-05-29T07:04:49Z</time>
      </trkpt>
      <trkpt lat="43.41514" lon="-0.34115">
        <ele>293.871</ele>
        <time>2011-05-29T07:04:50Z</time>
      </trkpt>
      <trkpt lat="43.41537" lon="-0.3409">
        <ele>293.524</ele>
        <time>2011-05-29T07:04:56Z</time>
      </trkpt>
      <trkpt lat="43.41548" lon="-0.34078">
        <ele>292.909</ele>
        <time>2011-05-29T07:04:58Z</time>
      </trkpt>
      <trkpt lat="43.41577" lon="-0.34068">
        <ele>291.564</ele>
        <time>2011-05-29T07:05:02Z</time>
      </trkpt>
      <trkpt lat="43.41585" lon="-0.34069">
        <ele>291.005</ele>
        <time>2011-05-29T07:05:03Z</time>
      </trkpt>
      <trkpt lat="43.41602" lon="-0.34071">
        <ele>289.84</ele>
        <time>2011-05-29T07:05:05Z</time>
      </trkpt>
      <trkpt lat="43.41644" lon="-0.34061">
        <ele>287.311</ele>
        <time>2011-05-29T07:05:10Z</time>
      </trkpt>
      <trkpt lat="43.41658" lon="-0.34055">
        <ele>286.072</ele>
        <time>2011-05-29T07:05:12Z</time>
      </trkpt>
      <trkpt lat="43.41675" lon="-0.34058">
        <ele>283.992</ele>
        <time>2011-05-29T07:05:15Z</time>
      </trkpt>
      <trkpt lat="43.41692" lon="-0.34079">
        <ele>282.359</ele>
        <time>2011-05-29T07:05:19Z</time>
      </trkpt>
      <trkpt lat="43.41702" lon="-0.34087">
        <ele>282.424</ele>
        <time>2011-05-29T07:05:21Z</time>
      </trkpt>
      <trkpt lat="43.41732" lon="-0.3411">
        <ele>285.293</ele>
        <time>2011-05-29T07:05:28Z</time>
      </trkpt>
      <trkpt lat="43.41744" lon="-0.34119">
        <ele>287.047</ele>
        <time>2011-05-29T07:05:31Z</time>
      </trkpt>
      <trkpt lat="43.41774" lon="-0.34142">
        <ele>288.717</ele>
        <time>2011-05-29T07:05:39Z</time>
      </trkpt>
      <trkpt lat="43.41786" lon="-0.34153">
        <ele>288.876</ele>
        <time>2011-05-29T07:05:42Z</time>
      </trkpt>
      <trkpt lat="43.418" lon="-0.34177">
        <ele>288.567</ele>
        <time>2011-05-29T07:05:46Z</time>
      </trkpt>
      <trkpt lat="43.41818" lon="-0.34234">
        <ele>287.965</ele>
        <time>2011-05-29T07:05:54Z</time>
      </trkpt>
      <trkpt lat="43.41828" lon="-0.34267">
        <ele>288.711</ele>
        <time>2011-05-29T07:05:59Z</time>
      </trkpt>
      <trkpt lat="43.41837" lon="-0.34282">
        <ele>289.362</ele>
        <time>2011-05-29T07:06:02Z</time>
      </trkpt>
      <trkpt lat="43.41863" lon="-0.34307">
        <ele>291.266</ele>
        <time>2011-05-29T07:06:08Z</time>
      </trkpt>
      <trkpt lat="43.41883" lon="-0.34327">
        <ele>292.71</ele>
        <time>2011-05-29T07:06:13Z</time>
      </trkpt>
      <trkpt lat="43.41898" lon="-0.3433">
        <ele>293.322</ele>
        <time>2011-05-29T07:06:17Z</time>
      </trkpt>
      <trkpt lat="43.41903" lon="-0.34319">
        <ele>293.49</ele>
        <time>2011-05-29T07:06:19Z</time>
      </trkpt>
      <trkpt lat="43.4192" lon="-0.34271">
        <ele>292.675</ele>
        <time>2011-05-29T07:06:25Z</time>
      </trkpt>
      <trkpt lat="43.41944" lon="-0.34217">
        <ele>290.839</ele>
        <time>2011-05-29T07:06:31Z</time>
      </trkpt>
      <trkpt lat="43.41981" lon="-0.34151">
        <ele>289.161</ele>
        <time>2011-05-29T07:06:39Z</time>
      </trkpt>
      <trkpt lat="43.42023" lon="-0.34085">
        <ele>286.997</ele>
        <time>2011-05-29T07:06:47Z</time>
      </trkpt>
      <trkpt lat="43.42042" lon="-0.34042">
        <ele>284.9</ele>
        <time>2011-05-29T07:06:51Z</time>
      </trkpt>
      <trkpt lat="43.42052" lon="-0.3399">
        <ele>282.453</ele>
        <time>2011-05-29T07:06:55Z</time>
      </trkpt>
      <trkpt lat="43.42062" lon="-0.3394">
        <ele>278.959</ele>
        <time>2011-05-29T07:06:59Z</time>
      </trkpt>
      <trkpt lat="43.42068" lon="-0.3393">
        <ele>277.898</ele>
        <time>2011-05-29T07:07:00Z</time>
      </trkpt>
      <trkpt lat="43.42107" lon="-0.3388">
        <ele>272.712</ele>
        <time>2011-05-29T07:07:05Z</time>
      </trkpt>
      <trkpt lat="43.42132" lon="-0.33856">
        <ele>270.828</ele>
        <time>2011-05-29T07:07:08Z</time>
      </trkpt>
      <trkpt lat="43.42183" lon="-0.33815">
        <ele>265.463</ele>
        <time>2011-05-29T07:07:13Z</time>
      </trkpt>
      <trkpt lat="43.42253" lon="-0.33753">
        <ele>257.123</ele>
        <time>2011-05-29T07:07:20Z</time>
      </trkpt>
      <trkpt lat="43.42292" lon="-0.33706">
        <ele>252.932</ele>
        <time>2011-05-29T07:07:25Z</time>
      </trkpt>
      <trkpt lat="43.42326" lon="-0.3365">
        <ele>248.697</ele>
        <time>2011-05-29T07:07:30Z</time>
      </trkpt>
      <trkpt lat="43.4235" lon="-0.33599">
        <ele>245.591</ele>
        <time>2011-05-29T07:07:34Z</time>
      </trkpt>
      <trkpt lat="43.4239" lon="-0.33529">
        <ele>239.799</ele>
        <time>2011-05-29T07:07:40Z</time>
      </trkpt>
      <trkpt lat="43.42396" lon="-0.33518">
        <ele>238.772</ele>
        <time>2011-05-29T07:07:41Z</time>
      </trkpt>
      <trkpt lat="43.42428" lon="-0.33487">
        <ele>233.456</ele>
        <time>2011-05-29T07:07:45Z</time>
      </trkpt>
      <trkpt lat="43.4246" lon="-0.33453">
        <ele>227.834</ele>
        <time>2011-05-29T07:07:49Z</time>
      </trkpt>
      <trkpt lat="43.42485" lon="-0.33439">
        <ele>225.382</ele>
        <time>2011-05-29T07:07:52Z</time>
      </trkpt>
      <trkpt lat="43.42502" lon="-0.33435">
        <ele>224.644</ele>
        <time>2011-05-29T07:07:54Z</time>
      </trkpt>
      <trkpt lat="43.42569" lon="-0.33424">
        <ele>223.353</ele>
        <time>2011-05-29T07:08:01Z</time>
      </trkpt>
      <trkpt lat="43.4264" lon="-0.33408">
        <ele>221.302</ele>
        <time>2011-05-29T07:08:09Z</time>
      </trkpt>
      <trkpt lat="43.42673" lon="-0.33413">
        <ele>219.17</ele>
        <time>2011-05-29T07:08:13Z</time>
      </trkpt>
      <trkpt lat="43.42679" lon="-0.33417">
        <ele>218.481</ele>
        <time>2011-05-29T07:08:14Z</time>
      </trkpt>
      <trkpt lat="43.42692" lon="-0.33426">
        <ele>216.287</ele>
        <time>2011-05-29T07:08:17Z</time>
      </trkpt>
      <trkpt lat="43.42694" lon="-0.33408">
        <ele>214.493</ele>
        <time>2011-05-29T07:08:20Z</time>
      </trkpt>
      <trkpt lat="43.42695" lon="-0.33392">
        <ele>213.766</ele>
        <time>2011-05-29T07:08:22Z</time>
      </trkpt>
      <trkpt lat="43.42707" lon="-0.33375">
        <ele>213.416</ele>
        <time>2011-05-29T07:08:25Z</time>
      </trkpt>
      <trkpt lat="43.42732" lon="-0.33365">
        <ele>213.178</ele>
        <time>2011-05-29T07:08:29Z</time>
      </trkpt>
      <trkpt lat="43.42777" lon="-0.33347">
        <ele>213.012</ele>
        <time>2011-05-29T07:08:36Z</time>
      </trkpt>
      <trkpt lat="43.42783" lon="-0.33345">
        <ele>213.201</ele>
        <time>2011-05-29T07:08:37Z</time>
      </trkpt>
      <trkpt lat="43.4281" lon="-0.33342">
        <ele>214.652</ele>
        <time>2011-05-29T07:08:42Z</time>
      </trkpt>
      <trkpt lat="43.42833" lon="-0.33337">
        <ele>216.049</ele>
        <time>2011-05-29T07:08:47Z</time>
      </trkpt>
      <trkpt lat="43.42847" lon="-0.33338">
        <ele>217.257</ele>
        <time>2011-05-29T07:08:52Z</time>
      </trkpt>
      <trkpt lat="43.42863" lon="-0.33339">
        <ele>219.158</ele>
        <time>2011-05-29T07:08:58Z</time>
      </trkpt>
      <trkpt lat="43.42879" lon="-0.33338">
        <ele>220.867</ele>
        <time>2011-05-29T07:09:04Z</time>
      </trkpt>
      <trkpt lat="43.42894" lon="-0.33334">
        <ele>223.065</ele>
        <time>2011-05-29T07:09:11Z</time>
      </trkpt>
      <trkpt lat="43.42905" lon="-0.33334">
        <ele>224.813</ele>
        <time>2011-05-29T07:09:17Z</time>
      </trkpt>
      <trkpt lat="43.42919" lon="-0.33333">
        <ele>227.609</ele>
        <time>2011-05-29T07:09:25Z</time>
      </trkpt>
      <trkpt lat="43.42929" lon="-0.33337">
        <ele>229.341</ele>
        <time>2011-05-29T07:09:32Z</time>
      </trkpt>
      <trkpt lat="43.42932" lon="-0.33336">
        <ele>229.783</ele>
        <time>2011-05-29T07:09:34Z</time>
      </trkpt>
      <trkpt lat="43.42946" lon="-0.33337">
        <ele>231.697</ele>
        <time>2011-05-29T07:09:42Z</time>
      </trkpt>
      <trkpt lat="43.42954" lon="-0.33339">
        <ele>233.209</ele>
        <time>2011-05-29T07:09:47Z</time>
      </trkpt>
      <trkpt lat="43.42961" lon="-0.3334">
        <ele>234.722</ele>
        <time>2011-05-29T07:09:52Z</time>
      </trkpt>
      <trkpt lat="43.42976" lon="-0.33344">
        <ele>236.749</ele>
        <time>2011-05-29T07:09:59Z</time>
      </trkpt>
      <trkpt lat="43.42992" lon="-0.33349">
        <ele>238.174</ele>
        <time>2011-05-29T07:10:07Z</time>
      </trkpt>
      <trkpt lat="43.43009" lon="-0.33355">
        <ele>239.409</ele>
        <time>2011-05-29T07:10:14Z</time>
      </trkpt>
      <trkpt lat="43.43023" lon="-0.33353">
        <ele>240.299</ele>
        <time>2011-05-29T07:10:20Z</time>
      </trkpt>
      <trkpt lat="43.43035" lon="-0.33341">
        <ele>241.784</ele>
        <time>2011-05-29T07:10:26Z</time>
      </trkpt>
      <trkpt lat="43.43046" lon="-0.33327">
        <ele>243.619</ele>
        <time>2011-05-29T07:10:33Z</time>
      </trkpt>
      <trkpt lat="43.43062" lon="-0.33307">
        <ele>245.447</ele>
        <time>2011-05-29T07:10:42Z</time>
      </trkpt>
      <trkpt lat="43.43079" lon="-0.33281">
        <ele>246.689</ele>
        <time>2011-05-29T07:10:52Z</time>
      </trkpt>
      <trkpt lat="43.43081" lon="-0.33278">
        <ele>246.802</ele>
        <time>2011-05-29T07:10:53Z</time>
      </trkpt>
      <trkpt lat="43.43075" lon="-0.33271">
        <ele>246.878</ele>
        <time>2011-05-29T07:10:57Z</time>
      </trkpt>
      <trkpt lat="43.43067" lon="-0.33258">
        <ele>246.974</ele>
        <time>2011-05-29T07:11:01Z</time>
      </trkpt>
      <trkpt lat="43.43068" lon="-0.3324">
        <ele>247.13</ele>
        <time>2011-05-29T07:11:04Z</time>
      </trkpt>
      <trkpt lat="43.43078" lon="-0.33196">
        <ele>246.8</ele>
        <time>2011-05-29T07:11:10Z</time>
      </trkpt>
      <trkpt lat="43.43079" lon="-0.33188">
        <ele>246.607</ele>
        <time>2011-05-29T07:11:11Z</time>
      </trkpt>
      <trkpt lat="43.43085" lon="-0.33112">
        <ele>244.648</ele>
        <time>2011-05-29T07:11:19Z</time>
      </trkpt>
      <trkpt lat="43.43087" lon="-0.33038">
        <ele>243.599</ele>
        <time>2011-05-29T07:11:27Z</time>
      </trkpt>
      <trkpt lat="43.43089" lon="-0.32929">
        <ele>242.844</ele>
        <time>2011-05-29T07:11:39Z</time>
      </trkpt>
      <trkpt lat="43.43085" lon="-0.32849">
        <ele>243.206</ele>
        <time>2011-05-29T07:11:48Z</time>
      </trkpt>
      <trkpt lat="43.43078" lon="-0.32803">
        <ele>243.391</ele>
        <time>2011-05-29T07:11:54Z</time>
      </trkpt>
      <trkpt lat="43.43072" lon="-0.32779">
        <ele>243.604</ele>
        <time>2011-05-29T07:11:59Z</time>
      </trkpt>
      <trkpt lat="43.43069" lon="-0.32768">
        <ele>243.614</ele>
        <time>2011-05-29T07:12:02Z</time>
      </trkpt>
      <trkpt lat="43.43076" lon="-0.32752">
        <ele>243.447</ele>
        <time>2011-05-29T07:12:07Z</time>
      </trkpt>
      <trkpt lat="43.43096" lon="-0.32726">
        <ele>243.102</ele>
        <time>2011-05-29T07:12:14Z</time>
      </trkpt>
      <trkpt lat="43.43112" lon="-0.32708">
        <ele>242.847</ele>
        <time>2011-05-29T07:12:18Z</time>
      </trkpt>
      <trkpt lat="43.43142" lon="-0.32671">
        <ele>241.919</ele>
        <time>2011-05-29T07:12:25Z</time>
      </trkpt>
      <trkpt lat="43.43185" lon="-0.32621">
        <ele>241.076</ele>
        <time>2011-05-29T07:12:34Z</time>
      </trkpt>
      <trkpt lat="43.43192" lon="-0.3261">
        <ele>240.967</ele>
        <time>2011-05-29T07:12:36Z</time>
      </trkpt>
      <trkpt lat="43.4322" lon="-0.32584">
        <ele>240.806</ele>
        <time>2011-05-29T07:12:43Z</time>
      </trkpt>
      <trkpt lat="43.4326" lon="-0.32549">
        <ele>240.956</ele>
        <time>2011-05-29T07:12:53Z</time>
      </trkpt>
      <trkpt lat="43.43271" lon="-0.32539">
        <ele>241.065</ele>
        <time>2011-05-29T07:12:56Z</time>
      </trkpt>
      <trkpt lat="43.43282" lon="-0.32515">
        <ele>241.281</ele>
        <time>2011-05-29T07:13:01Z</time>
      </trkpt>
      <trkpt lat="43.43283" lon="-0.32487">
        <ele>241.225</ele>
        <time>2011-05-29T07:13:06Z</time>
      </trkpt>
      <trkpt lat="43.43268" lon="-0.32425">
        <ele>241.389</ele>
        <time>2011-05-29T07:13:17Z</time>
      </trkpt>
      <trkpt lat="43.43258" lon="-0.32388">
        <ele>241.634</ele>
        <time>2011-05-29T07:13:23Z</time>
      </trkpt>
      <trkpt lat="43.43255" lon="-0.32363">
        <ele>241.897</ele>
        <time>2011-05-29T07:13:27Z</time>
      </trkpt>
      <trkpt lat="43.43258" lon="-0.32309">
        <ele>242.362</ele>
        <time>2011-05-29T07:13:35Z</time>
      </trkpt>
      <trkpt lat="43.4326" lon="-0.32248">
        <ele>242.557</ele>
        <time>2011-05-29T07:13:43Z</time>
      </trkpt>
      <trkpt lat="43.43263" lon="-0.32178">
        <ele>242.62</ele>
        <time>2011-05-29T07:13:52Z</time>
      </trkpt>
      <trkpt lat="43.43267" lon="-0.32108">
        <ele>242.584</ele>
        <time>2011-05-29T07:14:01Z</time>
      </trkpt>
      <trkpt lat="43.43273" lon="-0.32061">
        <ele>242.532</ele>
        <time>2011-05-29T07:14:07Z</time>
      </trkpt>
      <trkpt lat="43.43287" lon="-0.32035">
        <ele>242.388</ele>
        <time>2011-05-29T07:14:11Z</time>
      </trkpt>
      <trkpt lat="43.43293" lon="-0.32032">
        <ele>242.344</ele>
        <time>2011-05-29T07:14:12Z</time>
      </trkpt>
      <trkpt lat="43.43341" lon="-0.32005">
        <ele>241.398</ele>
        <time>2011-05-29T07:14:20Z</time>
      </trkpt>
      <trkpt lat="43.43372" lon="-0.31992">
        <ele>240.422</ele>
        <time>2011-05-29T07:14:25Z</time>
      </trkpt>
      <trkpt lat="43.43429" lon="-0.31967">
        <ele>239.027</ele>
        <time>2011-05-29T07:14:34Z</time>
      </trkpt>
      <trkpt lat="43.43481" lon="-0.31938">
        <ele>237.54</ele>
        <time>2011-05-29T07:14:42Z</time>
      </trkpt>
      <trkpt lat="43.43514" lon="-0.31916">
        <ele>237.757</ele>
        <time>2011-05-29T07:14:48Z</time>
      </trkpt>
      <trkpt lat="43.4355" lon="-0.31899">
        <ele>238.741</ele>
        <time>2011-05-29T07:14:55Z</time>
      </trkpt>
      <trkpt lat="43.43566" lon="-0.31893">
        <ele>238.889</ele>
        <time>2011-05-29T07:14:59Z</time>
      </trkpt>
      <trkpt lat="43.4357" lon="-0.31873">
        <ele>238.602</ele>
        <time>2011-05-29T07:15:03Z</time>
      </trkpt>
      <trkpt lat="43.43564" lon="-0.31846">
        <ele>237.435</ele>
        <time>2011-05-29T07:15:06Z</time>
      </trkpt>
      <trkpt lat="43.43565" lon="-0.31819">
        <ele>236.694</ele>
        <time>2011-05-29T07:15:08Z</time>
      </trkpt>
      <trkpt lat="43.43572" lon="-0.31792">
        <ele>234.658</ele>
        <time>2011-05-29T07:15:10Z</time>
      </trkpt>
      <trkpt lat="43.43593" lon="-0.31734">
        <ele>226.533</ele>
        <time>2011-05-29T07:15:15Z</time>
      </trkpt>
      <trkpt lat="43.436" lon="-0.31683">
        <ele>219.405</ele>
        <time>2011-05-29T07:15:19Z</time>
      </trkpt>
      <trkpt lat="43.43602" lon="-0.31658">
        <ele>214.615</ele>
        <time>2011-05-29T07:15:22Z</time>
      </trkpt>
      <trkpt lat="43.43605" lon="-0.31645">
        <ele>210.928</ele>
        <time>2011-05-29T07:15:25Z</time>
      </trkpt>
      <trkpt lat="43.43625" lon="-0.31646">
        <ele>207.683</ele>
        <time>2011-05-29T07:15:29Z</time>
      </trkpt>
      <trkpt lat="43.43647" lon="-0.31657">
        <ele>205.379</ele>
        <time>2011-05-29T07:15:32Z</time>
      </trkpt>
      <trkpt lat="43.4367" lon="-0.31652">
        <ele>202.484</ele>
        <time>2011-05-29T07:15:36Z</time>
      </trkpt>
      <trkpt lat="43.43683" lon="-0.3165">
        <ele>200.148</ele>
        <time>2011-05-29T07:15:38Z</time>
      </trkpt>
      <trkpt lat="43.43701" lon="-0.31657">
        <ele>196.955</ele>
        <time>2011-05-29T07:15:41Z</time>
      </trkpt>
      <trkpt lat="43.43762" lon="-0.31697">
        <ele>191.863</ele>
        <time>2011-05-29T07:15:50Z</time>
      </trkpt>
      <trkpt lat="43.43814" lon="-0.31735">
        <ele>190.866</ele>
        <time>2011-05-29T07:15:58Z</time>
      </trkpt>
      <trkpt lat="43.43833" lon="-0.31749">
        <ele>189.899</ele>
        <time>2011-05-29T07:16:02Z</time>
      </trkpt>
      <trkpt lat="43.4383" lon="-0.31765">
        <ele>189.376</ele>
        <time>2011-05-29T07:16:06Z</time>
      </trkpt>
      <trkpt lat="43.43827" lon="-0.31774">
        <ele>190.134</ele>
        <time>2011-05-29T07:16:09Z</time>
      </trkpt>
      <trkpt lat="43.43821" lon="-0.31789">
        <ele>192.563</ele>
        <time>2011-05-29T07:16:14Z</time>
      </trkpt>
      <trkpt lat="43.43815" lon="-0.318">
        <ele>194.439</ele>
        <time>2011-05-29T07:16:18Z</time>
      </trkpt>
      <trkpt lat="43.43813" lon="-0.31808">
        <ele>195.854</ele>
        <time>2011-05-29T07:16:21Z</time>
      </trkpt>
      <trkpt lat="43.43818" lon="-0.31825">
        <ele>197.94</ele>
        <time>2011-05-29T07:16:27Z</time>
      </trkpt>
      <trkpt lat="43.43828" lon="-0.31839">
        <ele>199.717</ele>
        <time>2011-05-29T07:16:34Z</time>
      </trkpt>
      <trkpt lat="43.43843" lon="-0.31851">
        <ele>200.249</ele>
        <time>2011-05-29T07:16:39Z</time>
      </trkpt>
      <trkpt lat="43.43848" lon="-0.31854">
        <ele>200.158</ele>
        <time>2011-05-29T07:16:40Z</time>
      </trkpt>
      <trkpt lat="43.43874" lon="-0.31884">
        <ele>199.021</ele>
        <time>2011-05-29T07:16:46Z</time>
      </trkpt>
      <trkpt lat="43.43899" lon="-0.31909">
        <ele>198.042</ele>
        <time>2011-05-29T07:16:51Z</time>
      </trkpt>
      <trkpt lat="43.43919" lon="-0.31923">
        <ele>195.985</ele>
        <time>2011-05-29T07:16:55Z</time>
      </trkpt>
      <trkpt lat="43.43933" lon="-0.31927">
        <ele>194.444</ele>
        <time>2011-05-29T07:16:57Z</time>
      </trkpt>
      <trkpt lat="43.4396" lon="-0.31926">
        <ele>191.061</ele>
        <time>2011-05-29T07:17:01Z</time>
      </trkpt>
      <trkpt lat="43.43973" lon="-0.31936">
        <ele>188.724</ele>
        <time>2011-05-29T07:17:04Z</time>
      </trkpt>
      <trkpt lat="43.43991" lon="-0.3196">
        <ele>187.208</ele>
        <time>2011-05-29T07:17:09Z</time>
      </trkpt>
      <trkpt lat="43.44027" lon="-0.31987">
        <ele>186.851</ele>
        <time>2011-05-29T07:17:16Z</time>
      </trkpt>
      <trkpt lat="43.44047" lon="-0.32003">
        <ele>186.243</ele>
        <time>2011-05-29T07:17:20Z</time>
      </trkpt>
      <trkpt lat="43.44062" lon="-0.32002">
        <ele>186.058</ele>
        <time>2011-05-29T07:17:24Z</time>
      </trkpt>
      <trkpt lat="43.44079" lon="-0.31989">
        <ele>185.864</ele>
        <time>2011-05-29T07:17:28Z</time>
      </trkpt>
      <trkpt lat="43.44091" lon="-0.31972">
        <ele>185.201</ele>
        <time>2011-05-29T07:17:31Z</time>
      </trkpt>
      <trkpt lat="43.44109" lon="-0.31933">
        <ele>183.675</ele>
        <time>2011-05-29T07:17:37Z</time>
      </trkpt>
      <trkpt lat="43.44113" lon="-0.31927">
        <ele>183.305</ele>
        <time>2011-05-29T07:17:40Z</time>
      </trkpt>
      <trkpt lat="43.44113" lon="-0.31926">
        <ele>182.796</ele>
        <time>2011-05-29T07:17:43Z</time>
      </trkpt>
      <trkpt lat="43.44121" lon="-0.3191">
        <ele>182.509</ele>
        <time>2011-05-29T07:17:49Z</time>
      </trkpt>
      <trkpt lat="43.44137" lon="-0.3188">
        <ele>181.654</ele>
        <time>2011-05-29T07:17:55Z</time>
      </trkpt>
      <trkpt lat="43.4414" lon="-0.31875">
        <ele>181.487</ele>
        <time>2011-05-29T07:17:56Z</time>
      </trkpt>
      <trkpt lat="43.44158" lon="-0.31833">
        <ele>180.797</ele>
        <time>2011-05-29T07:18:03Z</time>
      </trkpt>
      <trkpt lat="43.44174" lon="-0.31797">
        <ele>180.57</ele>
        <time>2011-05-29T07:18:09Z</time>
      </trkpt>
      <trkpt lat="43.44196" lon="-0.3177">
        <ele>179.823</ele>
        <time>2011-05-29T07:18:14Z</time>
      </trkpt>
      <trkpt lat="43.4424" lon="-0.31745">
        <ele>178.514</ele>
        <time>2011-05-29T07:18:22Z</time>
      </trkpt>
      <trkpt lat="43.44261" lon="-0.31739">
        <ele>178.161</ele>
        <time>2011-05-29T07:18:27Z</time>
      </trkpt>
      <trkpt lat="43.44266" lon="-0.31735">
        <ele>177.845</ele>
        <time>2011-05-29T07:18:30Z</time>
      </trkpt>
      <trkpt lat="43.44269" lon="-0.31723">
        <ele>177.136</ele>
        <time>2011-05-29T07:18:35Z</time>
      </trkpt>
      <trkpt lat="43.44268" lon="-0.31723">
        <ele>175.911</ele>
        <time>2011-05-29T07:18:41Z</time>
      </trkpt>
      <trkpt lat="43.44273" lon="-0.3172">
        <ele>176.087</ele>
        <time>2011-05-29T07:19:13Z</time>
      </trkpt>
      <trkpt lat="43.44273" lon="-0.31719">
        <ele>175.819</ele>
        <time>2011-05-29T07:19:24Z</time>
      </trkpt>
      <trkpt lat="43.44283" lon="-0.3173">
        <ele>175.786</ele>
        <time>2011-05-29T07:19:41Z</time>
      </trkpt>
      <trkpt lat="43.44284" lon="-0.3173">
        <ele>175.728</ele>
        <time>2011-05-29T07:19:42Z</time>
      </trkpt>
      <trkpt lat="43.44285" lon="-0.31732">
        <ele>175.475</ele>
        <time>2011-05-29T07:20:00Z</time>
      </trkpt>
      <trkpt lat="43.44282" lon="-0.31731">
        <ele>175.542</ele>
        <time>2011-05-29T07:20:10Z</time>
      </trkpt>
      <trkpt lat="43.44281" lon="-0.31731">
        <ele>175.498</ele>
        <time>2011-05-29T07:20:18Z</time>
      </trkpt>
      <trkpt lat="43.44279" lon="-0.3173">
        <ele>175.357</ele>
        <time>2011-05-29T07:20:24Z</time>
      </trkpt>
      <trkpt lat="43.44275" lon="-0.31728">
        <ele>175.666</ele>
        <time>2011-05-29T07:20:33Z</time>
      </trkpt>
      <trkpt lat="43.44271" lon="-0.31723">
        <ele>175.765</ele>
        <time>2011-05-29T07:20:36Z</time>
      </trkpt>
      <trkpt lat="43.44258" lon="-0.31705">
        <ele>175.256</ele>
        <time>2011-05-29T07:20:41Z</time>
      </trkpt>
      <trkpt lat="43.44245" lon="-0.31694">
        <ele>174.861</ele>
        <time>2011-05-29T07:20:45Z</time>
      </trkpt>
      <trkpt lat="43.44247" lon="-0.31684">
        <ele>175.703</ele>
        <time>2011-05-29T07:20:49Z</time>
      </trkpt>
      <trkpt lat="43.4426" lon="-0.31674">
        <ele>176.625</ele>
        <time>2011-05-29T07:20:54Z</time>
      </trkpt>
      <trkpt lat="43.44281" lon="-0.31654">
        <ele>176.48</ele>
        <time>2011-05-29T07:21:02Z</time>
      </trkpt>
      <trkpt lat="43.44298" lon="-0.31646">
        <ele>176.473</ele>
        <time>2011-05-29T07:21:08Z</time>
      </trkpt>
      <trkpt lat="43.44309" lon="-0.31635">
        <ele>177.167</ele>
        <time>2011-05-29T07:21:13Z</time>
      </trkpt>
      <trkpt lat="43.44315" lon="-0.31633">
        <ele>178.823</ele>
        <time>2011-05-29T07:21:17Z</time>
      </trkpt>
      <trkpt lat="43.44323" lon="-0.31635">
        <ele>179.754</ele>
        <time>2011-05-29T07:21:20Z</time>
      </trkpt>
      <trkpt lat="43.44331" lon="-0.31651">
        <ele>179.611</ele>
        <time>2011-05-29T07:21:24Z</time>
      </trkpt>
      <trkpt lat="43.44342" lon="-0.31664">
        <ele>179.336</ele>
        <time>2011-05-29T07:21:29Z</time>
      </trkpt>
      <trkpt lat="43.44357" lon="-0.31674">
        <ele>180.808</ele>
        <time>2011-05-29T07:21:35Z</time>
      </trkpt>
      <trkpt lat="43.44373" lon="-0.31686">
        <ele>180.92</ele>
        <time>2011-05-29T07:21:40Z</time>
      </trkpt>
      <trkpt lat="43.44393" lon="-0.31703">
        <ele>180.009</ele>
        <time>2011-05-29T07:21:46Z</time>
      </trkpt>
      <trkpt lat="43.44411" lon="-0.31707">
        <ele>180.117</ele>
        <time>2011-05-29T07:21:52Z</time>
      </trkpt>
      <trkpt lat="43.44421" lon="-0.31705">
        <ele>180.712</ele>
        <time>2011-05-29T07:21:55Z</time>
      </trkpt>
      <trkpt lat="43.44441" lon="-0.31709">
        <ele>182.501</ele>
        <time>2011-05-29T07:22:02Z</time>
      </trkpt>
      <trkpt lat="43.44451" lon="-0.31715">
        <ele>183.827</ele>
        <time>2011-05-29T07:22:07Z</time>
      </trkpt>
      <trkpt lat="43.44464" lon="-0.31731">
        <ele>184.209</ele>
        <time>2011-05-29T07:22:12Z</time>
      </trkpt>
      <trkpt lat="43.44478" lon="-0.31752">
        <ele>183.543</ele>
        <time>2011-05-29T07:22:16Z</time>
      </trkpt>
      <trkpt lat="43.44494" lon="-0.3177">
        <ele>182.792</ele>
        <time>2011-05-29T07:22:21Z</time>
      </trkpt>
      <trkpt lat="43.44509" lon="-0.31787">
        <ele>182.66</ele>
        <time>2011-05-29T07:22:26Z</time>
      </trkpt>
      <trkpt lat="43.44525" lon="-0.31793">
        <ele>183.241</ele>
        <time>2011-05-29T07:22:30Z</time>
      </trkpt>
      <trkpt lat="43.44539" lon="-0.31795">
        <ele>183.808</ele>
        <time>2011-05-29T07:22:34Z</time>
      </trkpt>
      <trkpt lat="43.44554" lon="-0.31789">
        <ele>184.104</ele>
        <time>2011-05-29T07:22:39Z</time>
      </trkpt>
      <trkpt lat="43.44567" lon="-0.31769">
        <ele>184.947</ele>
        <time>2011-05-29T07:22:45Z</time>
      </trkpt>
      <trkpt lat="43.44576" lon="-0.31754">
        <ele>186.052</ele>
        <time>2011-05-29T07:22:50Z</time>
      </trkpt>
      <trkpt lat="43.44586" lon="-0.31738">
        <ele>187.527</ele>
        <time>2011-05-29T07:22:56Z</time>
      </trkpt>
      <trkpt lat="43.44597" lon="-0.31724">
        <ele>189.587</ele>
        <time>2011-05-29T07:23:03Z</time>
      </trkpt>
      <trkpt lat="43.44607" lon="-0.31713">
        <ele>191.495</ele>
        <time>2011-05-29T07:23:10Z</time>
      </trkpt>
      <trkpt lat="43.44616" lon="-0.31703">
        <ele>194.064</ele>
        <time>2011-05-29T07:23:17Z</time>
      </trkpt>
      <trkpt lat="43.44623" lon="-0.31695">
        <ele>195.755</ele>
        <time>2011-05-29T07:23:23Z</time>
      </trkpt>
      <trkpt lat="43.44628" lon="-0.31688">
        <ele>197.019</ele>
        <time>2011-05-29T07:23:27Z</time>
      </trkpt>
      <trkpt lat="43.44635" lon="-0.31678">
        <ele>198.877</ele>
        <time>2011-05-29T07:23:34Z</time>
      </trkpt>
      <trkpt lat="43.44636" lon="-0.31677">
        <ele>199.117</ele>
        <time>2011-05-29T07:23:35Z</time>
      </trkpt>
      <trkpt lat="43.44647" lon="-0.31664">
        <ele>201.523</ele>
        <time>2011-05-29T07:23:44Z</time>
      </trkpt>
      <trkpt lat="43.44656" lon="-0.31656">
        <ele>202.955</ele>
        <time>2011-05-29T07:23:50Z</time>
      </trkpt>
      <trkpt lat="43.44658" lon="-0.31655">
        <ele>203.08</ele>
        <time>2011-05-29T07:23:51Z</time>
      </trkpt>
      <trkpt lat="43.44669" lon="-0.31662">
        <ele>205.2</ele>
        <time>2011-05-29T07:23:59Z</time>
      </trkpt>
      <trkpt lat="43.4467" lon="-0.31663">
        <ele>205.555</ele>
        <time>2011-05-29T07:24:00Z</time>
      </trkpt>
      <trkpt lat="43.4467" lon="-0.31678">
        <ele>207.574</ele>
        <time>2011-05-29T07:24:07Z</time>
      </trkpt>
      <trkpt lat="43.44669" lon="-0.31684">
        <ele>208.294</ele>
        <time>2011-05-29T07:24:10Z</time>
      </trkpt>
      <trkpt lat="43.44667" lon="-0.31697">
        <ele>209.963</ele>
        <time>2011-05-29T07:24:17Z</time>
      </trkpt>
      <trkpt lat="43.44668" lon="-0.31708">
        <ele>210.752</ele>
        <time>2011-05-29T07:24:21Z</time>
      </trkpt>
      <trkpt lat="43.44671" lon="-0.3172">
        <ele>211.601</ele>
        <time>2011-05-29T07:24:28Z</time>
      </trkpt>
      <trkpt lat="43.44671" lon="-0.31736">
        <ele>212.896</ele>
        <time>2011-05-29T07:24:35Z</time>
      </trkpt>
      <trkpt lat="43.44672" lon="-0.31739">
        <ele>213.08</ele>
        <time>2011-05-29T07:24:36Z</time>
      </trkpt>
      <trkpt lat="43.44675" lon="-0.31752">
        <ele>213.753</ele>
        <time>2011-05-29T07:24:41Z</time>
      </trkpt>
      <trkpt lat="43.44681" lon="-0.31769">
        <ele>214.659</ele>
        <time>2011-05-29T07:24:48Z</time>
      </trkpt>
      <trkpt lat="43.44692" lon="-0.31775">
        <ele>215.245</ele>
        <time>2011-05-29T07:24:52Z</time>
      </trkpt>
      <trkpt lat="43.44703" lon="-0.31771">
        <ele>216.177</ele>
        <time>2011-05-29T07:24:56Z</time>
      </trkpt>
      <trkpt lat="43.44711" lon="-0.3176">
        <ele>217.709</ele>
        <time>2011-05-29T07:25:01Z</time>
      </trkpt>
      <trkpt lat="43.44719" lon="-0.3175">
        <ele>219.462</ele>
        <time>2011-05-29T07:25:07Z</time>
      </trkpt>
      <trkpt lat="43.44727" lon="-0.31742">
        <ele>220.82</ele>
        <time>2011-05-29T07:25:13Z</time>
      </trkpt>
      <trkpt lat="43.44734" lon="-0.31735">
        <ele>222.069</ele>
        <time>2011-05-29T07:25:19Z</time>
      </trkpt>
      <trkpt lat="43.44737" lon="-0.31733">
        <ele>222.51</ele>
        <time>2011-05-29T07:25:21Z</time>
      </trkpt>
      <trkpt lat="43.44746" lon="-0.3173">
        <ele>224.076</ele>
        <time>2011-05-29T07:25:27Z</time>
      </trkpt>
      <trkpt lat="43.44755" lon="-0.31733">
        <ele>225.144</ele>
        <time>2011-05-29T07:25:32Z</time>
      </trkpt>
      <trkpt lat="43.44756" lon="-0.31734">
        <ele>225.342</ele>
        <time>2011-05-29T07:25:33Z</time>
      </trkpt>
      <trkpt lat="43.4477" lon="-0.31739">
        <ele>226.722</ele>
        <time>2011-05-29T07:25:41Z</time>
      </trkpt>
      <trkpt lat="43.4478" lon="-0.31746">
        <ele>227.813</ele>
        <time>2011-05-29T07:25:48Z</time>
      </trkpt>
      <trkpt lat="43.44792" lon="-0.31749">
        <ele>229.451</ele>
        <time>2011-05-29T07:25:55Z</time>
      </trkpt>
      <trkpt lat="43.44799" lon="-0.31749">
        <ele>230.262</ele>
        <time>2011-05-29T07:25:58Z</time>
      </trkpt>
      <trkpt lat="43.44808" lon="-0.31759">
        <ele>230.615</ele>
        <time>2011-05-29T07:26:02Z</time>
      </trkpt>
      <trkpt lat="43.44823" lon="-0.31798">
        <ele>229.353</ele>
        <time>2011-05-29T07:26:07Z</time>
      </trkpt>
      <trkpt lat="43.44839" lon="-0.31842">
        <ele>225.529</ele>
        <time>2011-05-29T07:26:11Z</time>
      </trkpt>
      <trkpt lat="43.44859" lon="-0.31879">
        <ele>219.979</ele>
        <time>2011-05-29T07:26:16Z</time>
      </trkpt>
      <trkpt lat="43.44854" lon="-0.31886">
        <ele>218.117</ele>
        <time>2011-05-29T07:26:18Z</time>
      </trkpt>
      <trkpt lat="43.44847" lon="-0.31887">
        <ele>216.413</ele>
        <time>2011-05-29T07:26:20Z</time>
      </trkpt>
      <trkpt lat="43.44824" lon="-0.31884">
        <ele>213.644</ele>
        <time>2011-05-29T07:26:24Z</time>
      </trkpt>
      <trkpt lat="43.448" lon="-0.31875">
        <ele>211.268</ele>
        <time>2011-05-29T07:26:28Z</time>
      </trkpt>
      <trkpt lat="43.44782" lon="-0.31882">
        <ele>208.769</ele>
        <time>2011-05-29T07:26:33Z</time>
      </trkpt>
      <trkpt lat="43.44783" lon="-0.31889">
        <ele>207.391</ele>
        <time>2011-05-29T07:26:35Z</time>
      </trkpt>
      <trkpt lat="43.44788" lon="-0.319">
        <ele>205.704</ele>
        <time>2011-05-29T07:26:38Z</time>
      </trkpt>
      <trkpt lat="43.44793" lon="-0.31911">
        <ele>204.806</ele>
        <time>2011-05-29T07:26:40Z</time>
      </trkpt>
      <trkpt lat="43.44811" lon="-0.31924">
        <ele>203.533</ele>
        <time>2011-05-29T07:26:44Z</time>
      </trkpt>
      <trkpt lat="43.44832" lon="-0.31939">
        <ele>202.795</ele>
        <time>2011-05-29T07:26:48Z</time>
      </trkpt>
      <trkpt lat="43.44849" lon="-0.31962">
        <ele>201.947</ele>
        <time>2011-05-29T07:26:52Z</time>
      </trkpt>
      <trkpt lat="43.44853" lon="-0.31981">
        <ele>200.015</ele>
        <time>2011-05-29T07:26:55Z</time>
      </trkpt>
      <trkpt lat="43.44864" lon="-0.31988">
        <ele>197.255</ele>
        <time>2011-05-29T07:26:58Z</time>
      </trkpt>
      <trkpt lat="43.44871" lon="-0.31998">
        <ele>194.86</ele>
        <time>2011-05-29T07:27:01Z</time>
      </trkpt>
      <trkpt lat="43.44872" lon="-0.32006">
        <ele>194.186</ele>
        <time>2011-05-29T07:27:03Z</time>
      </trkpt>
      <trkpt lat="43.44879" lon="-0.32007">
        <ele>194.559</ele>
        <time>2011-05-29T07:27:07Z</time>
      </trkpt>
      <trkpt lat="43.44891" lon="-0.31996">
        <ele>196.552</ele>
        <time>2011-05-29T07:27:14Z</time>
      </trkpt>
      <trkpt lat="43.44895" lon="-0.31992">
        <ele>197.563</ele>
        <time>2011-05-29T07:27:17Z</time>
      </trkpt>
      <trkpt lat="43.44908" lon="-0.31983">
        <ele>199.878</ele>
        <time>2011-05-29T07:27:25Z</time>
      </trkpt>
      <trkpt lat="43.44919" lon="-0.31973">
        <ele>202.329</ele>
        <time>2011-05-29T07:27:32Z</time>
      </trkpt>
      <trkpt lat="43.44932" lon="-0.31966">
        <ele>204.549</ele>
        <time>2011-05-29T07:27:40Z</time>
      </trkpt>
      <trkpt lat="43.44942" lon="-0.31966">
        <ele>206.032</ele>
        <time>2011-05-29T07:27:47Z</time>
      </trkpt>
      <trkpt lat="43.44948" lon="-0.3197">
        <ele>207.021</ele>
        <time>2011-05-29T07:27:51Z</time>
      </trkpt>
      <trkpt lat="43.44958" lon="-0.31979">
        <ele>209.179</ele>
        <time>2011-05-29T07:27:59Z</time>
      </trkpt>
      <trkpt lat="43.44964" lon="-0.3199">
        <ele>211.016</ele>
        <time>2011-05-29T07:28:06Z</time>
      </trkpt>
      <trkpt lat="43.4497" lon="-0.32">
        <ele>212.406</ele>
        <time>2011-05-29T07:28:14Z</time>
      </trkpt>
      <trkpt lat="43.44976" lon="-0.32011">
        <ele>213.786</ele>
        <time>2011-05-29T07:28:20Z</time>
      </trkpt>
      <trkpt lat="43.44976" lon="-0.32019">
        <ele>214.945</ele>
        <time>2011-05-29T07:28:24Z</time>
      </trkpt>
      <trkpt lat="43.44979" lon="-0.32034">
        <ele>216.897</ele>
        <time>2011-05-29T07:28:31Z</time>
      </trkpt>
      <trkpt lat="43.44982" lon="-0.32048">
        <ele>218.154</ele>
        <time>2011-05-29T07:28:37Z</time>
      </trkpt>
      <trkpt lat="43.44985" lon="-0.32058">
        <ele>219.189</ele>
        <time>2011-05-29T07:28:42Z</time>
      </trkpt>
      <trkpt lat="43.44993" lon="-0.32075">
        <ele>220.164</ele>
        <time>2011-05-29T07:28:48Z</time>
      </trkpt>
      <trkpt lat="43.45003" lon="-0.32091">
        <ele>221.79</ele>
        <time>2011-05-29T07:28:55Z</time>
      </trkpt>
      <trkpt lat="43.45012" lon="-0.32103">
        <ele>223.436</ele>
        <time>2011-05-29T07:29:02Z</time>
      </trkpt>
      <trkpt lat="43.4502" lon="-0.32113">
        <ele>224.711</ele>
        <time>2011-05-29T07:29:09Z</time>
      </trkpt>
      <trkpt lat="43.45029" lon="-0.32119">
        <ele>225.739</ele>
        <time>2011-05-29T07:29:15Z</time>
      </trkpt>
      <trkpt lat="43.45041" lon="-0.32125">
        <ele>227.332</ele>
        <time>2011-05-29T07:29:22Z</time>
      </trkpt>
      <trkpt lat="43.45055" lon="-0.32131">
        <ele>229.061</ele>
        <time>2011-05-29T07:29:29Z</time>
      </trkpt>
      <trkpt lat="43.45069" lon="-0.32134">
        <ele>230.685</ele>
        <time>2011-05-29T07:29:36Z</time>
      </trkpt>
      <trkpt lat="43.45082" lon="-0.32134">
        <ele>231.938</ele>
        <time>2011-05-29T07:29:42Z</time>
      </trkpt>
      <trkpt lat="43.45087" lon="-0.32134">
        <ele>232.351</ele>
        <time>2011-05-29T07:29:44Z</time>
      </trkpt>
      <trkpt lat="43.45097" lon="-0.32123">
        <ele>233.296</ele>
        <time>2011-05-29T07:29:50Z</time>
      </trkpt>
      <trkpt lat="43.45097" lon="-0.3211">
        <ele>234.313</ele>
        <time>2011-05-29T07:29:55Z</time>
      </trkpt>
      <trkpt lat="43.45096" lon="-0.32108">
        <ele>234.513</ele>
        <time>2011-05-29T07:29:56Z</time>
      </trkpt>
      <trkpt lat="43.45088" lon="-0.32089">
        <ele>235.992</ele>
        <time>2011-05-29T07:30:03Z</time>
      </trkpt>
      <trkpt lat="43.45084" lon="-0.3207">
        <ele>236.862</ele>
        <time>2011-05-29T07:30:09Z</time>
      </trkpt>
      <trkpt lat="43.45088" lon="-0.32051">
        <ele>237.916</ele>
        <time>2011-05-29T07:30:16Z</time>
      </trkpt>
      <trkpt lat="43.451" lon="-0.32032">
        <ele>240</ele>
        <time>2011-05-29T07:30:25Z</time>
      </trkpt>
      <trkpt lat="43.45109" lon="-0.32018">
        <ele>241.991</ele>
        <time>2011-05-29T07:30:32Z</time>
      </trkpt>
      <trkpt lat="43.45121" lon="-0.31996">
        <ele>244.865</ele>
        <time>2011-05-29T07:30:42Z</time>
      </trkpt>
      <trkpt lat="43.45133" lon="-0.31977">
        <ele>247.444</ele>
        <time>2011-05-29T07:30:51Z</time>
      </trkpt>
      <trkpt lat="43.45144" lon="-0.31962">
        <ele>248.891</ele>
        <time>2011-05-29T07:30:59Z</time>
      </trkpt>
      <trkpt lat="43.45156" lon="-0.31943">
        <ele>249.447</ele>
        <time>2011-05-29T07:31:06Z</time>
      </trkpt>
      <trkpt lat="43.45161" lon="-0.3194">
        <ele>249.478</ele>
        <time>2011-05-29T07:31:08Z</time>
      </trkpt>
      <trkpt lat="43.45176" lon="-0.3195">
        <ele>249.883</ele>
        <time>2011-05-29T07:31:14Z</time>
      </trkpt>
      <trkpt lat="43.45196" lon="-0.31966">
        <ele>249.983</ele>
        <time>2011-05-29T07:31:20Z</time>
      </trkpt>
      <trkpt lat="43.45206" lon="-0.31975">
        <ele>249.798</ele>
        <time>2011-05-29T07:31:23Z</time>
      </trkpt>
      <trkpt lat="43.45223" lon="-0.31976">
        <ele>249.719</ele>
        <time>2011-05-29T07:31:27Z</time>
      </trkpt>
      <trkpt lat="43.45227" lon="-0.31972">
        <ele>249.74</ele>
        <time>2011-05-29T07:31:28Z</time>
      </trkpt>
      <trkpt lat="43.45238" lon="-0.31951">
        <ele>249.754</ele>
        <time>2011-05-29T07:31:32Z</time>
      </trkpt>
      <trkpt lat="43.4525" lon="-0.31934">
        <ele>249.881</ele>
        <time>2011-05-29T07:31:36Z</time>
      </trkpt>
      <trkpt lat="43.45261" lon="-0.31924">
        <ele>249.936</ele>
        <time>2011-05-29T07:31:39Z</time>
      </trkpt>
      <trkpt lat="43.45276" lon="-0.31921">
        <ele>250.144</ele>
        <time>2011-05-29T07:31:43Z</time>
      </trkpt>
      <trkpt lat="43.45283" lon="-0.31928">
        <ele>250.179</ele>
        <time>2011-05-29T07:31:45Z</time>
      </trkpt>
      <trkpt lat="43.45321" lon="-0.31984">
        <ele>249.64</ele>
        <time>2011-05-29T07:31:55Z</time>
      </trkpt>
      <trkpt lat="43.45349" lon="-0.32026">
        <ele>249.616</ele>
        <time>2011-05-29T07:32:02Z</time>
      </trkpt>
      <trkpt lat="43.45353" lon="-0.32032">
        <ele>249.65</ele>
        <time>2011-05-29T07:32:03Z</time>
      </trkpt>
      <trkpt lat="43.45356" lon="-0.32062">
        <ele>249.458</ele>
        <time>2011-05-29T07:32:07Z</time>
      </trkpt>
      <trkpt lat="43.4535" lon="-0.32076">
        <ele>249.41</ele>
        <time>2011-05-29T07:32:09Z</time>
      </trkpt>
      <trkpt lat="43.45336" lon="-0.32101">
        <ele>249.66</ele>
        <time>2011-05-29T07:32:13Z</time>
      </trkpt>
      <trkpt lat="43.45329" lon="-0.32131">
        <ele>249.895</ele>
        <time>2011-05-29T07:32:17Z</time>
      </trkpt>
      <trkpt lat="43.45334" lon="-0.32146">
        <ele>249.838</ele>
        <time>2011-05-29T07:32:19Z</time>
      </trkpt>
      <trkpt lat="43.4534" lon="-0.3216">
        <ele>249.962</ele>
        <time>2011-05-29T07:32:21Z</time>
      </trkpt>
      <trkpt lat="43.45338" lon="-0.32189">
        <ele>249.685</ele>
        <time>2011-05-29T07:32:25Z</time>
      </trkpt>
      <trkpt lat="43.45331" lon="-0.32236">
        <ele>248.887</ele>
        <time>2011-05-29T07:32:31Z</time>
      </trkpt>
      <trkpt lat="43.45334" lon="-0.32252">
        <ele>248.603</ele>
        <time>2011-05-29T07:32:33Z</time>
      </trkpt>
      <trkpt lat="43.45337" lon="-0.32269">
        <ele>248.209</ele>
        <time>2011-05-29T07:32:35Z</time>
      </trkpt>
      <trkpt lat="43.45344" lon="-0.32328">
        <ele>247.164</ele>
        <time>2011-05-29T07:32:42Z</time>
      </trkpt>
      <trkpt lat="43.45346" lon="-0.32344">
        <ele>246.663</ele>
        <time>2011-05-29T07:32:44Z</time>
      </trkpt>
      <trkpt lat="43.45358" lon="-0.32371">
        <ele>245.823</ele>
        <time>2011-05-29T07:32:48Z</time>
      </trkpt>
      <trkpt lat="43.45388" lon="-0.3242">
        <ele>243.863</ele>
        <time>2011-05-29T07:32:55Z</time>
      </trkpt>
      <trkpt lat="43.45407" lon="-0.3245">
        <ele>241.792</ele>
        <time>2011-05-29T07:32:59Z</time>
      </trkpt>
      <trkpt lat="43.45416" lon="-0.32462">
        <ele>239.716</ele>
        <time>2011-05-29T07:33:02Z</time>
      </trkpt>
      <trkpt lat="43.45433" lon="-0.32469">
        <ele>237.192</ele>
        <time>2011-05-29T07:33:06Z</time>
      </trkpt>
      <trkpt lat="43.45441" lon="-0.32479">
        <ele>235.932</ele>
        <time>2011-05-29T07:33:09Z</time>
      </trkpt>
      <trkpt lat="43.45444" lon="-0.32483">
        <ele>234.632</ele>
        <time>2011-05-29T07:33:11Z</time>
      </trkpt>
      <trkpt lat="43.45452" lon="-0.32499">
        <ele>231.772</ele>
        <time>2011-05-29T07:33:15Z</time>
      </trkpt>
      <trkpt lat="43.45462" lon="-0.32519">
        <ele>228.614</ele>
        <time>2011-05-29T07:33:18Z</time>
      </trkpt>
      <trkpt lat="43.45481" lon="-0.32555">
        <ele>219.483</ele>
        <time>2011-05-29T07:33:24Z</time>
      </trkpt>
      <trkpt lat="43.45495" lon="-0.3257">
        <ele>213.783</ele>
        <time>2011-05-29T07:33:28Z</time>
      </trkpt>
      <trkpt lat="43.45505" lon="-0.32582">
        <ele>210.229</ele>
        <time>2011-05-29T07:33:31Z</time>
      </trkpt>
      <trkpt lat="43.45501" lon="-0.32597">
        <ele>208.399</ele>
        <time>2011-05-29T07:33:34Z</time>
      </trkpt>
      <trkpt lat="43.45493" lon="-0.32611">
        <ele>207.03</ele>
        <time>2011-05-29T07:33:36Z</time>
      </trkpt>
      <trkpt lat="43.4547" lon="-0.32638">
        <ele>205.037</ele>
        <time>2011-05-29T07:33:40Z</time>
      </trkpt>
      <trkpt lat="43.45462" lon="-0.32643">
        <ele>204.465</ele>
        <time>2011-05-29T07:33:41Z</time>
      </trkpt>
      <trkpt lat="43.45411" lon="-0.32679">
        <ele>199.564</ele>
        <time>2011-05-29T07:33:47Z</time>
      </trkpt>
      <trkpt lat="43.45374" lon="-0.32684">
        <ele>195.82</ele>
        <time>2011-05-29T07:33:51Z</time>
      </trkpt>
      <trkpt lat="43.45348" lon="-0.32676">
        <ele>192.105</ele>
        <time>2011-05-29T07:33:55Z</time>
      </trkpt>
      <trkpt lat="43.45329" lon="-0.32676">
        <ele>188.402</ele>
        <time>2011-05-29T07:34:00Z</time>
      </trkpt>
      <trkpt lat="43.45327" lon="-0.32675">
        <ele>186.493</ele>
        <time>2011-05-29T07:34:03Z</time>
      </trkpt>
      <trkpt lat="43.4532" lon="-0.32676">
        <ele>185.345</ele>
        <time>2011-05-29T07:34:10Z</time>
      </trkpt>
      <trkpt lat="43.45316" lon="-0.32677">
        <ele>185.291</ele>
        <time>2011-05-29T07:34:11Z</time>
      </trkpt>
      <trkpt lat="43.45291" lon="-0.32674">
        <ele>184.658</ele>
        <time>2011-05-29T07:34:16Z</time>
      </trkpt>
      <trkpt lat="43.45257" lon="-0.32662">
        <ele>183.181</ele>
        <time>2011-05-29T07:34:21Z</time>
      </trkpt>
      <trkpt lat="43.45208" lon="-0.32645">
        <ele>180.973</ele>
        <time>2011-05-29T07:34:27Z</time>
      </trkpt>
      <trkpt lat="43.45135" lon="-0.32624">
        <ele>177.508</ele>
        <time>2011-05-29T07:34:35Z</time>
      </trkpt>
      <trkpt lat="43.45074" lon="-0.32609">
        <ele>175.658</ele>
        <time>2011-05-29T07:34:42Z</time>
      </trkpt>
      <trkpt lat="43.44994" lon="-0.32589">
        <ele>175.111</ele>
        <time>2011-05-29T07:34:52Z</time>
      </trkpt>
      <trkpt lat="43.44955" lon="-0.3258">
        <ele>174.873</ele>
        <time>2011-05-29T07:34:57Z</time>
      </trkpt>
      <trkpt lat="43.44882" lon="-0.32562">
        <ele>174.149</ele>
        <time>2011-05-29T07:35:07Z</time>
      </trkpt>
      <trkpt lat="43.44859" lon="-0.32556">
        <ele>174.249</ele>
        <time>2011-05-29T07:35:11Z</time>
      </trkpt>
      <trkpt lat="43.44841" lon="-0.3256">
        <ele>173.901</ele>
        <time>2011-05-29T07:35:15Z</time>
      </trkpt>
      <trkpt lat="43.44837" lon="-0.32579">
        <ele>173.783</ele>
        <time>2011-05-29T07:35:18Z</time>
      </trkpt>
      <trkpt lat="43.44838" lon="-0.32592">
        <ele>173.601</ele>
        <time>2011-05-29T07:35:20Z</time>
      </trkpt>
      <trkpt lat="43.44841" lon="-0.32604">
        <ele>173.585</ele>
        <time>2011-05-29T07:35:22Z</time>
      </trkpt>
      <trkpt lat="43.44862" lon="-0.32634">
        <ele>173.377</ele>
        <time>2011-05-29T07:35:28Z</time>
      </trkpt>
      <trkpt lat="43.44898" lon="-0.32681">
        <ele>172.889</ele>
        <time>2011-05-29T07:35:36Z</time>
      </trkpt>
      <trkpt lat="43.44922" lon="-0.32713">
        <ele>172.706</ele>
        <time>2011-05-29T07:35:41Z</time>
      </trkpt>
      <trkpt lat="43.44952" lon="-0.32751">
        <ele>172.464</ele>
        <time>2011-05-29T07:35:47Z</time>
      </trkpt>
      <trkpt lat="43.44965" lon="-0.3277">
        <ele>172.263</ele>
        <time>2011-05-29T07:35:50Z</time>
      </trkpt>
      <trkpt lat="43.44979" lon="-0.32775">
        <ele>171.993</ele>
        <time>2011-05-29T07:35:53Z</time>
      </trkpt>
      <trkpt lat="43.44983" lon="-0.32773">
        <ele>171.93</ele>
        <time>2011-05-29T07:35:54Z</time>
      </trkpt>
      <trkpt lat="43.45003" lon="-0.32772">
        <ele>171.543</ele>
        <time>2011-05-29T07:35:59Z</time>
      </trkpt>
      <trkpt lat="43.45005" lon="-0.32778">
        <ele>171.445</ele>
        <time>2011-05-29T07:36:00Z</time>
      </trkpt>
      <trkpt lat="43.45015" lon="-0.32804">
        <ele>171.362</ele>
        <time>2011-05-29T07:36:04Z</time>
      </trkpt>
      <trkpt lat="43.45035" lon="-0.32823">
        <ele>171.437</ele>
        <time>2011-05-29T07:36:09Z</time>
      </trkpt>
      <trkpt lat="43.45039" lon="-0.32826">
        <ele>171.395</ele>
        <time>2011-05-29T07:36:10Z</time>
      </trkpt>
      <trkpt lat="43.45048" lon="-0.32847">
        <ele>171.12</ele>
        <time>2011-05-29T07:36:14Z</time>
      </trkpt>
      <trkpt lat="43.45053" lon="-0.32895">
        <ele>171.019</ele>
        <time>2011-05-29T07:36:20Z</time>
      </trkpt>
      <trkpt lat="43.4506" lon="-0.32952">
        <ele>170.746</ele>
        <time>2011-05-29T07:36:27Z</time>
      </trkpt>
      <trkpt lat="43.45059" lon="-0.33005">
        <ele>170.62</ele>
        <time>2011-05-29T07:36:34Z</time>
      </trkpt>
      <trkpt lat="43.45059" lon="-0.33042">
        <ele>170.486</ele>
        <time>2011-05-29T07:36:39Z</time>
      </trkpt>
      <trkpt lat="43.45072" lon="-0.33083">
        <ele>170.586</ele>
        <time>2011-05-29T07:36:45Z</time>
      </trkpt>
      <trkpt lat="43.4509" lon="-0.33101">
        <ele>170.559</ele>
        <time>2011-05-29T07:36:49Z</time>
      </trkpt>
      <trkpt lat="43.45096" lon="-0.33104">
        <ele>170.575</ele>
        <time>2011-05-29T07:36:50Z</time>
      </trkpt>
      <trkpt lat="43.45139" lon="-0.33125">
        <ele>170.035</ele>
        <time>2011-05-29T07:36:57Z</time>
      </trkpt>
      <trkpt lat="43.45145" lon="-0.3313">
        <ele>169.877</ele>
        <time>2011-05-29T07:36:58Z</time>
      </trkpt>
      <trkpt lat="43.45181" lon="-0.33169">
        <ele>169.431</ele>
        <time>2011-05-29T07:37:05Z</time>
      </trkpt>
      <trkpt lat="43.45214" lon="-0.33197">
        <ele>169.045</ele>
        <time>2011-05-29T07:37:11Z</time>
      </trkpt>
      <trkpt lat="43.45244" lon="-0.33237">
        <ele>168.239</ele>
        <time>2011-05-29T07:37:17Z</time>
      </trkpt>
      <trkpt lat="43.45276" lon="-0.33292">
        <ele>167.773</ele>
        <time>2011-05-29T07:37:25Z</time>
      </trkpt>
      <trkpt lat="43.45296" lon="-0.33322">
        <ele>168.079</ele>
        <time>2011-05-29T07:37:30Z</time>
      </trkpt>
      <trkpt lat="43.45334" lon="-0.33351">
        <ele>167.873</ele>
        <time>2011-05-29T07:37:37Z</time>
      </trkpt>
      <trkpt lat="43.45339" lon="-0.33355">
        <ele>167.773</ele>
        <time>2011-05-29T07:37:38Z</time>
      </trkpt>
      <trkpt lat="43.45352" lon="-0.33379">
        <ele>167.628</ele>
        <time>2011-05-29T07:37:42Z</time>
      </trkpt>
      <trkpt lat="43.45364" lon="-0.3343">
        <ele>167.691</ele>
        <time>2011-05-29T07:37:49Z</time>
      </trkpt>
      <trkpt lat="43.45366" lon="-0.33454">
        <ele>167.428</ele>
        <time>2011-05-29T07:37:52Z</time>
      </trkpt>
      <trkpt lat="43.45379" lon="-0.33505">
        <ele>167.108</ele>
        <time>2011-05-29T07:37:59Z</time>
      </trkpt>
      <trkpt lat="43.45386" lon="-0.33526">
        <ele>166.934</ele>
        <time>2011-05-29T07:38:02Z</time>
      </trkpt>
      <trkpt lat="43.45387" lon="-0.33564">
        <ele>166.834</ele>
        <time>2011-05-29T07:38:07Z</time>
      </trkpt>
      <trkpt lat="43.45375" lon="-0.33622">
        <ele>166.808</ele>
        <time>2011-05-29T07:38:15Z</time>
      </trkpt>
      <trkpt lat="43.45368" lon="-0.33687">
        <ele>166.79</ele>
        <time>2011-05-29T07:38:24Z</time>
      </trkpt>
      <trkpt lat="43.45359" lon="-0.3375">
        <ele>166.86</ele>
        <time>2011-05-29T07:38:33Z</time>
      </trkpt>
      <trkpt lat="43.45356" lon="-0.33776">
        <ele>167.316</ele>
        <time>2011-05-29T07:38:37Z</time>
      </trkpt>
      <trkpt lat="43.45341" lon="-0.33799">
        <ele>167.752</ele>
        <time>2011-05-29T07:38:42Z</time>
      </trkpt>
      <trkpt lat="43.45333" lon="-0.33805">
        <ele>167.835</ele>
        <time>2011-05-29T07:38:44Z</time>
      </trkpt>
      <trkpt lat="43.45318" lon="-0.33826">
        <ele>168.557</ele>
        <time>2011-05-29T07:38:49Z</time>
      </trkpt>
      <trkpt lat="43.45303" lon="-0.3387">
        <ele>169.742</ele>
        <time>2011-05-29T07:38:58Z</time>
      </trkpt>
      <trkpt lat="43.45293" lon="-0.33901">
        <ele>171.639</ele>
        <time>2011-05-29T07:39:06Z</time>
      </trkpt>
      <trkpt lat="43.45281" lon="-0.33915">
        <ele>174.099</ele>
        <time>2011-05-29T07:39:13Z</time>
      </trkpt>
      <trkpt lat="43.45274" lon="-0.33908">
        <ele>175.914</ele>
        <time>2011-05-29T07:39:18Z</time>
      </trkpt>
      <trkpt lat="43.45263" lon="-0.33895">
        <ele>178.506</ele>
        <time>2011-05-29T07:39:26Z</time>
      </trkpt>
      <trkpt lat="43.45252" lon="-0.3389">
        <ele>180.642</ele>
        <time>2011-05-29T07:39:33Z</time>
      </trkpt>
      <trkpt lat="43.4524" lon="-0.33886">
        <ele>183.659</ele>
        <time>2011-05-29T07:39:41Z</time>
      </trkpt>
      <trkpt lat="43.45229" lon="-0.33879">
        <ele>186.015</ele>
        <time>2011-05-29T07:39:48Z</time>
      </trkpt>
      <trkpt lat="43.4522" lon="-0.33872">
        <ele>187.123</ele>
        <time>2011-05-29T07:39:55Z</time>
      </trkpt>
      <trkpt lat="43.45209" lon="-0.33865">
        <ele>188.885</ele>
        <time>2011-05-29T07:40:02Z</time>
      </trkpt>
      <trkpt lat="43.45198" lon="-0.33858">
        <ele>190.97</ele>
        <time>2011-05-29T07:40:09Z</time>
      </trkpt>
      <trkpt lat="43.45184" lon="-0.33851">
        <ele>192.944</ele>
        <time>2011-05-29T07:40:17Z</time>
      </trkpt>
      <trkpt lat="43.4517" lon="-0.33846">
        <ele>194.257</ele>
        <time>2011-05-29T07:40:24Z</time>
      </trkpt>
      <trkpt lat="43.45152" lon="-0.33836">
        <ele>196.579</ele>
        <time>2011-05-29T07:40:32Z</time>
      </trkpt>
      <trkpt lat="43.45139" lon="-0.33818">
        <ele>198.271</ele>
        <time>2011-05-29T07:40:40Z</time>
      </trkpt>
      <trkpt lat="43.45127" lon="-0.33796">
        <ele>199.714</ele>
        <time>2011-05-29T07:40:49Z</time>
      </trkpt>
      <trkpt lat="43.45111" lon="-0.33777">
        <ele>202.053</ele>
        <time>2011-05-29T07:40:59Z</time>
      </trkpt>
      <trkpt lat="43.45098" lon="-0.33763">
        <ele>204.122</ele>
        <time>2011-05-29T07:41:07Z</time>
      </trkpt>
      <trkpt lat="43.45081" lon="-0.33745">
        <ele>206.585</ele>
        <time>2011-05-29T07:41:17Z</time>
      </trkpt>
      <trkpt lat="43.45072" lon="-0.33733">
        <ele>208.117</ele>
        <time>2011-05-29T07:41:22Z</time>
      </trkpt>
      <trkpt lat="43.45067" lon="-0.33713">
        <ele>209.608</ele>
        <time>2011-05-29T07:41:27Z</time>
      </trkpt>
      <trkpt lat="43.45061" lon="-0.33704">
        <ele>210.505</ele>
        <time>2011-05-29T07:41:31Z</time>
      </trkpt>
      <trkpt lat="43.45049" lon="-0.33686">
        <ele>211.179</ele>
        <time>2011-05-29T07:41:38Z</time>
      </trkpt>
      <trkpt lat="43.45035" lon="-0.33675">
        <ele>212.272</ele>
        <time>2011-05-29T07:41:44Z</time>
      </trkpt>
      <trkpt lat="43.45026" lon="-0.33667">
        <ele>213.232</ele>
        <time>2011-05-29T07:41:49Z</time>
      </trkpt>
      <trkpt lat="43.45013" lon="-0.33659">
        <ele>214.563</ele>
        <time>2011-05-29T07:41:55Z</time>
      </trkpt>
      <trkpt lat="43.45008" lon="-0.33657">
        <ele>215.428</ele>
        <time>2011-05-29T07:41:58Z</time>
      </trkpt>
      <trkpt lat="43.44992" lon="-0.33648">
        <ele>216.796</ele>
        <time>2011-05-29T07:42:06Z</time>
      </trkpt>
      <trkpt lat="43.44977" lon="-0.33643">
        <ele>218.708</ele>
        <time>2011-05-29T07:42:14Z</time>
      </trkpt>
      <trkpt lat="43.44974" lon="-0.33641">
        <ele>219.209</ele>
        <time>2011-05-29T07:42:16Z</time>
      </trkpt>
      <trkpt lat="43.44956" lon="-0.33636">
        <ele>221.487</ele>
        <time>2011-05-29T07:42:24Z</time>
      </trkpt>
      <trkpt lat="43.44939" lon="-0.33634">
        <ele>223.222</ele>
        <time>2011-05-29T07:42:32Z</time>
      </trkpt>
      <trkpt lat="43.44929" lon="-0.33632">
        <ele>224.379</ele>
        <time>2011-05-29T07:42:37Z</time>
      </trkpt>
      <trkpt lat="43.4491" lon="-0.33628">
        <ele>225.659</ele>
        <time>2011-05-29T07:42:45Z</time>
      </trkpt>
      <trkpt lat="43.44894" lon="-0.33626">
        <ele>226.58</ele>
        <time>2011-05-29T07:42:51Z</time>
      </trkpt>
      <trkpt lat="43.4489" lon="-0.33638">
        <ele>227.58</ele>
        <time>2011-05-29T07:42:55Z</time>
      </trkpt>
      <trkpt lat="43.44891" lon="-0.3367">
        <ele>229.008</ele>
        <time>2011-05-29T07:43:03Z</time>
      </trkpt>
      <trkpt lat="43.44892" lon="-0.33707">
        <ele>229.988</ele>
        <time>2011-05-29T07:43:11Z</time>
      </trkpt>
      <trkpt lat="43.44893" lon="-0.33753">
        <ele>230.271</ele>
        <time>2011-05-29T07:43:19Z</time>
      </trkpt>
      <trkpt lat="43.44895" lon="-0.33785">
        <ele>230.461</ele>
        <time>2011-05-29T07:43:24Z</time>
      </trkpt>
      <trkpt lat="43.44906" lon="-0.33839">
        <ele>229.973</ele>
        <time>2011-05-29T07:43:33Z</time>
      </trkpt>
      <trkpt lat="43.44912" lon="-0.3387">
        <ele>229.654</ele>
        <time>2011-05-29T07:43:38Z</time>
      </trkpt>
      <trkpt lat="43.44916" lon="-0.33893">
        <ele>229.434</ele>
        <time>2011-05-29T07:43:41Z</time>
      </trkpt>
      <trkpt lat="43.44919" lon="-0.33909">
        <ele>228.883</ele>
        <time>2011-05-29T07:43:43Z</time>
      </trkpt>
      <trkpt lat="43.44925" lon="-0.33934">
        <ele>226.755</ele>
        <time>2011-05-29T07:43:47Z</time>
      </trkpt>
      <trkpt lat="43.4493" lon="-0.3396">
        <ele>221.95</ele>
        <time>2011-05-29T07:43:52Z</time>
      </trkpt>
      <trkpt lat="43.44926" lon="-0.33962">
        <ele>217.924</ele>
        <time>2011-05-29T07:43:56Z</time>
      </trkpt>
      <trkpt lat="43.44924" lon="-0.33962">
        <ele>217.056</ele>
        <time>2011-05-29T07:43:58Z</time>
      </trkpt>
      <trkpt lat="43.44917" lon="-0.33968">
        <ele>217.875</ele>
        <time>2011-05-29T07:44:04Z</time>
      </trkpt>
      <trkpt lat="43.44907" lon="-0.33982">
        <ele>217.216</ele>
        <time>2011-05-29T07:44:08Z</time>
      </trkpt>
      <trkpt lat="43.4489" lon="-0.33996">
        <ele>213.983</ele>
        <time>2011-05-29T07:44:13Z</time>
      </trkpt>
      <trkpt lat="43.44884" lon="-0.34">
        <ele>212.728</ele>
        <time>2011-05-29T07:44:16Z</time>
      </trkpt>
      <trkpt lat="43.44883" lon="-0.34011">
        <ele>211.768</ele>
        <time>2011-05-29T07:44:19Z</time>
      </trkpt>
      <trkpt lat="43.44883" lon="-0.34026">
        <ele>209.547</ele>
        <time>2011-05-29T07:44:23Z</time>
      </trkpt>
      <trkpt lat="43.44888" lon="-0.34042">
        <ele>205.779</ele>
        <time>2011-05-29T07:44:27Z</time>
      </trkpt>
      <trkpt lat="43.449" lon="-0.34052">
        <ele>203.037</ele>
        <time>2011-05-29T07:44:31Z</time>
      </trkpt>
      <trkpt lat="43.44903" lon="-0.34054">
        <ele>202.399</ele>
        <time>2011-05-29T07:44:32Z</time>
      </trkpt>
      <trkpt lat="43.44918" lon="-0.34068">
        <ele>199.869</ele>
        <time>2011-05-29T07:44:37Z</time>
      </trkpt>
      <trkpt lat="43.4492" lon="-0.34072">
        <ele>199.332</ele>
        <time>2011-05-29T07:44:38Z</time>
      </trkpt>
      <trkpt lat="43.44914" lon="-0.34093">
        <ele>196.328</ele>
        <time>2011-05-29T07:44:42Z</time>
      </trkpt>
      <trkpt lat="43.44906" lon="-0.34107">
        <ele>192.054</ele>
        <time>2011-05-29T07:44:46Z</time>
      </trkpt>
      <trkpt lat="43.44889" lon="-0.34117">
        <ele>188.308</ele>
        <time>2011-05-29T07:44:50Z</time>
      </trkpt>
      <trkpt lat="43.44886" lon="-0.34131">
        <ele>186.972</ele>
        <time>2011-05-29T07:44:53Z</time>
      </trkpt>
      <trkpt lat="43.44889" lon="-0.34138">
        <ele>186.718</ele>
        <time>2011-05-29T07:44:55Z</time>
      </trkpt>
      <trkpt lat="43.44892" lon="-0.34167">
        <ele>186.528</ele>
        <time>2011-05-29T07:45:02Z</time>
      </trkpt>
      <trkpt lat="43.44904" lon="-0.34187">
        <ele>187.255</ele>
        <time>2011-05-29T07:45:06Z</time>
      </trkpt>
      <trkpt lat="43.44915" lon="-0.34196">
        <ele>187.514</ele>
        <time>2011-05-29T07:45:08Z</time>
      </trkpt>
      <trkpt lat="43.44936" lon="-0.34229">
        <ele>187.699</ele>
        <time>2011-05-29T07:45:13Z</time>
      </trkpt>
      <trkpt lat="43.44942" lon="-0.34234">
        <ele>187.753</ele>
        <time>2011-05-29T07:45:14Z</time>
      </trkpt>
      <trkpt lat="43.44966" lon="-0.34252">
        <ele>188.72</ele>
        <time>2011-05-29T07:45:20Z</time>
      </trkpt>
      <trkpt lat="43.44984" lon="-0.34263">
        <ele>189.466</ele>
        <time>2011-05-29T07:45:25Z</time>
      </trkpt>
      <trkpt lat="43.45" lon="-0.34265">
        <ele>191.04</ele>
        <time>2011-05-29T07:45:30Z</time>
      </trkpt>
      <trkpt lat="43.45015" lon="-0.34272">
        <ele>192.717</ele>
        <time>2011-05-29T07:45:35Z</time>
      </trkpt>
      <trkpt lat="43.45016" lon="-0.34289">
        <ele>194.018</ele>
        <time>2011-05-29T07:45:40Z</time>
      </trkpt>
      <trkpt lat="43.45009" lon="-0.34308">
        <ele>196.011</ele>
        <time>2011-05-29T07:45:48Z</time>
      </trkpt>
      <trkpt lat="43.45002" lon="-0.34327">
        <ele>198.128</ele>
        <time>2011-05-29T07:45:55Z</time>
      </trkpt>
      <trkpt lat="43.44996" lon="-0.34346">
        <ele>199.555</ele>
        <time>2011-05-29T07:46:01Z</time>
      </trkpt>
      <trkpt lat="43.44996" lon="-0.34349">
        <ele>199.803</ele>
        <time>2011-05-29T07:46:02Z</time>
      </trkpt>
      <trkpt lat="43.45005" lon="-0.34367">
        <ele>201.749</ele>
        <time>2011-05-29T07:46:09Z</time>
      </trkpt>
      <trkpt lat="43.45006" lon="-0.34374">
        <ele>202.33</ele>
        <time>2011-05-29T07:46:12Z</time>
      </trkpt>
      <trkpt lat="43.45007" lon="-0.34398">
        <ele>204.512</ele>
        <time>2011-05-29T07:46:21Z</time>
      </trkpt>
      <trkpt lat="43.4501" lon="-0.34409">
        <ele>205.862</ele>
        <time>2011-05-29T07:46:27Z</time>
      </trkpt>
      <trkpt lat="43.4501" lon="-0.34411">
        <ele>206.064</ele>
        <time>2011-05-29T07:46:28Z</time>
      </trkpt>
      <trkpt lat="43.45014" lon="-0.34417">
        <ele>206.851</ele>
        <time>2011-05-29T07:46:32Z</time>
      </trkpt>
      <trkpt lat="43.4502" lon="-0.34431">
        <ele>208.906</ele>
        <time>2011-05-29T07:46:41Z</time>
      </trkpt>
      <trkpt lat="43.45022" lon="-0.34443">
        <ele>211.383</ele>
        <time>2011-05-29T07:46:49Z</time>
      </trkpt>
      <trkpt lat="43.45022" lon="-0.34445">
        <ele>211.74</ele>
        <time>2011-05-29T07:46:50Z</time>
      </trkpt>
      <trkpt lat="43.45017" lon="-0.34456">
        <ele>213.479</ele>
        <time>2011-05-29T07:46:58Z</time>
      </trkpt>
      <trkpt lat="43.45017" lon="-0.34457">
        <ele>213.684</ele>
        <time>2011-05-29T07:46:59Z</time>
      </trkpt>
      <trkpt lat="43.45011" lon="-0.34466">
        <ele>215.461</ele>
        <time>2011-05-29T07:47:08Z</time>
      </trkpt>
      <trkpt lat="43.45003" lon="-0.34477">
        <ele>217.122</ele>
        <time>2011-05-29T07:47:16Z</time>
      </trkpt>
      <trkpt lat="43.44997" lon="-0.34488">
        <ele>218.661</ele>
        <time>2011-05-29T07:47:24Z</time>
      </trkpt>
      <trkpt lat="43.44989" lon="-0.34502">
        <ele>219.699</ele>
        <time>2011-05-29T07:47:31Z</time>
      </trkpt>
      <trkpt lat="43.44977" lon="-0.34525">
        <ele>221.045</ele>
        <time>2011-05-29T07:47:41Z</time>
      </trkpt>
      <trkpt lat="43.44974" lon="-0.34545">
        <ele>222.061</ele>
        <time>2011-05-29T07:47:48Z</time>
      </trkpt>
      <trkpt lat="43.44977" lon="-0.34566">
        <ele>223.068</ele>
        <time>2011-05-29T07:47:55Z</time>
      </trkpt>
      <trkpt lat="43.44974" lon="-0.34592">
        <ele>224.327</ele>
        <time>2011-05-29T07:48:02Z</time>
      </trkpt>
      <trkpt lat="43.44977" lon="-0.34617">
        <ele>224.867</ele>
        <time>2011-05-29T07:48:08Z</time>
      </trkpt>
      <trkpt lat="43.44994" lon="-0.34632">
        <ele>224.891</ele>
        <time>2011-05-29T07:48:13Z</time>
      </trkpt>
      <trkpt lat="43.45031" lon="-0.34661">
        <ele>225.215</ele>
        <time>2011-05-29T07:48:22Z</time>
      </trkpt>
      <trkpt lat="43.45075" lon="-0.34693">
        <ele>224.579</ele>
        <time>2011-05-29T07:48:31Z</time>
      </trkpt>
      <trkpt lat="43.4509" lon="-0.34701">
        <ele>224.461</ele>
        <time>2011-05-29T07:48:34Z</time>
      </trkpt>
      <trkpt lat="43.45118" lon="-0.34698">
        <ele>224.613</ele>
        <time>2011-05-29T07:48:39Z</time>
      </trkpt>
      <trkpt lat="43.4513" lon="-0.34694">
        <ele>224.479</ele>
        <time>2011-05-29T07:48:41Z</time>
      </trkpt>
      <trkpt lat="43.45155" lon="-0.347">
        <ele>224.065</ele>
        <time>2011-05-29T07:48:45Z</time>
      </trkpt>
      <trkpt lat="43.45169" lon="-0.34724">
        <ele>223.703</ele>
        <time>2011-05-29T07:48:49Z</time>
      </trkpt>
      <trkpt lat="43.45165" lon="-0.34738">
        <ele>223.767</ele>
        <time>2011-05-29T07:48:51Z</time>
      </trkpt>
      <trkpt lat="43.45154" lon="-0.34773">
        <ele>223.939</ele>
        <time>2011-05-29T07:48:56Z</time>
      </trkpt>
      <trkpt lat="43.45133" lon="-0.34808">
        <ele>224.252</ele>
        <time>2011-05-29T07:49:02Z</time>
      </trkpt>
      <trkpt lat="43.45104" lon="-0.34841">
        <ele>224.336</ele>
        <time>2011-05-29T07:49:08Z</time>
      </trkpt>
      <trkpt lat="43.45056" lon="-0.34889">
        <ele>223.907</ele>
        <time>2011-05-29T07:49:17Z</time>
      </trkpt>
      <trkpt lat="43.44999" lon="-0.34951">
        <ele>224.368</ele>
        <time>2011-05-29T07:49:29Z</time>
      </trkpt>
      <trkpt lat="43.44966" lon="-0.35">
        <ele>224.376</ele>
        <time>2011-05-29T07:49:37Z</time>
      </trkpt>
      <trkpt lat="43.44952" lon="-0.35025">
        <ele>224.46</ele>
        <time>2011-05-29T07:49:41Z</time>
      </trkpt>
      <trkpt lat="43.44933" lon="-0.35039">
        <ele>224.879</ele>
        <time>2011-05-29T07:49:45Z</time>
      </trkpt>
      <trkpt lat="43.44885" lon="-0.35049">
        <ele>225.87</ele>
        <time>2011-05-29T07:49:54Z</time>
      </trkpt>
      <trkpt lat="43.44817" lon="-0.35059">
        <ele>226.902</ele>
        <time>2011-05-29T07:50:07Z</time>
      </trkpt>
      <trkpt lat="43.44808" lon="-0.35061">
        <ele>227.099</ele>
        <time>2011-05-29T07:50:09Z</time>
      </trkpt>
      <trkpt lat="43.44774" lon="-0.35066">
        <ele>228.087</ele>
        <time>2011-05-29T07:50:16Z</time>
      </trkpt>
      <trkpt lat="43.4476" lon="-0.35065">
        <ele>228.627</ele>
        <time>2011-05-29T07:50:19Z</time>
      </trkpt>
      <trkpt lat="43.44751" lon="-0.35064">
        <ele>228.981</ele>
        <time>2011-05-29T07:50:21Z</time>
      </trkpt>
      <trkpt lat="43.4474" lon="-0.35056">
        <ele>229.348</ele>
        <time>2011-05-29T07:50:24Z</time>
      </trkpt>
      <trkpt lat="43.44723" lon="-0.35057">
        <ele>229.857</ele>
        <time>2011-05-29T07:50:28Z</time>
      </trkpt>
      <trkpt lat="43.44716" lon="-0.35065">
        <ele>230</ele>
        <time>2011-05-29T07:50:30Z</time>
      </trkpt>
      <trkpt lat="43.44692" lon="-0.35107">
        <ele>231.283</ele>
        <time>2011-05-29T07:50:39Z</time>
      </trkpt>
      <trkpt lat="43.44676" lon="-0.35134">
        <ele>232.827</ele>
        <time>2011-05-29T07:50:46Z</time>
      </trkpt>
      <trkpt lat="43.44655" lon="-0.35165">
        <ele>234.946</ele>
        <time>2011-05-29T07:50:55Z</time>
      </trkpt>
      <trkpt lat="43.44638" lon="-0.35194">
        <ele>237.517</ele>
        <time>2011-05-29T07:51:03Z</time>
      </trkpt>
      <trkpt lat="43.44626" lon="-0.35221">
        <ele>239.304</ele>
        <time>2011-05-29T07:51:10Z</time>
      </trkpt>
      <trkpt lat="43.44614" lon="-0.35258">
        <ele>241.417</ele>
        <time>2011-05-29T07:51:19Z</time>
      </trkpt>
      <trkpt lat="43.44607" lon="-0.3529">
        <ele>243.73</ele>
        <time>2011-05-29T07:51:27Z</time>
      </trkpt>
      <trkpt lat="43.44595" lon="-0.35332">
        <ele>246.915</ele>
        <time>2011-05-29T07:51:37Z</time>
      </trkpt>
      <trkpt lat="43.44583" lon="-0.35367">
        <ele>249.065</ele>
        <time>2011-05-29T07:51:45Z</time>
      </trkpt>
      <trkpt lat="43.44578" lon="-0.35398">
        <ele>250.745</ele>
        <time>2011-05-29T07:51:52Z</time>
      </trkpt>
      <trkpt lat="43.44579" lon="-0.35403">
        <ele>250.862</ele>
        <time>2011-05-29T07:51:53Z</time>
      </trkpt>
      <trkpt lat="43.44587" lon="-0.3542">
        <ele>250.714</ele>
        <time>2011-05-29T07:51:57Z</time>
      </trkpt>
      <trkpt lat="43.44604" lon="-0.35446">
        <ele>251.075</ele>
        <time>2011-05-29T07:52:04Z</time>
      </trkpt>
      <trkpt lat="43.4462" lon="-0.35463">
        <ele>252.619</ele>
        <time>2011-05-29T07:52:11Z</time>
      </trkpt>
      <trkpt lat="43.44636" lon="-0.35476">
        <ele>255.169</ele>
        <time>2011-05-29T07:52:20Z</time>
      </trkpt>
      <trkpt lat="43.4465" lon="-0.35485">
        <ele>257.776</ele>
        <time>2011-05-29T07:52:28Z</time>
      </trkpt>
      <trkpt lat="43.44665" lon="-0.35492">
        <ele>260.781</ele>
        <time>2011-05-29T07:52:37Z</time>
      </trkpt>
      <trkpt lat="43.44681" lon="-0.35496">
        <ele>263.794</ele>
        <time>2011-05-29T07:52:46Z</time>
      </trkpt>
      <trkpt lat="43.44694" lon="-0.35501">
        <ele>265.856</ele>
        <time>2011-05-29T07:52:53Z</time>
      </trkpt>
      <trkpt lat="43.44711" lon="-0.35513">
        <ele>266.824</ele>
        <time>2011-05-29T07:53:00Z</time>
      </trkpt>
      <trkpt lat="43.44733" lon="-0.35531">
        <ele>266.86</ele>
        <time>2011-05-29T07:53:07Z</time>
      </trkpt>
      <trkpt lat="43.44746" lon="-0.35543">
        <ele>266.778</ele>
        <time>2011-05-29T07:53:11Z</time>
      </trkpt>
      <trkpt lat="43.44754" lon="-0.35566">
        <ele>266.596</ele>
        <time>2011-05-29T07:53:16Z</time>
      </trkpt>
      <trkpt lat="43.4475" lon="-0.35574">
        <ele>266.646</ele>
        <time>2011-05-29T07:53:18Z</time>
      </trkpt>
      <trkpt lat="43.44743" lon="-0.35598">
        <ele>267.769</ele>
        <time>2011-05-29T07:53:24Z</time>
      </trkpt>
      <trkpt lat="43.44745" lon="-0.35603">
        <ele>267.855</ele>
        <time>2011-05-29T07:53:25Z</time>
      </trkpt>
      <trkpt lat="43.44753" lon="-0.35618">
        <ele>265.491</ele>
        <time>2011-05-29T07:53:30Z</time>
      </trkpt>
      <trkpt lat="43.44742" lon="-0.35622">
        <ele>263.02</ele>
        <time>2011-05-29T07:53:33Z</time>
      </trkpt>
      <trkpt lat="43.44718" lon="-0.35622">
        <ele>260.65</ele>
        <time>2011-05-29T07:53:37Z</time>
      </trkpt>
      <trkpt lat="43.44707" lon="-0.35624">
        <ele>259.666</ele>
        <time>2011-05-29T07:53:39Z</time>
      </trkpt>
      <trkpt lat="43.44711" lon="-0.35635">
        <ele>257.455</ele>
        <time>2011-05-29T07:53:43Z</time>
      </trkpt>
      <trkpt lat="43.44721" lon="-0.35642">
        <ele>256.803</ele>
        <time>2011-05-29T07:53:45Z</time>
      </trkpt>
      <trkpt lat="43.44734" lon="-0.35652">
        <ele>255.128</ele>
        <time>2011-05-29T07:53:47Z</time>
      </trkpt>
      <trkpt lat="43.44744" lon="-0.35661">
        <ele>252.961</ele>
        <time>2011-05-29T07:53:49Z</time>
      </trkpt>
      <trkpt lat="43.44734" lon="-0.35671">
        <ele>248.258</ele>
        <time>2011-05-29T07:53:53Z</time>
      </trkpt>
      <trkpt lat="43.44729" lon="-0.35673">
        <ele>247.313</ele>
        <time>2011-05-29T07:53:54Z</time>
      </trkpt>
      <trkpt lat="43.44701" lon="-0.35691">
        <ele>243.224</ele>
        <time>2011-05-29T07:54:00Z</time>
      </trkpt>
      <trkpt lat="43.44699" lon="-0.35699">
        <ele>242.387</ele>
        <time>2011-05-29T07:54:01Z</time>
      </trkpt>
      <trkpt lat="43.44696" lon="-0.35714">
        <ele>240.546</ele>
        <time>2011-05-29T07:54:03Z</time>
      </trkpt>
      <trkpt lat="43.44703" lon="-0.35727">
        <ele>236.983</ele>
        <time>2011-05-29T07:54:07Z</time>
      </trkpt>
      <trkpt lat="43.4472" lon="-0.35732">
        <ele>235.245</ele>
        <time>2011-05-29T07:54:11Z</time>
      </trkpt>
      <trkpt lat="43.44726" lon="-0.35745">
        <ele>234.378</ele>
        <time>2011-05-29T07:54:14Z</time>
      </trkpt>
      <trkpt lat="43.44737" lon="-0.35758">
        <ele>233.54</ele>
        <time>2011-05-29T07:54:17Z</time>
      </trkpt>
      <trkpt lat="43.44766" lon="-0.35781">
        <ele>231.867</ele>
        <time>2011-05-29T07:54:23Z</time>
      </trkpt>
      <trkpt lat="43.44759" lon="-0.35793">
        <ele>230.323</ele>
        <time>2011-05-29T07:54:26Z</time>
      </trkpt>
      <trkpt lat="43.4474" lon="-0.35798">
        <ele>228.428</ele>
        <time>2011-05-29T07:54:28Z</time>
      </trkpt>
      <trkpt lat="43.44732" lon="-0.35801">
        <ele>227.027</ele>
        <time>2011-05-29T07:54:29Z</time>
      </trkpt>
      <trkpt lat="43.44701" lon="-0.35818">
        <ele>220.844</ele>
        <time>2011-05-29T07:54:33Z</time>
      </trkpt>
      <trkpt lat="43.4468" lon="-0.35819">
        <ele>217.977</ele>
        <time>2011-05-29T07:54:36Z</time>
      </trkpt>
      <trkpt lat="43.44663" lon="-0.35812">
        <ele>215.371</ele>
        <time>2011-05-29T07:54:39Z</time>
      </trkpt>
      <trkpt lat="43.44653" lon="-0.35806">
        <ele>214.574</ele>
        <time>2011-05-29T07:54:41Z</time>
      </trkpt>
      <trkpt lat="43.44645" lon="-0.35801">
        <ele>214.275</ele>
        <time>2011-05-29T07:54:43Z</time>
      </trkpt>
      <trkpt lat="43.44636" lon="-0.35818">
        <ele>214.114</ele>
        <time>2011-05-29T07:54:47Z</time>
      </trkpt>
      <trkpt lat="43.44636" lon="-0.35823">
        <ele>214.011</ele>
        <time>2011-05-29T07:54:48Z</time>
      </trkpt>
      <trkpt lat="43.44635" lon="-0.35844">
        <ele>212.175</ele>
        <time>2011-05-29T07:54:52Z</time>
      </trkpt>
      <trkpt lat="43.44638" lon="-0.35857">
        <ele>208.781</ele>
        <time>2011-05-29T07:54:57Z</time>
      </trkpt>
      <trkpt lat="43.44634" lon="-0.35872">
        <ele>207.23</ele>
        <time>2011-05-29T07:55:01Z</time>
      </trkpt>
      <trkpt lat="43.44627" lon="-0.35878">
        <ele>205.578</ele>
        <time>2011-05-29T07:55:05Z</time>
      </trkpt>
      <trkpt lat="43.44626" lon="-0.3588">
        <ele>204.623</ele>
        <time>2011-05-29T07:55:10Z</time>
      </trkpt>
      <trkpt lat="43.44625" lon="-0.35881">
        <ele>204.529</ele>
        <time>2011-05-29T07:55:13Z</time>
      </trkpt>
      <trkpt lat="43.44618" lon="-0.35889">
        <ele>203.989</ele>
        <time>2011-05-29T07:55:18Z</time>
      </trkpt>
      <trkpt lat="43.44605" lon="-0.35894">
        <ele>202.493</ele>
        <time>2011-05-29T07:55:22Z</time>
      </trkpt>
      <trkpt lat="43.44597" lon="-0.35893">
        <ele>201.222</ele>
        <time>2011-05-29T07:55:25Z</time>
      </trkpt>
      <trkpt lat="43.44591" lon="-0.35889">
        <ele>200.702</ele>
        <time>2011-05-29T07:55:28Z</time>
      </trkpt>
      <trkpt lat="43.44587" lon="-0.35888">
        <ele>200.371</ele>
        <time>2011-05-29T07:55:31Z</time>
      </trkpt>
      <trkpt lat="43.44591" lon="-0.35899">
        <ele>199.828</ele>
        <time>2011-05-29T07:55:35Z</time>
      </trkpt>
      <trkpt lat="43.446" lon="-0.35923">
        <ele>198.498</ele>
        <time>2011-05-29T07:55:39Z</time>
      </trkpt>
      <trkpt lat="43.44609" lon="-0.35943">
        <ele>197.275</ele>
        <time>2011-05-29T07:55:42Z</time>
      </trkpt>
      <trkpt lat="43.44616" lon="-0.35955">
        <ele>196.119</ele>
        <time>2011-05-29T07:55:45Z</time>
      </trkpt>
      <trkpt lat="43.44624" lon="-0.35962">
        <ele>195.665</ele>
        <time>2011-05-29T07:55:47Z</time>
      </trkpt>
      <trkpt lat="43.44641" lon="-0.35974">
        <ele>195.655</ele>
        <time>2011-05-29T07:55:51Z</time>
      </trkpt>
      <trkpt lat="43.4465" lon="-0.35981">
        <ele>195.679</ele>
        <time>2011-05-29T07:55:53Z</time>
      </trkpt>
      <trkpt lat="43.44659" lon="-0.3599">
        <ele>195.73</ele>
        <time>2011-05-29T07:55:55Z</time>
      </trkpt>
      <trkpt lat="43.44673" lon="-0.36009">
        <ele>195.167</ele>
        <time>2011-05-29T07:55:58Z</time>
      </trkpt>
      <trkpt lat="43.44694" lon="-0.3603">
        <ele>194.051</ele>
        <time>2011-05-29T07:56:02Z</time>
      </trkpt>
      <trkpt lat="43.44707" lon="-0.36038">
        <ele>193.277</ele>
        <time>2011-05-29T07:56:04Z</time>
      </trkpt>
      <trkpt lat="43.44733" lon="-0.36047">
        <ele>191.814</ele>
        <time>2011-05-29T07:56:08Z</time>
      </trkpt>
      <trkpt lat="43.44775" lon="-0.36069">
        <ele>189.943</ele>
        <time>2011-05-29T07:56:15Z</time>
      </trkpt>
      <trkpt lat="43.44802" lon="-0.36074">
        <ele>188.6</ele>
        <time>2011-05-29T07:56:20Z</time>
      </trkpt>
      <trkpt lat="43.44808" lon="-0.36076">
        <ele>188.274</ele>
        <time>2011-05-29T07:56:21Z</time>
      </trkpt>
      <trkpt lat="43.44827" lon="-0.36068">
        <ele>187.471</ele>
        <time>2011-05-29T07:56:25Z</time>
      </trkpt>
      <trkpt lat="43.4483" lon="-0.36064">
        <ele>187.492</ele>
        <time>2011-05-29T07:56:26Z</time>
      </trkpt>
      <trkpt lat="43.44845" lon="-0.36038">
        <ele>188.374</ele>
        <time>2011-05-29T07:56:31Z</time>
      </trkpt>
      <trkpt lat="43.4485" lon="-0.36021">
        <ele>190.065</ele>
        <time>2011-05-29T07:56:35Z</time>
      </trkpt>
      <trkpt lat="43.44859" lon="-0.35997">
        <ele>191.755</ele>
        <time>2011-05-29T07:56:40Z</time>
      </trkpt>
      <trkpt lat="43.44867" lon="-0.35986">
        <ele>192.643</ele>
        <time>2011-05-29T07:56:44Z</time>
      </trkpt>
      <trkpt lat="43.44879" lon="-0.35974">
        <ele>194.758</ele>
        <time>2011-05-29T07:56:51Z</time>
      </trkpt>
      <trkpt lat="43.44887" lon="-0.35963">
        <ele>196.6</ele>
        <time>2011-05-29T07:56:57Z</time>
      </trkpt>
      <trkpt lat="43.44896" lon="-0.35952">
        <ele>198.375</ele>
        <time>2011-05-29T07:57:04Z</time>
      </trkpt>
      <trkpt lat="43.44904" lon="-0.35942">
        <ele>199.473</ele>
        <time>2011-05-29T07:57:10Z</time>
      </trkpt>
      <trkpt lat="43.44915" lon="-0.35931">
        <ele>201.014</ele>
        <time>2011-05-29T07:57:17Z</time>
      </trkpt>
      <trkpt lat="43.44925" lon="-0.35919">
        <ele>203.051</ele>
        <time>2011-05-29T07:57:24Z</time>
      </trkpt>
      <trkpt lat="43.44935" lon="-0.35913">
        <ele>204.939</ele>
        <time>2011-05-29T07:57:31Z</time>
      </trkpt>
      <trkpt lat="43.44947" lon="-0.35909">
        <ele>205.768</ele>
        <time>2011-05-29T07:57:37Z</time>
      </trkpt>
      <trkpt lat="43.44963" lon="-0.35903">
        <ele>205.755</ele>
        <time>2011-05-29T07:57:42Z</time>
      </trkpt>
      <trkpt lat="43.44974" lon="-0.35897">
        <ele>205.959</ele>
        <time>2011-05-29T07:57:46Z</time>
      </trkpt>
      <trkpt lat="43.44989" lon="-0.35879">
        <ele>206.858</ele>
        <time>2011-05-29T07:57:53Z</time>
      </trkpt>
      <trkpt lat="43.45001" lon="-0.3586">
        <ele>207.581</ele>
        <time>2011-05-29T07:57:59Z</time>
      </trkpt>
      <trkpt lat="43.45012" lon="-0.35833">
        <ele>208.374</ele>
        <time>2011-05-29T07:58:06Z</time>
      </trkpt>
      <trkpt lat="43.45022" lon="-0.35811">
        <ele>208.69</ele>
        <time>2011-05-29T07:58:12Z</time>
      </trkpt>
      <trkpt lat="43.45031" lon="-0.35794">
        <ele>209.562</ele>
        <time>2011-05-29T07:58:17Z</time>
      </trkpt>
      <trkpt lat="43.45037" lon="-0.35772">
        <ele>210.617</ele>
        <time>2011-05-29T07:58:23Z</time>
      </trkpt>
      <trkpt lat="43.45037" lon="-0.35759">
        <ele>211.252</ele>
        <time>2011-05-29T07:58:27Z</time>
      </trkpt>
      <trkpt lat="43.4504" lon="-0.35745">
        <ele>212.254</ele>
        <time>2011-05-29T07:58:32Z</time>
      </trkpt>
      <trkpt lat="43.45046" lon="-0.35728">
        <ele>213.468</ele>
        <time>2011-05-29T07:58:38Z</time>
      </trkpt>
      <trkpt lat="43.45054" lon="-0.35705">
        <ele>215.123</ele>
        <time>2011-05-29T07:58:46Z</time>
      </trkpt>
      <trkpt lat="43.45059" lon="-0.35692">
        <ele>216.599</ele>
        <time>2011-05-29T07:58:52Z</time>
      </trkpt>
      <trkpt lat="43.45068" lon="-0.35679">
        <ele>219.156</ele>
        <time>2011-05-29T07:58:59Z</time>
      </trkpt>
      <trkpt lat="43.45075" lon="-0.35666">
        <ele>221.047</ele>
        <time>2011-05-29T07:59:06Z</time>
      </trkpt>
      <trkpt lat="43.45081" lon="-0.35649">
        <ele>223.017</ele>
        <time>2011-05-29T07:59:14Z</time>
      </trkpt>
      <trkpt lat="43.45086" lon="-0.35633">
        <ele>224.692</ele>
        <time>2011-05-29T07:59:21Z</time>
      </trkpt>
      <trkpt lat="43.45091" lon="-0.35613">
        <ele>225.724</ele>
        <time>2011-05-29T07:59:29Z</time>
      </trkpt>
      <trkpt lat="43.45088" lon="-0.35594">
        <ele>226.693</ele>
        <time>2011-05-29T07:59:36Z</time>
      </trkpt>
      <trkpt lat="43.45083" lon="-0.35572">
        <ele>227.542</ele>
        <time>2011-05-29T07:59:42Z</time>
      </trkpt>
      <trkpt lat="43.45079" lon="-0.35548">
        <ele>227.468</ele>
        <time>2011-05-29T07:59:47Z</time>
      </trkpt>
      <trkpt lat="43.45089" lon="-0.35544">
        <ele>226.734</ele>
        <time>2011-05-29T07:59:51Z</time>
      </trkpt>
      <trkpt lat="43.45094" lon="-0.35546">
        <ele>226.526</ele>
        <time>2011-05-29T07:59:52Z</time>
      </trkpt>
      <trkpt lat="43.45107" lon="-0.35554">
        <ele>226.094</ele>
        <time>2011-05-29T07:59:55Z</time>
      </trkpt>
      <trkpt lat="43.45142" lon="-0.35578">
        <ele>225.568</ele>
        <time>2011-05-29T08:00:03Z</time>
      </trkpt>
      <trkpt lat="43.45171" lon="-0.35598">
        <ele>225.188</ele>
        <time>2011-05-29T08:00:09Z</time>
      </trkpt>
      <trkpt lat="43.45206" lon="-0.35626">
        <ele>224.625</ele>
        <time>2011-05-29T08:00:16Z</time>
      </trkpt>
      <trkpt lat="43.4525" lon="-0.35657">
        <ele>223.824</ele>
        <time>2011-05-29T08:00:24Z</time>
      </trkpt>
      <trkpt lat="43.45256" lon="-0.35661">
        <ele>223.75</ele>
        <time>2011-05-29T08:00:25Z</time>
      </trkpt>
      <trkpt lat="43.45291" lon="-0.35684">
        <ele>223.61</ele>
        <time>2011-05-29T08:00:32Z</time>
      </trkpt>
      <trkpt lat="43.45299" lon="-0.35689">
        <ele>223.799</ele>
        <time>2011-05-29T08:00:34Z</time>
      </trkpt>
      <trkpt lat="43.45305" lon="-0.35715">
        <ele>223.726</ele>
        <time>2011-05-29T08:00:38Z</time>
      </trkpt>
      <trkpt lat="43.45305" lon="-0.35723">
        <ele>223.64</ele>
        <time>2011-05-29T08:00:39Z</time>
      </trkpt>
      <trkpt lat="43.45305" lon="-0.35739">
        <ele>223.023</ele>
        <time>2011-05-29T08:00:41Z</time>
      </trkpt>
      <trkpt lat="43.45304" lon="-0.35756">
        <ele>222.198</ele>
        <time>2011-05-29T08:00:43Z</time>
      </trkpt>
      <trkpt lat="43.45312" lon="-0.35784">
        <ele>219.256</ele>
        <time>2011-05-29T08:00:47Z</time>
      </trkpt>
      <trkpt lat="43.45319" lon="-0.35787">
        <ele>218.437</ele>
        <time>2011-05-29T08:00:48Z</time>
      </trkpt>
      <trkpt lat="43.45345" lon="-0.35796">
        <ele>215.441</ele>
        <time>2011-05-29T08:00:51Z</time>
      </trkpt>
      <trkpt lat="43.45366" lon="-0.35809">
        <ele>213.53</ele>
        <time>2011-05-29T08:00:53Z</time>
      </trkpt>
      <trkpt lat="43.45417" lon="-0.35859">
        <ele>209.32</ele>
        <time>2011-05-29T08:00:59Z</time>
      </trkpt>
      <trkpt lat="43.45449" lon="-0.35878">
        <ele>205.728</ele>
        <time>2011-05-29T08:01:03Z</time>
      </trkpt>
      <trkpt lat="43.45495" lon="-0.35899">
        <ele>200.448</ele>
        <time>2011-05-29T08:01:08Z</time>
      </trkpt>
      <trkpt lat="43.45523" lon="-0.35914">
        <ele>197.435</ele>
        <time>2011-05-29T08:01:11Z</time>
      </trkpt>
      <trkpt lat="43.45548" lon="-0.35934">
        <ele>194.332</ele>
        <time>2011-05-29T08:01:14Z</time>
      </trkpt>
      <trkpt lat="43.45589" lon="-0.35961">
        <ele>190.503</ele>
        <time>2011-05-29T08:01:19Z</time>
      </trkpt>
      <trkpt lat="43.45623" lon="-0.35981">
        <ele>187.057</ele>
        <time>2011-05-29T08:01:23Z</time>
      </trkpt>
      <trkpt lat="43.45665" lon="-0.36033">
        <ele>180.506</ele>
        <time>2011-05-29T08:01:29Z</time>
      </trkpt>
      <trkpt lat="43.45691" lon="-0.36088">
        <ele>174.912</ele>
        <time>2011-05-29T08:01:34Z</time>
      </trkpt>
      <trkpt lat="43.45717" lon="-0.36124">
        <ele>171.373</ele>
        <time>2011-05-29T08:01:38Z</time>
      </trkpt>
      <trkpt lat="43.45747" lon="-0.36164">
        <ele>168.623</ele>
        <time>2011-05-29T08:01:43Z</time>
      </trkpt>
      <trkpt lat="43.45761" lon="-0.36188">
        <ele>167.719</ele>
        <time>2011-05-29T08:01:46Z</time>
      </trkpt>
      <trkpt lat="43.4578" lon="-0.36208">
        <ele>166.33</ele>
        <time>2011-05-29T08:01:50Z</time>
      </trkpt>
      <trkpt lat="43.45779" lon="-0.36206">
        <ele>165.952</ele>
        <time>2011-05-29T08:01:53Z</time>
      </trkpt>
      <trkpt lat="43.45777" lon="-0.362">
        <ele>165.638</ele>
        <time>2011-05-29T08:01:58Z</time>
      </trkpt>
      <trkpt lat="43.45777" lon="-0.36197">
        <ele>165.918</ele>
        <time>2011-05-29T08:02:03Z</time>
      </trkpt>
      <trkpt lat="43.45782" lon="-0.36191">
        <ele>166.873</ele>
        <time>2011-05-29T08:02:08Z</time>
      </trkpt>
      <trkpt lat="43.45786" lon="-0.36191">
        <ele>167.301</ele>
        <time>2011-05-29T08:02:11Z</time>
      </trkpt>
      <trkpt lat="43.45788" lon="-0.36191">
        <ele>167.595</ele>
        <time>2011-05-29T08:02:16Z</time>
      </trkpt>
      <trkpt lat="43.45795" lon="-0.36189">
        <ele>167.515</ele>
        <time>2011-05-29T08:02:22Z</time>
      </trkpt>
      <trkpt lat="43.45796" lon="-0.36188">
        <ele>167.507</ele>
        <time>2011-05-29T08:02:23Z</time>
      </trkpt>
      <trkpt lat="43.45801" lon="-0.36188">
        <ele>166.691</ele>
        <time>2011-05-29T08:02:27Z</time>
      </trkpt>
      <trkpt lat="43.45811" lon="-0.36174">
        <ele>164.44</ele>
        <time>2011-05-29T08:02:34Z</time>
      </trkpt>
      <trkpt lat="43.45815" lon="-0.36172">
        <ele>164.315</ele>
        <time>2011-05-29T08:02:38Z</time>
      </trkpt>
      <trkpt lat="43.45819" lon="-0.36169">
        <ele>164.803</ele>
        <time>2011-05-29T08:02:44Z</time>
      </trkpt>
      <trkpt lat="43.45821" lon="-0.36169">
        <ele>165.236</ele>
        <time>2011-05-29T08:02:46Z</time>
      </trkpt>
      <trkpt lat="43.45825" lon="-0.36166">
        <ele>167.012</ele>
        <time>2011-05-29T08:02:52Z</time>
      </trkpt>
      <trkpt lat="43.45828" lon="-0.36162">
        <ele>168.436</ele>
        <time>2011-05-29T08:02:59Z</time>
      </trkpt>
      <trkpt lat="43.45828" lon="-0.36161">
        <ele>168.513</ele>
        <time>2011-05-29T08:03:05Z</time>
      </trkpt>
      <trkpt lat="43.45829" lon="-0.36158">
        <ele>168.808</ele>
        <time>2011-05-29T08:03:07Z</time>
      </trkpt>
      <trkpt lat="43.45834" lon="-0.36152">
        <ele>169.925</ele>
        <time>2011-05-29T08:03:12Z</time>
      </trkpt>
      <trkpt lat="43.45839" lon="-0.36146">
        <ele>171.304</ele>
        <time>2011-05-29T08:03:17Z</time>
      </trkpt>
      <trkpt lat="43.45847" lon="-0.36136">
        <ele>171.907</ele>
        <time>2011-05-29T08:03:24Z</time>
      </trkpt>
      <trkpt lat="43.4585" lon="-0.36131">
        <ele>172.061</ele>
        <time>2011-05-29T08:03:27Z</time>
      </trkpt>
      <trkpt lat="43.45858" lon="-0.36132">
        <ele>171.742</ele>
        <time>2011-05-29T08:03:31Z</time>
      </trkpt>
      <trkpt lat="43.45872" lon="-0.36134">
        <ele>170.423</ele>
        <time>2011-05-29T08:03:35Z</time>
      </trkpt>
      <trkpt lat="43.4588" lon="-0.36133">
        <ele>169.259</ele>
        <time>2011-05-29T08:03:39Z</time>
      </trkpt>
      <trkpt lat="43.45886" lon="-0.36135">
        <ele>168.643</ele>
        <time>2011-05-29T08:03:41Z</time>
      </trkpt>
      <trkpt lat="43.45901" lon="-0.3614">
        <ele>166.364</ele>
        <time>2011-05-29T08:03:46Z</time>
      </trkpt>
      <trkpt lat="43.45914" lon="-0.36136">
        <ele>165.928</ele>
        <time>2011-05-29T08:03:51Z</time>
      </trkpt>
      <trkpt lat="43.4593" lon="-0.36134">
        <ele>167.263</ele>
        <time>2011-05-29T08:03:57Z</time>
      </trkpt>
      <trkpt lat="43.45949" lon="-0.36131">
        <ele>167.904</ele>
        <time>2011-05-29T08:04:04Z</time>
      </trkpt>
      <trkpt lat="43.45964" lon="-0.36131">
        <ele>168.991</ele>
        <time>2011-05-29T08:04:09Z</time>
      </trkpt>
      <trkpt lat="43.45982" lon="-0.3614">
        <ele>170.429</ele>
        <time>2011-05-29T08:04:14Z</time>
      </trkpt>
      <trkpt lat="43.46003" lon="-0.36151">
        <ele>170.298</ele>
        <time>2011-05-29T08:04:18Z</time>
      </trkpt>
      <trkpt lat="43.46015" lon="-0.36155">
        <ele>169.357</ele>
        <time>2011-05-29T08:04:20Z</time>
      </trkpt>
      <trkpt lat="43.4603" lon="-0.36158">
        <ele>167.907</ele>
        <time>2011-05-29T08:04:22Z</time>
      </trkpt>
      <trkpt lat="43.46061" lon="-0.36148">
        <ele>164.994</ele>
        <time>2011-05-29T08:04:26Z</time>
      </trkpt>
      <trkpt lat="43.46084" lon="-0.36135">
        <ele>164.621</ele>
        <time>2011-05-29T08:04:30Z</time>
      </trkpt>
      <trkpt lat="43.4609" lon="-0.36133">
        <ele>164.834</ele>
        <time>2011-05-29T08:04:31Z</time>
      </trkpt>
      <trkpt lat="43.46112" lon="-0.36128">
        <ele>165.154</ele>
        <time>2011-05-29T08:04:35Z</time>
      </trkpt>
      <trkpt lat="43.46141" lon="-0.36113">
        <ele>163.373</ele>
        <time>2011-05-29T08:04:39Z</time>
      </trkpt>
      <trkpt lat="43.4616" lon="-0.36112">
        <ele>162.157</ele>
        <time>2011-05-29T08:04:42Z</time>
      </trkpt>
      <trkpt lat="43.46167" lon="-0.3612">
        <ele>160.112</ele>
        <time>2011-05-29T08:04:45Z</time>
      </trkpt>
      <trkpt lat="43.46163" lon="-0.36125">
        <ele>158.871</ele>
        <time>2011-05-29T08:04:48Z</time>
      </trkpt>
      <trkpt lat="43.46161" lon="-0.36126">
        <ele>158.593</ele>
        <time>2011-05-29T08:04:49Z</time>
      </trkpt>
      <trkpt lat="43.4614" lon="-0.36134">
        <ele>158.381</ele>
        <time>2011-05-29T08:04:56Z</time>
      </trkpt>
      <trkpt lat="43.46109" lon="-0.3615">
        <ele>158.922</ele>
        <time>2011-05-29T08:05:04Z</time>
      </trkpt>
      <trkpt lat="43.46072" lon="-0.36172">
        <ele>159.209</ele>
        <time>2011-05-29T08:05:13Z</time>
      </trkpt>
      <trkpt lat="43.46064" lon="-0.36191">
        <ele>158.878</ele>
        <time>2011-05-29T08:05:17Z</time>
      </trkpt>
      <trkpt lat="43.46066" lon="-0.36197">
        <ele>158.693</ele>
        <time>2011-05-29T08:05:18Z</time>
      </trkpt>
      <trkpt lat="43.46073" lon="-0.36223">
        <ele>157.517</ele>
        <time>2011-05-29T08:05:23Z</time>
      </trkpt>
      <trkpt lat="43.46067" lon="-0.3623">
        <ele>157.203</ele>
        <time>2011-05-29T08:05:25Z</time>
      </trkpt>
      <trkpt lat="43.46044" lon="-0.36256">
        <ele>157.197</ele>
        <time>2011-05-29T08:05:31Z</time>
      </trkpt>
      <trkpt lat="43.4603" lon="-0.36278">
        <ele>157.425</ele>
        <time>2011-05-29T08:05:36Z</time>
      </trkpt>
      <trkpt lat="43.46026" lon="-0.36283">
        <ele>157.509</ele>
        <time>2011-05-29T08:05:37Z</time>
      </trkpt>
      <trkpt lat="43.46004" lon="-0.36295">
        <ele>157.633</ele>
        <time>2011-05-29T08:05:42Z</time>
      </trkpt>
      <trkpt lat="43.45983" lon="-0.36299">
        <ele>157.912</ele>
        <time>2011-05-29T08:05:47Z</time>
      </trkpt>
      <trkpt lat="43.45979" lon="-0.36302">
        <ele>157.94</ele>
        <time>2011-05-29T08:05:48Z</time>
      </trkpt>
      <trkpt lat="43.45977" lon="-0.36315">
        <ele>158.051</ele>
        <time>2011-05-29T08:05:52Z</time>
      </trkpt>
      <trkpt lat="43.45974" lon="-0.36334">
        <ele>158.066</ele>
        <time>2011-05-29T08:05:57Z</time>
      </trkpt>
      <trkpt lat="43.45964" lon="-0.36342">
        <ele>158.22</ele>
        <time>2011-05-29T08:06:00Z</time>
      </trkpt>
      <trkpt lat="43.45954" lon="-0.36345">
        <ele>158.217</ele>
        <time>2011-05-29T08:06:02Z</time>
      </trkpt>
      <trkpt lat="43.45912" lon="-0.36355">
        <ele>158.198</ele>
        <time>2011-05-29T08:06:10Z</time>
      </trkpt>
      <trkpt lat="43.45881" lon="-0.36349">
        <ele>158.451</ele>
        <time>2011-05-29T08:06:16Z</time>
      </trkpt>
      <trkpt lat="43.45835" lon="-0.36325">
        <ele>159.089</ele>
        <time>2011-05-29T08:06:25Z</time>
      </trkpt>
      <trkpt lat="43.45815" lon="-0.36325">
        <ele>159.322</ele>
        <time>2011-05-29T08:06:29Z</time>
      </trkpt>
      <trkpt lat="43.45801" lon="-0.36331">
        <ele>159.468</ele>
        <time>2011-05-29T08:06:32Z</time>
      </trkpt>
      <trkpt lat="43.45777" lon="-0.36328">
        <ele>159.871</ele>
        <time>2011-05-29T08:06:37Z</time>
      </trkpt>
      <trkpt lat="43.45766" lon="-0.36316">
        <ele>160.162</ele>
        <time>2011-05-29T08:06:40Z</time>
      </trkpt>
      <trkpt lat="43.45751" lon="-0.36302">
        <ele>160.508</ele>
        <time>2011-05-29T08:06:45Z</time>
      </trkpt>
      <trkpt lat="43.45747" lon="-0.36299">
        <ele>160.433</ele>
        <time>2011-05-29T08:06:49Z</time>
      </trkpt>
      <trkpt lat="43.4574" lon="-0.36295">
        <ele>160.464</ele>
        <time>2011-05-29T08:06:54Z</time>
      </trkpt>
      <trkpt lat="43.45735" lon="-0.36295">
        <ele>160.501</ele>
        <time>2011-05-29T08:06:57Z</time>
      </trkpt>
      <trkpt lat="43.45721" lon="-0.36292">
        <ele>160.5</ele>
        <time>2011-05-29T08:07:01Z</time>
      </trkpt>
      <trkpt lat="43.4569" lon="-0.36284">
        <ele>161.03</ele>
        <time>2011-05-29T08:07:08Z</time>
      </trkpt>
      <trkpt lat="43.45669" lon="-0.36284">
        <ele>161.258</ele>
        <time>2011-05-29T08:07:13Z</time>
      </trkpt>
      <trkpt lat="43.45663" lon="-0.36286">
        <ele>161.331</ele>
        <time>2011-05-29T08:07:15Z</time>
      </trkpt>
      <trkpt lat="43.45657" lon="-0.36287">
        <ele>161.191</ele>
        <time>2011-05-29T08:07:17Z</time>
      </trkpt>
      <trkpt lat="43.45652" lon="-0.36279">
        <ele>160.967</ele>
        <time>2011-05-29T08:07:21Z</time>
      </trkpt>
      <trkpt lat="43.45649" lon="-0.36277">
        <ele>160.948</ele>
        <time>2011-05-29T08:07:22Z</time>
      </trkpt>
      <trkpt lat="43.4562" lon="-0.36267">
        <ele>161.719</ele>
        <time>2011-05-29T08:07:29Z</time>
      </trkpt>
      <trkpt lat="43.45608" lon="-0.36274">
        <ele>162.042</ele>
        <time>2011-05-29T08:07:33Z</time>
      </trkpt>
      <trkpt lat="43.45598" lon="-0.36288">
        <ele>162.096</ele>
        <time>2011-05-29T08:07:37Z</time>
      </trkpt>
      <trkpt lat="43.45584" lon="-0.36282">
        <ele>162.146</ele>
        <time>2011-05-29T08:07:41Z</time>
      </trkpt>
      <trkpt lat="43.45559" lon="-0.36278">
        <ele>162.637</ele>
        <time>2011-05-29T08:07:47Z</time>
      </trkpt>
      <trkpt lat="43.45551" lon="-0.36286">
        <ele>162.973</ele>
        <time>2011-05-29T08:07:51Z</time>
      </trkpt>
      <trkpt lat="43.45543" lon="-0.36285">
        <ele>163.182</ele>
        <time>2011-05-29T08:07:55Z</time>
      </trkpt>
      <trkpt lat="43.45534" lon="-0.36289">
        <ele>162.983</ele>
        <time>2011-05-29T08:07:59Z</time>
      </trkpt>
      <trkpt lat="43.45527" lon="-0.36297">
        <ele>162.973</ele>
        <time>2011-05-29T08:08:02Z</time>
      </trkpt>
      <trkpt lat="43.45512" lon="-0.36316">
        <ele>163.29</ele>
        <time>2011-05-29T08:08:07Z</time>
      </trkpt>
      <trkpt lat="43.45499" lon="-0.36328">
        <ele>163.512</ele>
        <time>2011-05-29T08:08:11Z</time>
      </trkpt>
      <trkpt lat="43.45495" lon="-0.36334">
        <ele>163.473</ele>
        <time>2011-05-29T08:08:13Z</time>
      </trkpt>
      <trkpt lat="43.45482" lon="-0.36346">
        <ele>163.451</ele>
        <time>2011-05-29T08:08:18Z</time>
      </trkpt>
      <trkpt lat="43.4548" lon="-0.36347">
        <ele>163.214</ele>
        <time>2011-05-29T08:08:22Z</time>
      </trkpt>
      <trkpt lat="43.45478" lon="-0.36347">
        <ele>162.901</ele>
        <time>2011-05-29T08:08:25Z</time>
      </trkpt>
      <trkpt lat="43.45476" lon="-0.36347">
        <ele>162.805</ele>
        <time>2011-05-29T08:08:27Z</time>
      </trkpt>
      <trkpt lat="43.45474" lon="-0.36344">
        <ele>162.805</ele>
        <time>2011-05-29T08:08:30Z</time>
      </trkpt>
      <trkpt lat="43.45462" lon="-0.3634">
        <ele>163.56</ele>
        <time>2011-05-29T08:08:38Z</time>
      </trkpt>
      <trkpt lat="43.45454" lon="-0.36344">
        <ele>163.861</ele>
        <time>2011-05-29T08:08:42Z</time>
      </trkpt>
      <trkpt lat="43.45442" lon="-0.3634">
        <ele>164.127</ele>
        <time>2011-05-29T08:08:46Z</time>
      </trkpt>
      <trkpt lat="43.45426" lon="-0.36331">
        <ele>164.242</ele>
        <time>2011-05-29T08:08:51Z</time>
      </trkpt>
      <trkpt lat="43.4542" lon="-0.36332">
        <ele>164.246</ele>
        <time>2011-05-29T08:08:53Z</time>
      </trkpt>
      <trkpt lat="43.45412" lon="-0.36311">
        <ele>164.36</ele>
        <time>2011-05-29T08:08:58Z</time>
      </trkpt>
      <trkpt lat="43.45411" lon="-0.36295">
        <ele>164.516</ele>
        <time>2011-05-29T08:09:01Z</time>
      </trkpt>
      <trkpt lat="43.45402" lon="-0.36279">
        <ele>164.713</ele>
        <time>2011-05-29T08:09:05Z</time>
      </trkpt>
      <trkpt lat="43.45394" lon="-0.36258">
        <ele>164.929</ele>
        <time>2011-05-29T08:09:09Z</time>
      </trkpt>
      <trkpt lat="43.45383" lon="-0.36249">
        <ele>165.091</ele>
        <time>2011-05-29T08:09:13Z</time>
      </trkpt>
      <trkpt lat="43.4537" lon="-0.36257">
        <ele>165.117</ele>
        <time>2011-05-29T08:09:17Z</time>
      </trkpt>
      <trkpt lat="43.45365" lon="-0.36267">
        <ele>165.12</ele>
        <time>2011-05-29T08:09:19Z</time>
      </trkpt>
      <trkpt lat="43.4535" lon="-0.36289">
        <ele>165.534</ele>
        <time>2011-05-29T08:09:24Z</time>
      </trkpt>
      <trkpt lat="43.45347" lon="-0.36293">
        <ele>165.592</ele>
        <time>2011-05-29T08:09:25Z</time>
      </trkpt>
      <trkpt lat="43.45333" lon="-0.36311">
        <ele>165.841</ele>
        <time>2011-05-29T08:09:29Z</time>
      </trkpt>
      <trkpt lat="43.4532" lon="-0.36341">
        <ele>166.205</ele>
        <time>2011-05-29T08:09:34Z</time>
      </trkpt>
      <trkpt lat="43.4531" lon="-0.36366">
        <ele>166.273</ele>
        <time>2011-05-29T08:09:38Z</time>
      </trkpt>
      <trkpt lat="43.45298" lon="-0.36374">
        <ele>166.211</ele>
        <time>2011-05-29T08:09:41Z</time>
      </trkpt>
      <trkpt lat="43.4529" lon="-0.36364">
        <ele>166.185</ele>
        <time>2011-05-29T08:09:44Z</time>
      </trkpt>
      <trkpt lat="43.45287" lon="-0.3636">
        <ele>166.148</ele>
        <time>2011-05-29T08:09:45Z</time>
      </trkpt>
      <trkpt lat="43.45268" lon="-0.3634">
        <ele>166.593</ele>
        <time>2011-05-29T08:09:51Z</time>
      </trkpt>
      <trkpt lat="43.4526" lon="-0.36338">
        <ele>166.71</ele>
        <time>2011-05-29T08:09:53Z</time>
      </trkpt>
      <trkpt lat="43.45237" lon="-0.36334">
        <ele>166.729</ele>
        <time>2011-05-29T08:09:58Z</time>
      </trkpt>
      <trkpt lat="43.45218" lon="-0.36339">
        <ele>166.868</ele>
        <time>2011-05-29T08:10:02Z</time>
      </trkpt>
      <trkpt lat="43.45195" lon="-0.36343">
        <ele>167.14</ele>
        <time>2011-05-29T08:10:07Z</time>
      </trkpt>
      <trkpt lat="43.4518" lon="-0.36355">
        <ele>167.412</ele>
        <time>2011-05-29T08:10:11Z</time>
      </trkpt>
      <trkpt lat="43.45169" lon="-0.36352">
        <ele>167.466</ele>
        <time>2011-05-29T08:10:14Z</time>
      </trkpt>
      <trkpt lat="43.45161" lon="-0.36347">
        <ele>167.382</ele>
        <time>2011-05-29T08:10:17Z</time>
      </trkpt>
      <trkpt lat="43.45149" lon="-0.36344">
        <ele>167.389</ele>
        <time>2011-05-29T08:10:21Z</time>
      </trkpt>
      <trkpt lat="43.45133" lon="-0.3634">
        <ele>167.831</ele>
        <time>2011-05-29T08:10:26Z</time>
      </trkpt>
      <trkpt lat="43.45118" lon="-0.36341">
        <ele>168.028</ele>
        <time>2011-05-29T08:10:30Z</time>
      </trkpt>
      <trkpt lat="43.45108" lon="-0.36331">
        <ele>168.207</ele>
        <time>2011-05-29T08:10:33Z</time>
      </trkpt>
      <trkpt lat="43.45088" lon="-0.36326">
        <ele>168.525</ele>
        <time>2011-05-29T08:10:38Z</time>
      </trkpt>
      <trkpt lat="43.45078" lon="-0.36324">
        <ele>168.614</ele>
        <time>2011-05-29T08:10:42Z</time>
      </trkpt>
      <trkpt lat="43.45064" lon="-0.36318">
        <ele>168.762</ele>
        <time>2011-05-29T08:10:46Z</time>
      </trkpt>
      <trkpt lat="43.45043" lon="-0.36322">
        <ele>169</ele>
        <time>2011-05-29T08:10:51Z</time>
      </trkpt>
      <trkpt lat="43.45039" lon="-0.36324">
        <ele>169.017</ele>
        <time>2011-05-29T08:10:52Z</time>
      </trkpt>
      <trkpt lat="43.45026" lon="-0.36331">
        <ele>168.941</ele>
        <time>2011-05-29T08:10:56Z</time>
      </trkpt>
      <trkpt lat="43.45015" lon="-0.36345">
        <ele>169.077</ele>
        <time>2011-05-29T08:11:01Z</time>
      </trkpt>
      <trkpt lat="43.44995" lon="-0.36354">
        <ele>169.731</ele>
        <time>2011-05-29T08:11:06Z</time>
      </trkpt>
      <trkpt lat="43.44986" lon="-0.36353">
        <ele>170.049</ele>
        <time>2011-05-29T08:11:08Z</time>
      </trkpt>
      <trkpt lat="43.44977" lon="-0.36349">
        <ele>170.238</ele>
        <time>2011-05-29T08:11:10Z</time>
      </trkpt>
      <trkpt lat="43.44955" lon="-0.36352">
        <ele>170.388</ele>
        <time>2011-05-29T08:11:15Z</time>
      </trkpt>
      <trkpt lat="43.44943" lon="-0.36349">
        <ele>170.571</ele>
        <time>2011-05-29T08:11:19Z</time>
      </trkpt>
      <trkpt lat="43.44939" lon="-0.36339">
        <ele>170.476</ele>
        <time>2011-05-29T08:11:22Z</time>
      </trkpt>
      <trkpt lat="43.44933" lon="-0.3633">
        <ele>170.45</ele>
        <time>2011-05-29T08:11:25Z</time>
      </trkpt>
      <trkpt lat="43.44918" lon="-0.36324">
        <ele>170.815</ele>
        <time>2011-05-29T08:11:29Z</time>
      </trkpt>
      <trkpt lat="43.44895" lon="-0.36306">
        <ele>171.589</ele>
        <time>2011-05-29T08:11:35Z</time>
      </trkpt>
      <trkpt lat="43.44878" lon="-0.36304">
        <ele>171.691</ele>
        <time>2011-05-29T08:11:39Z</time>
      </trkpt>
      <trkpt lat="43.44869" lon="-0.36305">
        <ele>171.886</ele>
        <time>2011-05-29T08:11:41Z</time>
      </trkpt>
      <trkpt lat="43.44844" lon="-0.36304">
        <ele>172.111</ele>
        <time>2011-05-29T08:11:46Z</time>
      </trkpt>
      <trkpt lat="43.4483" lon="-0.36306">
        <ele>172.176</ele>
        <time>2011-05-29T08:11:49Z</time>
      </trkpt>
      <trkpt lat="43.44803" lon="-0.36304">
        <ele>172.41</ele>
        <time>2011-05-29T08:11:54Z</time>
      </trkpt>
      <trkpt lat="43.44787" lon="-0.36303">
        <ele>172.66</ele>
        <time>2011-05-29T08:11:57Z</time>
      </trkpt>
      <trkpt lat="43.44759" lon="-0.36308">
        <ele>172.591</ele>
        <time>2011-05-29T08:12:02Z</time>
      </trkpt>
      <trkpt lat="43.44736" lon="-0.36297">
        <ele>172.35</ele>
        <time>2011-05-29T08:12:07Z</time>
      </trkpt>
      <trkpt lat="43.44732" lon="-0.36284">
        <ele>172.424</ele>
        <time>2011-05-29T08:12:09Z</time>
      </trkpt>
      <trkpt lat="43.44727" lon="-0.36272">
        <ele>172.573</ele>
        <time>2011-05-29T08:12:11Z</time>
      </trkpt>
      <trkpt lat="43.44722" lon="-0.36242">
        <ele>172.796</ele>
        <time>2011-05-29T08:12:15Z</time>
      </trkpt>
      <trkpt lat="43.44722" lon="-0.36224">
        <ele>173.258</ele>
        <time>2011-05-29T08:12:19Z</time>
      </trkpt>
      <trkpt lat="43.44716" lon="-0.36218">
        <ele>173.731</ele>
        <time>2011-05-29T08:12:22Z</time>
      </trkpt>
      <trkpt lat="43.44704" lon="-0.36214">
        <ele>174.075</ele>
        <time>2011-05-29T08:12:26Z</time>
      </trkpt>
      <trkpt lat="43.44687" lon="-0.36215">
        <ele>173.686</ele>
        <time>2011-05-29T08:12:29Z</time>
      </trkpt>
      <trkpt lat="43.44672" lon="-0.36206">
        <ele>173.311</ele>
        <time>2011-05-29T08:12:33Z</time>
      </trkpt>
      <trkpt lat="43.44668" lon="-0.36191">
        <ele>173.696</ele>
        <time>2011-05-29T08:12:36Z</time>
      </trkpt>
      <trkpt lat="43.44665" lon="-0.36189">
        <ele>173.895</ele>
        <time>2011-05-29T08:12:37Z</time>
      </trkpt>
      <trkpt lat="43.44652" lon="-0.36182">
        <ele>174.195</ele>
        <time>2011-05-29T08:12:40Z</time>
      </trkpt>
      <trkpt lat="43.44639" lon="-0.36164">
        <ele>174.564</ele>
        <time>2011-05-29T08:12:44Z</time>
      </trkpt>
      <trkpt lat="43.44627" lon="-0.36152">
        <ele>174.664</ele>
        <time>2011-05-29T08:12:48Z</time>
      </trkpt>
      <trkpt lat="43.44619" lon="-0.3615">
        <ele>174.696</ele>
        <time>2011-05-29T08:12:50Z</time>
      </trkpt>
      <trkpt lat="43.44593" lon="-0.36132">
        <ele>175.113</ele>
        <time>2011-05-29T08:12:55Z</time>
      </trkpt>
      <trkpt lat="43.44588" lon="-0.36128">
        <ele>175.284</ele>
        <time>2011-05-29T08:12:56Z</time>
      </trkpt>
      <trkpt lat="43.44578" lon="-0.3611">
        <ele>175.802</ele>
        <time>2011-05-29T08:12:59Z</time>
      </trkpt>
      <trkpt lat="43.44558" lon="-0.36083">
        <ele>176.261</ele>
        <time>2011-05-29T08:13:04Z</time>
      </trkpt>
      <trkpt lat="43.44554" lon="-0.36078">
        <ele>176.269</ele>
        <time>2011-05-29T08:13:05Z</time>
      </trkpt>
      <trkpt lat="43.44537" lon="-0.3606">
        <ele>176.298</ele>
        <time>2011-05-29T08:13:09Z</time>
      </trkpt>
      <trkpt lat="43.4453" lon="-0.3605">
        <ele>176.454</ele>
        <time>2011-05-29T08:13:11Z</time>
      </trkpt>
      <trkpt lat="43.44517" lon="-0.36028">
        <ele>176.964</ele>
        <time>2011-05-29T08:13:15Z</time>
      </trkpt>
      <trkpt lat="43.44513" lon="-0.36016">
        <ele>177.189</ele>
        <time>2011-05-29T08:13:17Z</time>
      </trkpt>
      <trkpt lat="43.44507" lon="-0.35979">
        <ele>178.191</ele>
        <time>2011-05-29T08:13:24Z</time>
      </trkpt>
      <trkpt lat="43.44503" lon="-0.35952">
        <ele>179.544</ele>
        <time>2011-05-29T08:13:30Z</time>
      </trkpt>
      <trkpt lat="43.44497" lon="-0.35934">
        <ele>180.504</ele>
        <time>2011-05-29T08:13:35Z</time>
      </trkpt>
      <trkpt lat="43.44481" lon="-0.35913">
        <ele>180.961</ele>
        <time>2011-05-29T08:13:41Z</time>
      </trkpt>
      <trkpt lat="43.44457" lon="-0.35889">
        <ele>180.636</ele>
        <time>2011-05-29T08:13:48Z</time>
      </trkpt>
      <trkpt lat="43.44453" lon="-0.35885">
        <ele>180.589</ele>
        <time>2011-05-29T08:13:49Z</time>
      </trkpt>
      <trkpt lat="43.44431" lon="-0.35846">
        <ele>180.35</ele>
        <time>2011-05-29T08:13:57Z</time>
      </trkpt>
      <trkpt lat="43.44418" lon="-0.35821">
        <ele>181.006</ele>
        <time>2011-05-29T08:14:03Z</time>
      </trkpt>
      <trkpt lat="43.44416" lon="-0.35817">
        <ele>181.152</ele>
        <time>2011-05-29T08:14:04Z</time>
      </trkpt>
      <trkpt lat="43.44419" lon="-0.358">
        <ele>181.371</ele>
        <time>2011-05-29T08:14:08Z</time>
      </trkpt>
      <trkpt lat="43.44421" lon="-0.35797">
        <ele>181.473</ele>
        <time>2011-05-29T08:14:09Z</time>
      </trkpt>
      <trkpt lat="43.44428" lon="-0.3577">
        <ele>184.534</ele>
        <time>2011-05-29T08:14:17Z</time>
      </trkpt>
      <trkpt lat="43.44433" lon="-0.35751">
        <ele>188.13</ele>
        <time>2011-05-29T08:14:25Z</time>
      </trkpt>
      <trkpt lat="43.44437" lon="-0.35736">
        <ele>190.152</ele>
        <time>2011-05-29T08:14:33Z</time>
      </trkpt>
      <trkpt lat="43.44441" lon="-0.3572">
        <ele>191.916</ele>
        <time>2011-05-29T08:14:41Z</time>
      </trkpt>
      <trkpt lat="43.44446" lon="-0.35702">
        <ele>194.17</ele>
        <time>2011-05-29T08:14:50Z</time>
      </trkpt>
      <trkpt lat="43.4445" lon="-0.35688">
        <ele>196.225</ele>
        <time>2011-05-29T08:14:58Z</time>
      </trkpt>
      <trkpt lat="43.44454" lon="-0.35671">
        <ele>197.61</ele>
        <time>2011-05-29T08:15:07Z</time>
      </trkpt>
      <trkpt lat="43.44457" lon="-0.35657">
        <ele>198.805</ele>
        <time>2011-05-29T08:15:14Z</time>
      </trkpt>
      <trkpt lat="43.44458" lon="-0.35655">
        <ele>198.998</ele>
        <time>2011-05-29T08:15:15Z</time>
      </trkpt>
      <trkpt lat="43.44466" lon="-0.35653">
        <ele>200.528</ele>
        <time>2011-05-29T08:15:21Z</time>
      </trkpt>
      <trkpt lat="43.44475" lon="-0.35657">
        <ele>202.639</ele>
        <time>2011-05-29T08:15:28Z</time>
      </trkpt>
      <trkpt lat="43.44484" lon="-0.35655">
        <ele>204.636</ele>
        <time>2011-05-29T08:15:36Z</time>
      </trkpt>
      <trkpt lat="43.44489" lon="-0.35646">
        <ele>206.469</ele>
        <time>2011-05-29T08:15:43Z</time>
      </trkpt>
      <trkpt lat="43.4449" lon="-0.35634">
        <ele>208.531</ele>
        <time>2011-05-29T08:15:51Z</time>
      </trkpt>
      <trkpt lat="43.44488" lon="-0.35619">
        <ele>209.973</ele>
        <time>2011-05-29T08:15:58Z</time>
      </trkpt>
      <trkpt lat="43.4448" lon="-0.35599">
        <ele>209.975</ele>
        <time>2011-05-29T08:16:03Z</time>
      </trkpt>
      <trkpt lat="43.44473" lon="-0.35586">
        <ele>209.622</ele>
        <time>2011-05-29T08:16:06Z</time>
      </trkpt>
      <trkpt lat="43.44459" lon="-0.3557">
        <ele>209.215</ele>
        <time>2011-05-29T08:16:12Z</time>
      </trkpt>
      <trkpt lat="43.44442" lon="-0.3554">
        <ele>209.282</ele>
        <time>2011-05-29T08:16:19Z</time>
      </trkpt>
      <trkpt lat="43.44427" lon="-0.35514">
        <ele>209.886</ele>
        <time>2011-05-29T08:16:25Z</time>
      </trkpt>
      <trkpt lat="43.44422" lon="-0.35503">
        <ele>210.367</ele>
        <time>2011-05-29T08:16:27Z</time>
      </trkpt>
      <trkpt lat="43.44414" lon="-0.35479">
        <ele>210.493</ele>
        <time>2011-05-29T08:16:31Z</time>
      </trkpt>
      <trkpt lat="43.44393" lon="-0.35441">
        <ele>209.913</ele>
        <time>2011-05-29T08:16:37Z</time>
      </trkpt>
      <trkpt lat="43.44379" lon="-0.35421">
        <ele>209.97</ele>
        <time>2011-05-29T08:16:41Z</time>
      </trkpt>
      <trkpt lat="43.44365" lon="-0.35402">
        <ele>210.554</ele>
        <time>2011-05-29T08:16:45Z</time>
      </trkpt>
      <trkpt lat="43.4434" lon="-0.35372">
        <ele>210.258</ele>
        <time>2011-05-29T08:16:51Z</time>
      </trkpt>
      <trkpt lat="43.44331" lon="-0.35357">
        <ele>210.21</ele>
        <time>2011-05-29T08:16:54Z</time>
      </trkpt>
      <trkpt lat="43.44325" lon="-0.35338">
        <ele>211.049</ele>
        <time>2011-05-29T08:16:58Z</time>
      </trkpt>
      <trkpt lat="43.44316" lon="-0.35319">
        <ele>213.201</ele>
        <time>2011-05-29T08:17:03Z</time>
      </trkpt>
      <trkpt lat="43.44309" lon="-0.35311">
        <ele>213.874</ele>
        <time>2011-05-29T08:17:05Z</time>
      </trkpt>
      <trkpt lat="43.44285" lon="-0.35281">
        <ele>212.906</ele>
        <time>2011-05-29T08:17:10Z</time>
      </trkpt>
      <trkpt lat="43.44249" lon="-0.35248">
        <ele>209.436</ele>
        <time>2011-05-29T08:17:15Z</time>
      </trkpt>
      <trkpt lat="43.44241" lon="-0.35241">
        <ele>209.436</ele>
        <time>2011-05-29T08:17:16Z</time>
      </trkpt>
      <trkpt lat="43.44217" lon="-0.35203">
        <ele>206.327</ele>
        <time>2011-05-29T08:17:20Z</time>
      </trkpt>
      <trkpt lat="43.44212" lon="-0.35191">
        <ele>205.438</ele>
        <time>2011-05-29T08:17:21Z</time>
      </trkpt>
      <trkpt lat="43.44201" lon="-0.35156">
        <ele>203.259</ele>
        <time>2011-05-29T08:17:24Z</time>
      </trkpt>
      <trkpt lat="43.44181" lon="-0.3512">
        <ele>201.331</ele>
        <time>2011-05-29T08:17:28Z</time>
      </trkpt>
      <trkpt lat="43.44175" lon="-0.35114">
        <ele>201.192</ele>
        <time>2011-05-29T08:17:29Z</time>
      </trkpt>
      <trkpt lat="43.44121" lon="-0.35078">
        <ele>200.636</ele>
        <time>2011-05-29T08:17:37Z</time>
      </trkpt>
      <trkpt lat="43.44115" lon="-0.35074">
        <ele>200.596</ele>
        <time>2011-05-29T08:17:38Z</time>
      </trkpt>
      <trkpt lat="43.44089" lon="-0.35065">
        <ele>200.523</ele>
        <time>2011-05-29T08:17:42Z</time>
      </trkpt>
      <trkpt lat="43.4405" lon="-0.35031">
        <ele>200.149</ele>
        <time>2011-05-29T08:17:49Z</time>
      </trkpt>
      <trkpt lat="43.44027" lon="-0.35008">
        <ele>200.425</ele>
        <time>2011-05-29T08:17:54Z</time>
      </trkpt>
      <trkpt lat="43.43997" lon="-0.34995">
        <ele>200.6</ele>
        <time>2011-05-29T08:17:59Z</time>
      </trkpt>
      <trkpt lat="43.43969" lon="-0.3498">
        <ele>200.366</ele>
        <time>2011-05-29T08:18:04Z</time>
      </trkpt>
      <trkpt lat="43.43963" lon="-0.34977">
        <ele>200.284</ele>
        <time>2011-05-29T08:18:05Z</time>
      </trkpt>
      <trkpt lat="43.43948" lon="-0.34961">
        <ele>200.166</ele>
        <time>2011-05-29T08:18:08Z</time>
      </trkpt>
      <trkpt lat="43.43929" lon="-0.34929">
        <ele>199.932</ele>
        <time>2011-05-29T08:18:13Z</time>
      </trkpt>
      <trkpt lat="43.43912" lon="-0.34877">
        <ele>200.515</ele>
        <time>2011-05-29T08:18:20Z</time>
      </trkpt>
      <trkpt lat="43.43904" lon="-0.34852">
        <ele>200.134</ele>
        <time>2011-05-29T08:18:23Z</time>
      </trkpt>
      <trkpt lat="43.43885" lon="-0.34833">
        <ele>199.658</ele>
        <time>2011-05-29T08:18:27Z</time>
      </trkpt>
      <trkpt lat="43.4388" lon="-0.3483">
        <ele>199.68</ele>
        <time>2011-05-29T08:18:28Z</time>
      </trkpt>
      <trkpt lat="43.43861" lon="-0.34811">
        <ele>199.969</ele>
        <time>2011-05-29T08:18:32Z</time>
      </trkpt>
      <trkpt lat="43.43839" lon="-0.34795">
        <ele>199.939</ele>
        <time>2011-05-29T08:18:36Z</time>
      </trkpt>
      <trkpt lat="43.43815" lon="-0.3476">
        <ele>200.043</ele>
        <time>2011-05-29T08:18:42Z</time>
      </trkpt>
      <trkpt lat="43.43811" lon="-0.34754">
        <ele>200.022</ele>
        <time>2011-05-29T08:18:43Z</time>
      </trkpt>
      <trkpt lat="43.43799" lon="-0.34725">
        <ele>200.92</ele>
        <time>2011-05-29T08:18:49Z</time>
      </trkpt>
      <trkpt lat="43.4379" lon="-0.34707">
        <ele>202.856</ele>
        <time>2011-05-29T08:18:54Z</time>
      </trkpt>
      <trkpt lat="43.43783" lon="-0.34688">
        <ele>204.348</ele>
        <time>2011-05-29T08:18:59Z</time>
      </trkpt>
      <trkpt lat="43.43772" lon="-0.34662">
        <ele>206.324</ele>
        <time>2011-05-29T08:19:07Z</time>
      </trkpt>
      <trkpt lat="43.43763" lon="-0.34644">
        <ele>208.352</ele>
        <time>2011-05-29T08:19:14Z</time>
      </trkpt>
      <trkpt lat="43.43757" lon="-0.34631">
        <ele>210.06</ele>
        <time>2011-05-29T08:19:19Z</time>
      </trkpt>
      <trkpt lat="43.43743" lon="-0.34616">
        <ele>210.831</ele>
        <time>2011-05-29T08:19:25Z</time>
      </trkpt>
      <trkpt lat="43.43739" lon="-0.34612">
        <ele>210.77</ele>
        <time>2011-05-29T08:19:26Z</time>
      </trkpt>
      <trkpt lat="43.43714" lon="-0.3459">
        <ele>209.52</ele>
        <time>2011-05-29T08:19:32Z</time>
      </trkpt>
      <trkpt lat="43.43697" lon="-0.34574">
        <ele>208.915</ele>
        <time>2011-05-29T08:19:38Z</time>
      </trkpt>
      <trkpt lat="43.43684" lon="-0.34557">
        <ele>208.456</ele>
        <time>2011-05-29T08:19:45Z</time>
      </trkpt>
      <trkpt lat="43.43681" lon="-0.34551">
        <ele>208.635</ele>
        <time>2011-05-29T08:19:48Z</time>
      </trkpt>
      <trkpt lat="43.43683" lon="-0.34537">
        <ele>209.47</ele>
        <time>2011-05-29T08:19:53Z</time>
      </trkpt>
      <trkpt lat="43.43682" lon="-0.34515">
        <ele>213.307</ele>
        <time>2011-05-29T08:20:02Z</time>
      </trkpt>
      <trkpt lat="43.43684" lon="-0.34507">
        <ele>214.694</ele>
        <time>2011-05-29T08:20:06Z</time>
      </trkpt>
      <trkpt lat="43.43683" lon="-0.34499">
        <ele>215.961</ele>
        <time>2011-05-29T08:20:10Z</time>
      </trkpt>
      <trkpt lat="43.43675" lon="-0.34478">
        <ele>217.481</ele>
        <time>2011-05-29T08:20:18Z</time>
      </trkpt>
      <trkpt lat="43.43673" lon="-0.34467">
        <ele>219.181</ele>
        <time>2011-05-29T08:20:24Z</time>
      </trkpt>
      <trkpt lat="43.43671" lon="-0.3445">
        <ele>221.785</ele>
        <time>2011-05-29T08:20:33Z</time>
      </trkpt>
      <trkpt lat="43.43672" lon="-0.3444">
        <ele>222.954</ele>
        <time>2011-05-29T08:20:38Z</time>
      </trkpt>
      <trkpt lat="43.43673" lon="-0.34434">
        <ele>223.98</ele>
        <time>2011-05-29T08:20:42Z</time>
      </trkpt>
      <trkpt lat="43.43673" lon="-0.34419">
        <ele>225.75</ele>
        <time>2011-05-29T08:20:51Z</time>
      </trkpt>
      <trkpt lat="43.43673" lon="-0.34417">
        <ele>226.311</ele>
        <time>2011-05-29T08:20:53Z</time>
      </trkpt>
      <trkpt lat="43.43673" lon="-0.34409">
        <ele>227.765</ele>
        <time>2011-05-29T08:20:59Z</time>
      </trkpt>
      <trkpt lat="43.4367" lon="-0.344">
        <ele>228.791</ele>
        <time>2011-05-29T08:21:05Z</time>
      </trkpt>
      <trkpt lat="43.43661" lon="-0.34388">
        <ele>229.388</ele>
        <time>2011-05-29T08:21:11Z</time>
      </trkpt>
      <trkpt lat="43.43653" lon="-0.34377">
        <ele>229.746</ele>
        <time>2011-05-29T08:21:17Z</time>
      </trkpt>
      <trkpt lat="43.43651" lon="-0.34372">
        <ele>229.755</ele>
        <time>2011-05-29T08:21:19Z</time>
      </trkpt>
      <trkpt lat="43.43642" lon="-0.34364">
        <ele>229.669</ele>
        <time>2011-05-29T08:21:24Z</time>
      </trkpt>
      <trkpt lat="43.43635" lon="-0.34369">
        <ele>229.159</ele>
        <time>2011-05-29T08:21:26Z</time>
      </trkpt>
      <trkpt lat="43.4362" lon="-0.34381">
        <ele>227.083</ele>
        <time>2011-05-29T08:21:30Z</time>
      </trkpt>
      <trkpt lat="43.43604" lon="-0.34384">
        <ele>222.404</ele>
        <time>2011-05-29T08:21:34Z</time>
      </trkpt>
      <trkpt lat="43.43594" lon="-0.34394">
        <ele>218.532</ele>
        <time>2011-05-29T08:21:37Z</time>
      </trkpt>
      <trkpt lat="43.43586" lon="-0.34416">
        <ele>213.617</ele>
        <time>2011-05-29T08:21:41Z</time>
      </trkpt>
      <trkpt lat="43.43575" lon="-0.34429">
        <ele>209.852</ele>
        <time>2011-05-29T08:21:44Z</time>
      </trkpt>
      <trkpt lat="43.4356" lon="-0.3443">
        <ele>204.155</ele>
        <time>2011-05-29T08:21:49Z</time>
      </trkpt>
      <trkpt lat="43.43557" lon="-0.34435">
        <ele>202.542</ele>
        <time>2011-05-29T08:21:51Z</time>
      </trkpt>
      <trkpt lat="43.43545" lon="-0.34461">
        <ele>200.718</ele>
        <time>2011-05-29T08:21:56Z</time>
      </trkpt>
      <trkpt lat="43.43514" lon="-0.34503">
        <ele>199.56</ele>
        <time>2011-05-29T08:22:03Z</time>
      </trkpt>
      <trkpt lat="43.43496" lon="-0.34526">
        <ele>200.128</ele>
        <time>2011-05-29T08:22:08Z</time>
      </trkpt>
      <trkpt lat="43.43472" lon="-0.34538">
        <ele>201.195</ele>
        <time>2011-05-29T08:22:13Z</time>
      </trkpt>
      <trkpt lat="43.4344" lon="-0.34547">
        <ele>201.041</ele>
        <time>2011-05-29T08:22:18Z</time>
      </trkpt>
      <trkpt lat="43.43421" lon="-0.34563">
        <ele>200.191</ele>
        <time>2011-05-29T08:22:22Z</time>
      </trkpt>
      <trkpt lat="43.43421" lon="-0.34571">
        <ele>200.038</ele>
        <time>2011-05-29T08:22:23Z</time>
      </trkpt>
      <trkpt lat="43.43423" lon="-0.34586">
        <ele>199.71</ele>
        <time>2011-05-29T08:22:25Z</time>
      </trkpt>
      <trkpt lat="43.43417" lon="-0.34633">
        <ele>199.662</ele>
        <time>2011-05-29T08:22:31Z</time>
      </trkpt>
      <trkpt lat="43.43407" lon="-0.34707">
        <ele>200.292</ele>
        <time>2011-05-29T08:22:40Z</time>
      </trkpt>
      <trkpt lat="43.43402" lon="-0.34752">
        <ele>200.278</ele>
        <time>2011-05-29T08:22:46Z</time>
      </trkpt>
      <trkpt lat="43.43412" lon="-0.34774">
        <ele>200.114</ele>
        <time>2011-05-29T08:22:50Z</time>
      </trkpt>
      <trkpt lat="43.43423" lon="-0.34775">
        <ele>200.153</ele>
        <time>2011-05-29T08:22:52Z</time>
      </trkpt>
      <trkpt lat="43.43468" lon="-0.3477">
        <ele>200.478</ele>
        <time>2011-05-29T08:23:01Z</time>
      </trkpt>
      <trkpt lat="43.4349" lon="-0.34773">
        <ele>200.539</ele>
        <time>2011-05-29T08:23:05Z</time>
      </trkpt>
      <trkpt lat="43.43506" lon="-0.34794">
        <ele>200.454</ele>
        <time>2011-05-29T08:23:09Z</time>
      </trkpt>
      <trkpt lat="43.43512" lon="-0.34806">
        <ele>200.708</ele>
        <time>2011-05-29T08:23:11Z</time>
      </trkpt>
      <trkpt lat="43.43532" lon="-0.34825">
        <ele>201.93</ele>
        <time>2011-05-29T08:23:16Z</time>
      </trkpt>
      <trkpt lat="43.43563" lon="-0.34839">
        <ele>202.312</ele>
        <time>2011-05-29T08:23:22Z</time>
      </trkpt>
      <trkpt lat="43.43588" lon="-0.34866">
        <ele>201.893</ele>
        <time>2011-05-29T08:23:27Z</time>
      </trkpt>
      <trkpt lat="43.43605" lon="-0.34894">
        <ele>202.266</ele>
        <time>2011-05-29T08:23:32Z</time>
      </trkpt>
      <trkpt lat="43.43626" lon="-0.34935">
        <ele>203.108</ele>
        <time>2011-05-29T08:23:39Z</time>
      </trkpt>
      <trkpt lat="43.43646" lon="-0.34984">
        <ele>203.162</ele>
        <time>2011-05-29T08:23:46Z</time>
      </trkpt>
      <trkpt lat="43.43653" lon="-0.3503">
        <ele>202.896</ele>
        <time>2011-05-29T08:23:52Z</time>
      </trkpt>
      <trkpt lat="43.43655" lon="-0.3506">
        <ele>204.043</ele>
        <time>2011-05-29T08:23:58Z</time>
      </trkpt>
      <trkpt lat="43.43675" lon="-0.3508">
        <ele>204.171</ele>
        <time>2011-05-29T08:24:03Z</time>
      </trkpt>
      <trkpt lat="43.43716" lon="-0.35115">
        <ele>202.114</ele>
        <time>2011-05-29T08:24:10Z</time>
      </trkpt>
      <trkpt lat="43.43741" lon="-0.35142">
        <ele>201.293</ele>
        <time>2011-05-29T08:24:15Z</time>
      </trkpt>
      <trkpt lat="43.43765" lon="-0.3518">
        <ele>201.313</ele>
        <time>2011-05-29T08:24:21Z</time>
      </trkpt>
      <trkpt lat="43.43791" lon="-0.35225">
        <ele>201.514</ele>
        <time>2011-05-29T08:24:28Z</time>
      </trkpt>
      <trkpt lat="43.43806" lon="-0.35249">
        <ele>201.539</ele>
        <time>2011-05-29T08:24:32Z</time>
      </trkpt>
      <trkpt lat="43.4383" lon="-0.35303">
        <ele>201.645</ele>
        <time>2011-05-29T08:24:40Z</time>
      </trkpt>
      <trkpt lat="43.43854" lon="-0.35348">
        <ele>201.566</ele>
        <time>2011-05-29T08:24:47Z</time>
      </trkpt>
      <trkpt lat="43.43865" lon="-0.35371">
        <ele>201.101</ele>
        <time>2011-05-29T08:24:52Z</time>
      </trkpt>
      <trkpt lat="43.43867" lon="-0.35374">
        <ele>200.999</ele>
        <time>2011-05-29T08:24:53Z</time>
      </trkpt>
      <trkpt lat="43.43871" lon="-0.35393">
        <ele>200.625</ele>
        <time>2011-05-29T08:24:57Z</time>
      </trkpt>
      <trkpt lat="43.43885" lon="-0.35445">
        <ele>200.592</ele>
        <time>2011-05-29T08:25:05Z</time>
      </trkpt>
      <trkpt lat="43.43897" lon="-0.35461">
        <ele>200.8</ele>
        <time>2011-05-29T08:25:09Z</time>
      </trkpt>
      <trkpt lat="43.43922" lon="-0.35487">
        <ele>200.922</ele>
        <time>2011-05-29T08:25:15Z</time>
      </trkpt>
      <trkpt lat="43.43931" lon="-0.35507">
        <ele>201.559</ele>
        <time>2011-05-29T08:25:19Z</time>
      </trkpt>
      <trkpt lat="43.43949" lon="-0.35536">
        <ele>202.402</ele>
        <time>2011-05-29T08:25:24Z</time>
      </trkpt>
      <trkpt lat="43.43953" lon="-0.35544">
        <ele>202.273</ele>
        <time>2011-05-29T08:25:25Z</time>
      </trkpt>
      <trkpt lat="43.43965" lon="-0.35573">
        <ele>201.386</ele>
        <time>2011-05-29T08:25:29Z</time>
      </trkpt>
      <trkpt lat="43.43983" lon="-0.35595">
        <ele>200.774</ele>
        <time>2011-05-29T08:25:33Z</time>
      </trkpt>
      <trkpt lat="43.4399" lon="-0.35614">
        <ele>200.508</ele>
        <time>2011-05-29T08:25:36Z</time>
      </trkpt>
      <trkpt lat="43.4399" lon="-0.35617">
        <ele>200.468</ele>
        <time>2011-05-29T08:25:37Z</time>
      </trkpt>
      <trkpt lat="43.43988" lon="-0.35623">
        <ele>200.909</ele>
        <time>2011-05-29T08:25:41Z</time>
      </trkpt>
      <trkpt lat="43.4399" lon="-0.35629">
        <ele>202.141</ele>
        <time>2011-05-29T08:25:45Z</time>
      </trkpt>
      <trkpt lat="43.43995" lon="-0.35633">
        <ele>202.451</ele>
        <time>2011-05-29T08:25:47Z</time>
      </trkpt>
      <trkpt lat="43.44021" lon="-0.35664">
        <ele>202.533</ele>
        <time>2011-05-29T08:25:54Z</time>
      </trkpt>
      <trkpt lat="43.4406" lon="-0.35709">
        <ele>201.99</ele>
        <time>2011-05-29T08:26:03Z</time>
      </trkpt>
      <trkpt lat="43.4409" lon="-0.35751">
        <ele>201.886</ele>
        <time>2011-05-29T08:26:10Z</time>
      </trkpt>
      <trkpt lat="43.44112" lon="-0.35794">
        <ele>201.884</ele>
        <time>2011-05-29T08:26:16Z</time>
      </trkpt>
      <trkpt lat="43.44143" lon="-0.35866">
        <ele>201.766</ele>
        <time>2011-05-29T08:26:25Z</time>
      </trkpt>
      <trkpt lat="43.4417" lon="-0.35916">
        <ele>201.757</ele>
        <time>2011-05-29T08:26:32Z</time>
      </trkpt>
      <trkpt lat="43.44198" lon="-0.35964">
        <ele>199.958</ele>
        <time>2011-05-29T08:26:37Z</time>
      </trkpt>
      <trkpt lat="43.44228" lon="-0.36012">
        <ele>196.129</ele>
        <time>2011-05-29T08:26:41Z</time>
      </trkpt>
      <trkpt lat="43.44246" lon="-0.36035">
        <ele>193.667</ele>
        <time>2011-05-29T08:26:43Z</time>
      </trkpt>
      <trkpt lat="43.44286" lon="-0.36062">
        <ele>189.324</ele>
        <time>2011-05-29T08:26:47Z</time>
      </trkpt>
      <trkpt lat="43.44314" lon="-0.36056">
        <ele>187.159</ele>
        <time>2011-05-29T08:26:50Z</time>
      </trkpt>
      <trkpt lat="43.44332" lon="-0.3606">
        <ele>186.43</ele>
        <time>2011-05-29T08:26:52Z</time>
      </trkpt>
      <trkpt lat="43.44366" lon="-0.36071">
        <ele>185.421</ele>
        <time>2011-05-29T08:26:56Z</time>
      </trkpt>
      <trkpt lat="43.44397" lon="-0.36095">
        <ele>184.024</ele>
        <time>2011-05-29T08:27:00Z</time>
      </trkpt>
      <trkpt lat="43.44427" lon="-0.3612">
        <ele>182.668</ele>
        <time>2011-05-29T08:27:04Z</time>
      </trkpt>
      <trkpt lat="43.44437" lon="-0.36141">
        <ele>182.026</ele>
        <time>2011-05-29T08:27:07Z</time>
      </trkpt>
      <trkpt lat="43.4443" lon="-0.36158">
        <ele>181.727</ele>
        <time>2011-05-29T08:27:10Z</time>
      </trkpt>
      <trkpt lat="43.44423" lon="-0.36163">
        <ele>182.006</ele>
        <time>2011-05-29T08:27:12Z</time>
      </trkpt>
      <trkpt lat="43.44406" lon="-0.36172">
        <ele>184.196</ele>
        <time>2011-05-29T08:27:18Z</time>
      </trkpt>
      <trkpt lat="43.44396" lon="-0.36177">
        <ele>185.377</ele>
        <time>2011-05-29T08:27:22Z</time>
      </trkpt>
      <trkpt lat="43.44391" lon="-0.36179">
        <ele>186.178</ele>
        <time>2011-05-29T08:27:24Z</time>
      </trkpt>
      <trkpt lat="43.4438" lon="-0.36183">
        <ele>188.214</ele>
        <time>2011-05-29T08:27:29Z</time>
      </trkpt>
      <trkpt lat="43.44371" lon="-0.36187">
        <ele>190.075</ele>
        <time>2011-05-29T08:27:33Z</time>
      </trkpt>
      <trkpt lat="43.4436" lon="-0.36193">
        <ele>192.636</ele>
        <time>2011-05-29T08:27:38Z</time>
      </trkpt>
      <trkpt lat="43.44351" lon="-0.36201">
        <ele>194.409</ele>
        <time>2011-05-29T08:27:42Z</time>
      </trkpt>
      <trkpt lat="43.44336" lon="-0.36219">
        <ele>197.468</ele>
        <time>2011-05-29T08:27:50Z</time>
      </trkpt>
      <trkpt lat="43.44319" lon="-0.3624">
        <ele>200.953</ele>
        <time>2011-05-29T08:28:00Z</time>
      </trkpt>
      <trkpt lat="43.44304" lon="-0.36258">
        <ele>203.329</ele>
        <time>2011-05-29T08:28:09Z</time>
      </trkpt>
      <trkpt lat="43.4429" lon="-0.36274">
        <ele>204.74</ele>
        <time>2011-05-29T08:28:17Z</time>
      </trkpt>
      <trkpt lat="43.44268" lon="-0.36294">
        <ele>206.443</ele>
        <time>2011-05-29T08:28:27Z</time>
      </trkpt>
      <trkpt lat="43.44246" lon="-0.36315">
        <ele>207.242</ele>
        <time>2011-05-29T08:28:37Z</time>
      </trkpt>
      <trkpt lat="43.44239" lon="-0.36331">
        <ele>208.071</ele>
        <time>2011-05-29T08:28:43Z</time>
      </trkpt>
      <trkpt lat="43.44237" lon="-0.36349">
        <ele>209.29</ele>
        <time>2011-05-29T08:28:49Z</time>
      </trkpt>
      <trkpt lat="43.44238" lon="-0.3637">
        <ele>210.919</ele>
        <time>2011-05-29T08:28:56Z</time>
      </trkpt>
      <trkpt lat="43.44244" lon="-0.36391">
        <ele>212.46</ele>
        <time>2011-05-29T08:29:03Z</time>
      </trkpt>
      <trkpt lat="43.44254" lon="-0.36414">
        <ele>215.231</ele>
        <time>2011-05-29T08:29:12Z</time>
      </trkpt>
      <trkpt lat="43.44264" lon="-0.36439">
        <ele>217.795</ele>
        <time>2011-05-29T08:29:22Z</time>
      </trkpt>
      <trkpt lat="43.44272" lon="-0.36457">
        <ele>219.08</ele>
        <time>2011-05-29T08:29:29Z</time>
      </trkpt>
      <trkpt lat="43.44285" lon="-0.36483">
        <ele>221.396</ele>
        <time>2011-05-29T08:29:38Z</time>
      </trkpt>
      <trkpt lat="43.44296" lon="-0.36502">
        <ele>223.129</ele>
        <time>2011-05-29T08:29:45Z</time>
      </trkpt>
      <trkpt lat="43.44302" lon="-0.36528">
        <ele>224.655</ele>
        <time>2011-05-29T08:29:53Z</time>
      </trkpt>
      <trkpt lat="43.443" lon="-0.36549">
        <ele>226.083</ele>
        <time>2011-05-29T08:30:00Z</time>
      </trkpt>
      <trkpt lat="43.44293" lon="-0.36569">
        <ele>227.957</ele>
        <time>2011-05-29T08:30:08Z</time>
      </trkpt>
      <trkpt lat="43.44287" lon="-0.36584">
        <ele>229.325</ele>
        <time>2011-05-29T08:30:14Z</time>
      </trkpt>
      <trkpt lat="43.44277" lon="-0.36599">
        <ele>230.683</ele>
        <time>2011-05-29T08:30:21Z</time>
      </trkpt>
      <trkpt lat="43.4426" lon="-0.36612">
        <ele>233.099</ele>
        <time>2011-05-29T08:30:30Z</time>
      </trkpt>
      <trkpt lat="43.44243" lon="-0.36615">
        <ele>234.665</ele>
        <time>2011-05-29T08:30:38Z</time>
      </trkpt>
      <trkpt lat="43.44224" lon="-0.36615">
        <ele>236.722</ele>
        <time>2011-05-29T08:30:47Z</time>
      </trkpt>
      <trkpt lat="43.44209" lon="-0.36619">
        <ele>238.389</ele>
        <time>2011-05-29T08:30:54Z</time>
      </trkpt>
      <trkpt lat="43.44192" lon="-0.36629">
        <ele>239.789</ele>
        <time>2011-05-29T08:31:01Z</time>
      </trkpt>
      <trkpt lat="43.44174" lon="-0.3664">
        <ele>241.072</ele>
        <time>2011-05-29T08:31:09Z</time>
      </trkpt>
      <trkpt lat="43.44156" lon="-0.36651">
        <ele>243.253</ele>
        <time>2011-05-29T08:31:17Z</time>
      </trkpt>
      <trkpt lat="43.4414" lon="-0.36662">
        <ele>245.629</ele>
        <time>2011-05-29T08:31:25Z</time>
      </trkpt>
      <trkpt lat="43.44123" lon="-0.36673">
        <ele>247.589</ele>
        <time>2011-05-29T08:31:34Z</time>
      </trkpt>
      <trkpt lat="43.44108" lon="-0.36684">
        <ele>249.644</ele>
        <time>2011-05-29T08:31:43Z</time>
      </trkpt>
      <trkpt lat="43.44099" lon="-0.36695">
        <ele>251.08</ele>
        <time>2011-05-29T08:31:50Z</time>
      </trkpt>
      <trkpt lat="43.4409" lon="-0.36706">
        <ele>252.26</ele>
        <time>2011-05-29T08:31:57Z</time>
      </trkpt>
      <trkpt lat="43.44075" lon="-0.36723">
        <ele>253.813</ele>
        <time>2011-05-29T08:32:07Z</time>
      </trkpt>
      <trkpt lat="43.4406" lon="-0.36735">
        <ele>255.17</ele>
        <time>2011-05-29T08:32:14Z</time>
      </trkpt>
      <trkpt lat="43.44036" lon="-0.36752">
        <ele>256.027</ele>
        <time>2011-05-29T08:32:24Z</time>
      </trkpt>
      <trkpt lat="43.4401" lon="-0.36763">
        <ele>256.886</ele>
        <time>2011-05-29T08:32:32Z</time>
      </trkpt>
      <trkpt lat="43.43983" lon="-0.36774">
        <ele>257.361</ele>
        <time>2011-05-29T08:32:39Z</time>
      </trkpt>
      <trkpt lat="43.43952" lon="-0.36782">
        <ele>258.272</ele>
        <time>2011-05-29T08:32:47Z</time>
      </trkpt>
      <trkpt lat="43.43915" lon="-0.36798">
        <ele>260.387</ele>
        <time>2011-05-29T08:32:57Z</time>
      </trkpt>
      <trkpt lat="43.43894" lon="-0.36818">
        <ele>262.983</ele>
        <time>2011-05-29T08:33:04Z</time>
      </trkpt>
      <trkpt lat="43.43881" lon="-0.36838">
        <ele>265.712</ele>
        <time>2011-05-29T08:33:12Z</time>
      </trkpt>
      <trkpt lat="43.43873" lon="-0.36854">
        <ele>267.428</ele>
        <time>2011-05-29T08:33:19Z</time>
      </trkpt>
      <trkpt lat="43.43866" lon="-0.36866">
        <ele>269.116</ele>
        <time>2011-05-29T08:33:25Z</time>
      </trkpt>
      <trkpt lat="43.43854" lon="-0.36877">
        <ele>271.22</ele>
        <time>2011-05-29T08:33:33Z</time>
      </trkpt>
      <trkpt lat="43.43842" lon="-0.36884">
        <ele>272.651</ele>
        <time>2011-05-29T08:33:41Z</time>
      </trkpt>
      <trkpt lat="43.43835" lon="-0.36887">
        <ele>273.555</ele>
        <time>2011-05-29T08:33:46Z</time>
      </trkpt>
      <trkpt lat="43.43833" lon="-0.36893">
        <ele>274.188</ele>
        <time>2011-05-29T08:33:50Z</time>
      </trkpt>
      <trkpt lat="43.43836" lon="-0.3691">
        <ele>275.91</ele>
        <time>2011-05-29T08:33:58Z</time>
      </trkpt>
      <trkpt lat="43.4383" lon="-0.36923">
        <ele>277.325</ele>
        <time>2011-05-29T08:34:04Z</time>
      </trkpt>
      <trkpt lat="43.4382" lon="-0.36938">
        <ele>277.857</ele>
        <time>2011-05-29T08:34:10Z</time>
      </trkpt>
      <trkpt lat="43.43806" lon="-0.36959">
        <ele>278.189</ele>
        <time>2011-05-29T08:34:17Z</time>
      </trkpt>
      <trkpt lat="43.43787" lon="-0.36985">
        <ele>277.687</ele>
        <time>2011-05-29T08:34:24Z</time>
      </trkpt>
      <trkpt lat="43.43779" lon="-0.36995">
        <ele>277.384</ele>
        <time>2011-05-29T08:34:26Z</time>
      </trkpt>
      <trkpt lat="43.43751" lon="-0.37029">
        <ele>275.965</ele>
        <time>2011-05-29T08:34:32Z</time>
      </trkpt>
      <trkpt lat="43.43737" lon="-0.3705">
        <ele>274.145</ele>
        <time>2011-05-29T08:34:35Z</time>
      </trkpt>
      <trkpt lat="43.4372" lon="-0.37058">
        <ele>270.473</ele>
        <time>2011-05-29T08:34:39Z</time>
      </trkpt>
      <trkpt lat="43.43716" lon="-0.37059">
        <ele>269.489</ele>
        <time>2011-05-29T08:34:40Z</time>
      </trkpt>
      <trkpt lat="43.43707" lon="-0.37063">
        <ele>267.543</ele>
        <time>2011-05-29T08:34:42Z</time>
      </trkpt>
      <trkpt lat="43.43668" lon="-0.37072">
        <ele>262.358</ele>
        <time>2011-05-29T08:34:49Z</time>
      </trkpt>
      <trkpt lat="43.43656" lon="-0.37075">
        <ele>260.326</ele>
        <time>2011-05-29T08:34:52Z</time>
      </trkpt>
      <trkpt lat="43.43654" lon="-0.37082">
        <ele>258.948</ele>
        <time>2011-05-29T08:34:55Z</time>
      </trkpt>
      <trkpt lat="43.43659" lon="-0.37087">
        <ele>257.541</ele>
        <time>2011-05-29T08:34:57Z</time>
      </trkpt>
      <trkpt lat="43.43673" lon="-0.37094">
        <ele>255.759</ele>
        <time>2011-05-29T08:35:00Z</time>
      </trkpt>
      <trkpt lat="43.43684" lon="-0.37102">
        <ele>254.737</ele>
        <time>2011-05-29T08:35:02Z</time>
      </trkpt>
      <trkpt lat="43.43695" lon="-0.3712">
        <ele>253.109</ele>
        <time>2011-05-29T08:35:05Z</time>
      </trkpt>
      <trkpt lat="43.43705" lon="-0.37135">
        <ele>251.876</ele>
        <time>2011-05-29T08:35:07Z</time>
      </trkpt>
      <trkpt lat="43.43714" lon="-0.37148">
        <ele>249.477</ele>
        <time>2011-05-29T08:35:10Z</time>
      </trkpt>
      <trkpt lat="43.43709" lon="-0.37153">
        <ele>246.624</ele>
        <time>2011-05-29T08:35:14Z</time>
      </trkpt>
      <trkpt lat="43.43679" lon="-0.3716">
        <ele>243.745</ele>
        <time>2011-05-29T08:35:20Z</time>
      </trkpt>
      <trkpt lat="43.43673" lon="-0.37159">
        <ele>242.98</ele>
        <time>2011-05-29T08:35:21Z</time>
      </trkpt>
      <trkpt lat="43.43655" lon="-0.37159">
        <ele>239.341</ele>
        <time>2011-05-29T08:35:25Z</time>
      </trkpt>
      <trkpt lat="43.43637" lon="-0.37165">
        <ele>236.035</ele>
        <time>2011-05-29T08:35:29Z</time>
      </trkpt>
      <trkpt lat="43.43627" lon="-0.37183">
        <ele>232.801</ele>
        <time>2011-05-29T08:35:33Z</time>
      </trkpt>
      <trkpt lat="43.43636" lon="-0.37191">
        <ele>231.255</ele>
        <time>2011-05-29T08:35:35Z</time>
      </trkpt>
      <trkpt lat="43.43643" lon="-0.37203">
        <ele>229.751</ele>
        <time>2011-05-29T08:35:38Z</time>
      </trkpt>
      <trkpt lat="43.43644" lon="-0.37209">
        <ele>229.677</ele>
        <time>2011-05-29T08:35:41Z</time>
      </trkpt>
      <trkpt lat="43.4364" lon="-0.37209">
        <ele>230.002</ele>
        <time>2011-05-29T08:35:43Z</time>
      </trkpt>
      <trkpt lat="43.43627" lon="-0.37203">
        <ele>230.774</ele>
        <time>2011-05-29T08:35:49Z</time>
      </trkpt>
      <trkpt lat="43.43607" lon="-0.37192">
        <ele>231.943</ele>
        <time>2011-05-29T08:35:56Z</time>
      </trkpt>
      <trkpt lat="43.43588" lon="-0.37185">
        <ele>233.428</ele>
        <time>2011-05-29T08:36:03Z</time>
      </trkpt>
      <trkpt lat="43.43571" lon="-0.37183">
        <ele>235</ele>
        <time>2011-05-29T08:36:10Z</time>
      </trkpt>
      <trkpt lat="43.43553" lon="-0.37177">
        <ele>235.318</ele>
        <time>2011-05-29T08:36:17Z</time>
      </trkpt>
      <trkpt lat="43.43541" lon="-0.37172">
        <ele>235.234</ele>
        <time>2011-05-29T08:36:22Z</time>
      </trkpt>
      <trkpt lat="43.43524" lon="-0.37165">
        <ele>235.865</ele>
        <time>2011-05-29T08:36:29Z</time>
      </trkpt>
      <trkpt lat="43.43507" lon="-0.37158">
        <ele>237.398</ele>
        <time>2011-05-29T08:36:37Z</time>
      </trkpt>
      <trkpt lat="43.43492" lon="-0.37154">
        <ele>239.235</ele>
        <time>2011-05-29T08:36:44Z</time>
      </trkpt>
      <trkpt lat="43.43476" lon="-0.37148">
        <ele>241.266</ele>
        <time>2011-05-29T08:36:52Z</time>
      </trkpt>
      <trkpt lat="43.43461" lon="-0.37138">
        <ele>242.022</ele>
        <time>2011-05-29T08:36:57Z</time>
      </trkpt>
      <trkpt lat="43.43444" lon="-0.37129">
        <ele>241.597</ele>
        <time>2011-05-29T08:37:02Z</time>
      </trkpt>
      <trkpt lat="43.43428" lon="-0.37129">
        <ele>240.963</ele>
        <time>2011-05-29T08:37:08Z</time>
      </trkpt>
      <trkpt lat="43.43414" lon="-0.37132">
        <ele>242.054</ele>
        <time>2011-05-29T08:37:14Z</time>
      </trkpt>
      <trkpt lat="43.43402" lon="-0.37128">
        <ele>243.226</ele>
        <time>2011-05-29T08:37:21Z</time>
      </trkpt>
      <trkpt lat="43.43391" lon="-0.37123">
        <ele>244.392</ele>
        <time>2011-05-29T08:37:28Z</time>
      </trkpt>
      <trkpt lat="43.43378" lon="-0.37117">
        <ele>246.135</ele>
        <time>2011-05-29T08:37:36Z</time>
      </trkpt>
      <trkpt lat="43.43366" lon="-0.37108">
        <ele>247.526</ele>
        <time>2011-05-29T08:37:43Z</time>
      </trkpt>
      <trkpt lat="43.4335" lon="-0.37092">
        <ele>248.149</ele>
        <time>2011-05-29T08:37:50Z</time>
      </trkpt>
      <trkpt lat="43.43331" lon="-0.37078">
        <ele>248.052</ele>
        <time>2011-05-29T08:37:56Z</time>
      </trkpt>
      <trkpt lat="43.43316" lon="-0.37072">
        <ele>248.047</ele>
        <time>2011-05-29T08:38:01Z</time>
      </trkpt>
      <trkpt lat="43.43305" lon="-0.37078">
        <ele>249.628</ele>
        <time>2011-05-29T08:38:08Z</time>
      </trkpt>
      <trkpt lat="43.43298" lon="-0.37085">
        <ele>252.245</ele>
        <time>2011-05-29T08:38:15Z</time>
      </trkpt>
      <trkpt lat="43.43294" lon="-0.37088">
        <ele>253.297</ele>
        <time>2011-05-29T08:38:19Z</time>
      </trkpt>
      <trkpt lat="43.43283" lon="-0.37084">
        <ele>254.431</ele>
        <time>2011-05-29T08:38:25Z</time>
      </trkpt>
      <trkpt lat="43.43266" lon="-0.37075">
        <ele>254.168</ele>
        <time>2011-05-29T08:38:33Z</time>
      </trkpt>
      <trkpt lat="43.4325" lon="-0.3707">
        <ele>253.936</ele>
        <time>2011-05-29T08:38:39Z</time>
      </trkpt>
      <trkpt lat="43.43236" lon="-0.37063">
        <ele>254.564</ele>
        <time>2011-05-29T08:38:45Z</time>
      </trkpt>
      <trkpt lat="43.43224" lon="-0.37057">
        <ele>255.474</ele>
        <time>2011-05-29T08:38:50Z</time>
      </trkpt>
      <trkpt lat="43.43208" lon="-0.37037">
        <ele>256.609</ele>
        <time>2011-05-29T08:38:59Z</time>
      </trkpt>
      <trkpt lat="43.43198" lon="-0.37024">
        <ele>258.1</ele>
        <time>2011-05-29T08:39:06Z</time>
      </trkpt>
      <trkpt lat="43.43191" lon="-0.37018">
        <ele>259.167</ele>
        <time>2011-05-29T08:39:11Z</time>
      </trkpt>
      <trkpt lat="43.43184" lon="-0.37014">
        <ele>260.133</ele>
        <time>2011-05-29T08:39:16Z</time>
      </trkpt>
      <trkpt lat="43.4318" lon="-0.37012">
        <ele>261.19</ele>
        <time>2011-05-29T08:39:23Z</time>
      </trkpt>
      <trkpt lat="43.43173" lon="-0.37008">
        <ele>262.149</ele>
        <time>2011-05-29T08:39:30Z</time>
      </trkpt>
      <trkpt lat="43.43165" lon="-0.37004">
        <ele>263.195</ele>
        <time>2011-05-29T08:39:37Z</time>
      </trkpt>
      <trkpt lat="43.43157" lon="-0.36998">
        <ele>264.91</ele>
        <time>2011-05-29T08:39:45Z</time>
      </trkpt>
      <trkpt lat="43.43146" lon="-0.36993">
        <ele>266.838</ele>
        <time>2011-05-29T08:39:55Z</time>
      </trkpt>
      <trkpt lat="43.43145" lon="-0.36992">
        <ele>267.512</ele>
        <time>2011-05-29T08:40:01Z</time>
      </trkpt>
      <trkpt lat="43.43139" lon="-0.36986">
        <ele>268.088</ele>
        <time>2011-05-29T08:40:09Z</time>
      </trkpt>
      <trkpt lat="43.43131" lon="-0.36981">
        <ele>269.583</ele>
        <time>2011-05-29T08:40:17Z</time>
      </trkpt>
      <trkpt lat="43.43125" lon="-0.36979">
        <ele>270.786</ele>
        <time>2011-05-29T08:40:25Z</time>
      </trkpt>
      <trkpt lat="43.43121" lon="-0.36983">
        <ele>272.001</ele>
        <time>2011-05-29T08:40:31Z</time>
      </trkpt>
      <trkpt lat="43.43122" lon="-0.36986">
        <ele>273.247</ele>
        <time>2011-05-29T08:40:36Z</time>
      </trkpt>
      <trkpt lat="43.43122" lon="-0.36989">
        <ele>273.961</ele>
        <time>2011-05-29T08:40:39Z</time>
      </trkpt>
      <trkpt lat="43.4312" lon="-0.36996">
        <ele>275.588</ele>
        <time>2011-05-29T08:40:48Z</time>
      </trkpt>
      <trkpt lat="43.4312" lon="-0.36998">
        <ele>275.736</ele>
        <time>2011-05-29T08:40:50Z</time>
      </trkpt>
      <trkpt lat="43.43123" lon="-0.37009">
        <ele>277.401</ele>
        <time>2011-05-29T08:41:00Z</time>
      </trkpt>
      <trkpt lat="43.43125" lon="-0.37014">
        <ele>278.021</ele>
        <time>2011-05-29T08:41:06Z</time>
      </trkpt>
      <trkpt lat="43.43131" lon="-0.37025">
        <ele>278.494</ele>
        <time>2011-05-29T08:41:13Z</time>
      </trkpt>
      <trkpt lat="43.43142" lon="-0.37038">
        <ele>278.288</ele>
        <time>2011-05-29T08:41:18Z</time>
      </trkpt>
      <trkpt lat="43.43162" lon="-0.37067">
        <ele>276.875</ele>
        <time>2011-05-29T08:41:24Z</time>
      </trkpt>
      <trkpt lat="43.43175" lon="-0.37086">
        <ele>275.589</ele>
        <time>2011-05-29T08:41:27Z</time>
      </trkpt>
      <trkpt lat="43.43196" lon="-0.37108">
        <ele>271.641</ele>
        <time>2011-05-29T08:41:32Z</time>
      </trkpt>
      <trkpt lat="43.43201" lon="-0.37119">
        <ele>269.738</ele>
        <time>2011-05-29T08:41:34Z</time>
      </trkpt>
      <trkpt lat="43.43197" lon="-0.37132">
        <ele>267.842</ele>
        <time>2011-05-29T08:41:37Z</time>
      </trkpt>
      <trkpt lat="43.43195" lon="-0.37135">
        <ele>267.532</ele>
        <time>2011-05-29T08:41:38Z</time>
      </trkpt>
      <trkpt lat="43.43183" lon="-0.37155">
        <ele>269.425</ele>
        <time>2011-05-29T08:41:46Z</time>
      </trkpt>
      <trkpt lat="43.43174" lon="-0.37174">
        <ele>271.254</ele>
        <time>2011-05-29T08:41:54Z</time>
      </trkpt>
      <trkpt lat="43.43168" lon="-0.37194">
        <ele>272.404</ele>
        <time>2011-05-29T08:42:02Z</time>
      </trkpt>
      <trkpt lat="43.43164" lon="-0.37211">
        <ele>274.048</ele>
        <time>2011-05-29T08:42:10Z</time>
      </trkpt>
      <trkpt lat="43.43158" lon="-0.37229">
        <ele>276.006</ele>
        <time>2011-05-29T08:42:18Z</time>
      </trkpt>
      <trkpt lat="43.43151" lon="-0.37249">
        <ele>277.578</ele>
        <time>2011-05-29T08:42:26Z</time>
      </trkpt>
      <trkpt lat="43.43144" lon="-0.37271">
        <ele>278.705</ele>
        <time>2011-05-29T08:42:34Z</time>
      </trkpt>
      <trkpt lat="43.43137" lon="-0.37295">
        <ele>279.636</ele>
        <time>2011-05-29T08:42:42Z</time>
      </trkpt>
      <trkpt lat="43.43133" lon="-0.37323">
        <ele>281.106</ele>
        <time>2011-05-29T08:42:51Z</time>
      </trkpt>
      <trkpt lat="43.43126" lon="-0.3734">
        <ele>282.488</ele>
        <time>2011-05-29T08:42:58Z</time>
      </trkpt>
      <trkpt lat="43.43117" lon="-0.37341">
        <ele>283.485</ele>
        <time>2011-05-29T08:43:02Z</time>
      </trkpt>
      <trkpt lat="43.43099" lon="-0.37333">
        <ele>284.364</ele>
        <time>2011-05-29T08:43:09Z</time>
      </trkpt>
      <trkpt lat="43.43063" lon="-0.37312">
        <ele>284.697</ele>
        <time>2011-05-29T08:43:21Z</time>
      </trkpt>
      <trkpt lat="43.43031" lon="-0.37293">
        <ele>286</ele>
        <time>2011-05-29T08:43:32Z</time>
      </trkpt>
      <trkpt lat="43.43005" lon="-0.37275">
        <ele>286.264</ele>
        <time>2011-05-29T08:43:40Z</time>
      </trkpt>
      <trkpt lat="43.42967" lon="-0.37247">
        <ele>286.141</ele>
        <time>2011-05-29T08:43:49Z</time>
      </trkpt>
      <trkpt lat="43.42932" lon="-0.37216">
        <ele>286.017</ele>
        <time>2011-05-29T08:43:58Z</time>
      </trkpt>
      <trkpt lat="43.42916" lon="-0.37202">
        <ele>286.144</ele>
        <time>2011-05-29T08:44:02Z</time>
      </trkpt>
      <trkpt lat="43.42904" lon="-0.37195">
        <ele>286.249</ele>
        <time>2011-05-29T08:44:05Z</time>
      </trkpt>
      <trkpt lat="43.42888" lon="-0.37182">
        <ele>286.437</ele>
        <time>2011-05-29T08:44:09Z</time>
      </trkpt>
      <trkpt lat="43.42864" lon="-0.37142">
        <ele>286.784</ele>
        <time>2011-05-29T08:44:17Z</time>
      </trkpt>
      <trkpt lat="43.42854" lon="-0.37121">
        <ele>287.067</ele>
        <time>2011-05-29T08:44:21Z</time>
      </trkpt>
      <trkpt lat="43.42841" lon="-0.37115">
        <ele>286.935</ele>
        <time>2011-05-29T08:44:25Z</time>
      </trkpt>
      <trkpt lat="43.42838" lon="-0.37118">
        <ele>286.851</ele>
        <time>2011-05-29T08:44:26Z</time>
      </trkpt>
      <trkpt lat="43.42815" lon="-0.37147">
        <ele>287.243</ele>
        <time>2011-05-29T08:44:34Z</time>
      </trkpt>
      <trkpt lat="43.42797" lon="-0.37169">
        <ele>287.522</ele>
        <time>2011-05-29T08:44:40Z</time>
      </trkpt>
      <trkpt lat="43.42766" lon="-0.372">
        <ele>287.686</ele>
        <time>2011-05-29T08:44:48Z</time>
      </trkpt>
      <trkpt lat="43.4273" lon="-0.37231">
        <ele>287.739</ele>
        <time>2011-05-29T08:44:56Z</time>
      </trkpt>
      <trkpt lat="43.42682" lon="-0.37271">
        <ele>287.193</ele>
        <time>2011-05-29T08:45:05Z</time>
      </trkpt>
      <trkpt lat="43.42649" lon="-0.37301">
        <ele>286.116</ele>
        <time>2011-05-29T08:45:11Z</time>
      </trkpt>
      <trkpt lat="43.42639" lon="-0.3731">
        <ele>285.653</ele>
        <time>2011-05-29T08:45:13Z</time>
      </trkpt>
      <trkpt lat="43.42625" lon="-0.37316">
        <ele>284.934</ele>
        <time>2011-05-29T08:45:17Z</time>
      </trkpt>
      <trkpt lat="43.42617" lon="-0.37322">
        <ele>284.501</ele>
        <time>2011-05-29T08:45:21Z</time>
      </trkpt>
      <trkpt lat="43.42611" lon="-0.37327">
        <ele>284.215</ele>
        <time>2011-05-29T08:45:25Z</time>
      </trkpt>
      <trkpt lat="43.42594" lon="-0.37331">
        <ele>283.791</ele>
        <time>2011-05-29T08:45:30Z</time>
      </trkpt>
      <trkpt lat="43.42571" lon="-0.37342">
        <ele>283.287</ele>
        <time>2011-05-29T08:45:37Z</time>
      </trkpt>
      <trkpt lat="43.42562" lon="-0.37344">
        <ele>282.88</ele>
        <time>2011-05-29T08:45:41Z</time>
      </trkpt>
      <trkpt lat="43.42555" lon="-0.37345">
        <ele>282.409</ele>
        <time>2011-05-29T08:45:45Z</time>
      </trkpt>
      <trkpt lat="43.42542" lon="-0.37346">
        <ele>282.07</ele>
        <time>2011-05-29T08:45:48Z</time>
      </trkpt>
      <trkpt lat="43.42512" lon="-0.37339">
        <ele>281.268</ele>
        <time>2011-05-29T08:45:54Z</time>
      </trkpt>
      <trkpt lat="43.42482" lon="-0.37333">
        <ele>279.57</ele>
        <time>2011-05-29T08:45:59Z</time>
      </trkpt>
      <trkpt lat="43.42459" lon="-0.37329">
        <ele>277.606</ele>
        <time>2011-05-29T08:46:02Z</time>
      </trkpt>
      <trkpt lat="43.4242" lon="-0.3733">
        <ele>273.384</ele>
        <time>2011-05-29T08:46:07Z</time>
      </trkpt>
      <trkpt lat="43.42383" lon="-0.37337">
        <ele>269.559</ele>
        <time>2011-05-29T08:46:12Z</time>
      </trkpt>
      <trkpt lat="43.42373" lon="-0.37346">
        <ele>268.953</ele>
        <time>2011-05-29T08:46:14Z</time>
      </trkpt>
      <trkpt lat="43.42344" lon="-0.37385">
        <ele>269.686</ele>
        <time>2011-05-29T08:46:22Z</time>
      </trkpt>
      <trkpt lat="43.42329" lon="-0.37402">
        <ele>270.175</ele>
        <time>2011-05-29T08:46:26Z</time>
      </trkpt>
      <trkpt lat="43.42304" lon="-0.37413">
        <ele>271.578</ele>
        <time>2011-05-29T08:46:33Z</time>
      </trkpt>
      <trkpt lat="43.42288" lon="-0.37417">
        <ele>273.506</ele>
        <time>2011-05-29T08:46:39Z</time>
      </trkpt>
      <trkpt lat="43.42274" lon="-0.37419">
        <ele>274.935</ele>
        <time>2011-05-29T08:46:45Z</time>
      </trkpt>
      <trkpt lat="43.42265" lon="-0.37421">
        <ele>275.913</ele>
        <time>2011-05-29T08:46:49Z</time>
      </trkpt>
      <trkpt lat="43.42255" lon="-0.37423">
        <ele>276.872</ele>
        <time>2011-05-29T08:46:54Z</time>
      </trkpt>
      <trkpt lat="43.42234" lon="-0.37429">
        <ele>278.469</ele>
        <time>2011-05-29T08:47:05Z</time>
      </trkpt>
      <trkpt lat="43.42215" lon="-0.37433">
        <ele>279.669</ele>
        <time>2011-05-29T08:47:14Z</time>
      </trkpt>
      <trkpt lat="43.42193" lon="-0.37438">
        <ele>281.133</ele>
        <time>2011-05-29T08:47:24Z</time>
      </trkpt>
      <trkpt lat="43.42186" lon="-0.37451">
        <ele>281.9</ele>
        <time>2011-05-29T08:47:29Z</time>
      </trkpt>
      <trkpt lat="43.42179" lon="-0.37484">
        <ele>282.259</ele>
        <time>2011-05-29T08:47:36Z</time>
      </trkpt>
      <trkpt lat="43.42177" lon="-0.37501">
        <ele>282.147</ele>
        <time>2011-05-29T08:47:39Z</time>
      </trkpt>
      <trkpt lat="43.42165" lon="-0.37515">
        <ele>281.992</ele>
        <time>2011-05-29T08:47:43Z</time>
      </trkpt>
      <trkpt lat="43.42134" lon="-0.37519">
        <ele>284.208</ele>
        <time>2011-05-29T08:47:52Z</time>
      </trkpt>
      <trkpt lat="43.421" lon="-0.37525">
        <ele>286.257</ele>
        <time>2011-05-29T08:48:04Z</time>
      </trkpt>
      <trkpt lat="43.42065" lon="-0.3753">
        <ele>286.418</ele>
        <time>2011-05-29T08:48:14Z</time>
      </trkpt>
      <trkpt lat="43.4204" lon="-0.37534">
        <ele>285.8</ele>
        <time>2011-05-29T08:48:19Z</time>
      </trkpt>
      <trkpt lat="43.42" lon="-0.37539">
        <ele>283.976</ele>
        <time>2011-05-29T08:48:25Z</time>
      </trkpt>
      <trkpt lat="43.41985" lon="-0.37541">
        <ele>281.81</ele>
        <time>2011-05-29T08:48:28Z</time>
      </trkpt>
      <trkpt lat="43.41964" lon="-0.37534">
        <ele>278.18</ele>
        <time>2011-05-29T08:48:33Z</time>
      </trkpt>
      <trkpt lat="43.41933" lon="-0.37541">
        <ele>274.11</ele>
        <time>2011-05-29T08:48:37Z</time>
      </trkpt>
      <trkpt lat="43.41919" lon="-0.37541">
        <ele>271.024</ele>
        <time>2011-05-29T08:48:39Z</time>
      </trkpt>
      <trkpt lat="43.41868" lon="-0.37545">
        <ele>259.222</ele>
        <time>2011-05-29T08:48:46Z</time>
      </trkpt>
      <trkpt lat="43.4186" lon="-0.37545">
        <ele>259.216</ele>
        <time>2011-05-29T08:48:47Z</time>
      </trkpt>
      <trkpt lat="43.41829" lon="-0.37545">
        <ele>253.153</ele>
        <time>2011-05-29T08:48:51Z</time>
      </trkpt>
      <trkpt lat="43.41817" lon="-0.37552">
        <ele>249.783</ele>
        <time>2011-05-29T08:48:54Z</time>
      </trkpt>
      <trkpt lat="43.41819" lon="-0.37563">
        <ele>248.141</ele>
        <time>2011-05-29T08:48:56Z</time>
      </trkpt>
      <trkpt lat="43.41822" lon="-0.37591">
        <ele>246.949</ele>
        <time>2011-05-29T08:49:00Z</time>
      </trkpt>
      <trkpt lat="43.41819" lon="-0.37633">
        <ele>246.868</ele>
        <time>2011-05-29T08:49:05Z</time>
      </trkpt>
      <trkpt lat="43.41821" lon="-0.3765">
        <ele>246.691</ele>
        <time>2011-05-29T08:49:07Z</time>
      </trkpt>
      <trkpt lat="43.41816" lon="-0.3769">
        <ele>246.279</ele>
        <time>2011-05-29T08:49:12Z</time>
      </trkpt>
      <trkpt lat="43.41809" lon="-0.37704">
        <ele>246.297</ele>
        <time>2011-05-29T08:49:14Z</time>
      </trkpt>
      <trkpt lat="43.418" lon="-0.37731">
        <ele>246.002</ele>
        <time>2011-05-29T08:49:17Z</time>
      </trkpt>
      <trkpt lat="43.41795" lon="-0.37778">
        <ele>244.929</ele>
        <time>2011-05-29T08:49:22Z</time>
      </trkpt>
      <trkpt lat="43.41791" lon="-0.37797">
        <ele>244.617</ele>
        <time>2011-05-29T08:49:24Z</time>
      </trkpt>
      <trkpt lat="43.41771" lon="-0.37862">
        <ele>243.32</ele>
        <time>2011-05-29T08:49:31Z</time>
      </trkpt>
      <trkpt lat="43.41769" lon="-0.37872">
        <ele>243.047</ele>
        <time>2011-05-29T08:49:32Z</time>
      </trkpt>
      <trkpt lat="43.41751" lon="-0.37925">
        <ele>241.627</ele>
        <time>2011-05-29T08:49:38Z</time>
      </trkpt>
      <trkpt lat="43.41742" lon="-0.37952">
        <ele>240.839</ele>
        <time>2011-05-29T08:49:41Z</time>
      </trkpt>
      <trkpt lat="43.41735" lon="-0.37968">
        <ele>240.401</ele>
        <time>2011-05-29T08:49:43Z</time>
      </trkpt>
      <trkpt lat="43.41725" lon="-0.37983">
        <ele>239.658</ele>
        <time>2011-05-29T08:49:45Z</time>
      </trkpt>
      <trkpt lat="43.41703" lon="-0.37992">
        <ele>237.381</ele>
        <time>2011-05-29T08:49:49Z</time>
      </trkpt>
      <trkpt lat="43.41681" lon="-0.37999">
        <ele>235.116</ele>
        <time>2011-05-29T08:49:52Z</time>
      </trkpt>
      <trkpt lat="43.41659" lon="-0.3802">
        <ele>233.009</ele>
        <time>2011-05-29T08:49:55Z</time>
      </trkpt>
      <trkpt lat="43.41605" lon="-0.38073">
        <ele>229.249</ele>
        <time>2011-05-29T08:50:02Z</time>
      </trkpt>
      <trkpt lat="43.41597" lon="-0.3808">
        <ele>229.246</ele>
        <time>2011-05-29T08:50:03Z</time>
      </trkpt>
      <trkpt lat="43.41553" lon="-0.38107">
        <ele>226.088</ele>
        <time>2011-05-29T08:50:08Z</time>
      </trkpt>
      <trkpt lat="43.41525" lon="-0.3812">
        <ele>224.35</ele>
        <time>2011-05-29T08:50:11Z</time>
      </trkpt>
      <trkpt lat="43.41498" lon="-0.38125">
        <ele>222.862</ele>
        <time>2011-05-29T08:50:14Z</time>
      </trkpt>
      <trkpt lat="43.41461" lon="-0.38142">
        <ele>221.181</ele>
        <time>2011-05-29T08:50:19Z</time>
      </trkpt>
      <trkpt lat="43.41455" lon="-0.38148">
        <ele>221.028</ele>
        <time>2011-05-29T08:50:20Z</time>
      </trkpt>
      <trkpt lat="43.41441" lon="-0.38162">
        <ele>220.783</ele>
        <time>2011-05-29T08:50:23Z</time>
      </trkpt>
      <trkpt lat="43.41441" lon="-0.38178">
        <ele>220.954</ele>
        <time>2011-05-29T08:50:27Z</time>
      </trkpt>
      <trkpt lat="43.41447" lon="-0.38187">
        <ele>220.63</ele>
        <time>2011-05-29T08:50:30Z</time>
      </trkpt>
      <trkpt lat="43.41446" lon="-0.3819">
        <ele>220.413</ele>
        <time>2011-05-29T08:50:31Z</time>
      </trkpt>
      <trkpt lat="43.41438" lon="-0.38212">
        <ele>218.947</ele>
        <time>2011-05-29T08:50:36Z</time>
      </trkpt>
      <trkpt lat="43.41433" lon="-0.38222">
        <ele>218.723</ele>
        <time>2011-05-29T08:50:38Z</time>
      </trkpt>
      <trkpt lat="43.41416" lon="-0.38256">
        <ele>218.111</ele>
        <time>2011-05-29T08:50:45Z</time>
      </trkpt>
      <trkpt lat="43.41409" lon="-0.38272">
        <ele>217.81</ele>
        <time>2011-05-29T08:50:49Z</time>
      </trkpt>
      <trkpt lat="43.41408" lon="-0.38277">
        <ele>217.742</ele>
        <time>2011-05-29T08:50:50Z</time>
      </trkpt>
      <trkpt lat="43.41403" lon="-0.38295">
        <ele>217.258</ele>
        <time>2011-05-29T08:50:53Z</time>
      </trkpt>
      <trkpt lat="43.41406" lon="-0.38307">
        <ele>216.459</ele>
        <time>2011-05-29T08:50:57Z</time>
      </trkpt>
      <trkpt lat="43.4141" lon="-0.38322">
        <ele>215.639</ele>
        <time>2011-05-29T08:51:02Z</time>
      </trkpt>
      <trkpt lat="43.41407" lon="-0.3833">
        <ele>215.211</ele>
        <time>2011-05-29T08:51:06Z</time>
      </trkpt>
      <trkpt lat="43.41405" lon="-0.38346">
        <ele>214.693</ele>
        <time>2011-05-29T08:51:11Z</time>
      </trkpt>
      <trkpt lat="43.41402" lon="-0.38358">
        <ele>214.739</ele>
        <time>2011-05-29T08:51:15Z</time>
      </trkpt>
      <trkpt lat="43.41404" lon="-0.38368">
        <ele>215.067</ele>
        <time>2011-05-29T08:51:19Z</time>
      </trkpt>
      <trkpt lat="43.41416" lon="-0.38375">
        <ele>215.373</ele>
        <time>2011-05-29T08:51:23Z</time>
      </trkpt>
      <trkpt lat="43.41424" lon="-0.38388">
        <ele>214.876</ele>
        <time>2011-05-29T08:51:26Z</time>
      </trkpt>
      <trkpt lat="43.4143" lon="-0.38412">
        <ele>213.674</ele>
        <time>2011-05-29T08:51:31Z</time>
      </trkpt>
      <trkpt lat="43.41432" lon="-0.3842">
        <ele>213.336</ele>
        <time>2011-05-29T08:51:34Z</time>
      </trkpt>
      <trkpt lat="43.41434" lon="-0.38438">
        <ele>212.997</ele>
        <time>2011-05-29T08:51:39Z</time>
      </trkpt>
      <trkpt lat="43.41441" lon="-0.38456">
        <ele>212.917</ele>
        <time>2011-05-29T08:51:43Z</time>
      </trkpt>
      <trkpt lat="43.41442" lon="-0.38465">
        <ele>212.883</ele>
        <time>2011-05-29T08:51:45Z</time>
      </trkpt>
      <trkpt lat="43.41437" lon="-0.38485">
        <ele>212.735</ele>
        <time>2011-05-29T08:51:50Z</time>
      </trkpt>
      <trkpt lat="43.41432" lon="-0.38489">
        <ele>212.823</ele>
        <time>2011-05-29T08:51:54Z</time>
      </trkpt>
      <trkpt lat="43.41431" lon="-0.38491">
        <ele>214.17</ele>
        <time>2011-05-29T08:51:59Z</time>
      </trkpt>
      <trkpt lat="43.41429" lon="-0.38496">
        <ele>215.507</ele>
        <time>2011-05-29T08:52:03Z</time>
      </trkpt>
      <trkpt lat="43.41426" lon="-0.38503">
        <ele>216.816</ele>
        <time>2011-05-29T08:52:08Z</time>
      </trkpt>
      <trkpt lat="43.4142" lon="-0.38505">
        <ele>218.321</ele>
        <time>2011-05-29T08:52:15Z</time>
      </trkpt>
      <trkpt lat="43.4142" lon="-0.38509">
        <ele>218.83</ele>
        <time>2011-05-29T08:52:18Z</time>
      </trkpt>
      <trkpt lat="43.41424" lon="-0.38527">
        <ele>218.606</ele>
        <time>2011-05-29T08:52:23Z</time>
      </trkpt>
      <trkpt lat="43.41423" lon="-0.38531">
        <ele>218.486</ele>
        <time>2011-05-29T08:52:24Z</time>
      </trkpt>
      <trkpt lat="43.41432" lon="-0.38548">
        <ele>216.808</ele>
        <time>2011-05-29T08:52:29Z</time>
      </trkpt>
      <trkpt lat="43.41436" lon="-0.38556">
        <ele>215.274</ele>
        <time>2011-05-29T08:52:32Z</time>
      </trkpt>
      <trkpt lat="43.4145" lon="-0.38581">
        <ele>213.414</ele>
        <time>2011-05-29T08:52:38Z</time>
      </trkpt>
      <trkpt lat="43.41453" lon="-0.38584">
        <ele>213.113</ele>
        <time>2011-05-29T08:52:39Z</time>
      </trkpt>
      <trkpt lat="43.41465" lon="-0.38589">
        <ele>210.93</ele>
        <time>2011-05-29T08:52:44Z</time>
      </trkpt>
      <trkpt lat="43.41467" lon="-0.38585">
        <ele>209.306</ele>
        <time>2011-05-29T08:52:48Z</time>
      </trkpt>
      <trkpt lat="43.41467" lon="-0.38583">
        <ele>208.648</ele>
        <time>2011-05-29T08:52:52Z</time>
      </trkpt>
      <trkpt lat="43.41471" lon="-0.38584">
        <ele>209.366</ele>
        <time>2011-05-29T08:52:58Z</time>
      </trkpt>
      <trkpt lat="43.41477" lon="-0.38585">
        <ele>209.872</ele>
        <time>2011-05-29T08:53:03Z</time>
      </trkpt>
      <trkpt lat="43.41477" lon="-0.38585">
        <ele>209.96</ele>
        <time>2011-05-29T08:53:04Z</time>
      </trkpt>
      <trkpt lat="43.41477" lon="-0.38593">
        <ele>210.047</ele>
        <time>2011-05-29T08:53:09Z</time>
      </trkpt>
      <trkpt lat="43.41475" lon="-0.386">
        <ele>210.022</ele>
        <time>2011-05-29T08:53:12Z</time>
      </trkpt>
      <trkpt lat="43.41471" lon="-0.38622">
        <ele>210.087</ele>
        <time>2011-05-29T08:53:19Z</time>
      </trkpt>
      <trkpt lat="43.4147" lon="-0.38625">
        <ele>210.082</ele>
        <time>2011-05-29T08:53:20Z</time>
      </trkpt>
      <trkpt lat="43.41471" lon="-0.38654">
        <ele>209.715</ele>
        <time>2011-05-29T08:53:26Z</time>
      </trkpt>
      <trkpt lat="43.41471" lon="-0.38666">
        <ele>209.413</ele>
        <time>2011-05-29T08:53:28Z</time>
      </trkpt>
      <trkpt lat="43.41468" lon="-0.38708">
        <ele>208.739</ele>
        <time>2011-05-29T08:53:35Z</time>
      </trkpt>
      <trkpt lat="43.41468" lon="-0.38749">
        <ele>207.869</ele>
        <time>2011-05-29T08:53:41Z</time>
      </trkpt>
      <trkpt lat="43.4147" lon="-0.38789">
        <ele>206.932</ele>
        <time>2011-05-29T08:53:47Z</time>
      </trkpt>
      <trkpt lat="43.4147" lon="-0.38803">
        <ele>206.632</ele>
        <time>2011-05-29T08:53:49Z</time>
      </trkpt>
      <trkpt lat="43.41468" lon="-0.38821">
        <ele>206.271</ele>
        <time>2011-05-29T08:53:52Z</time>
      </trkpt>
      <trkpt lat="43.41464" lon="-0.38855">
        <ele>205.705</ele>
        <time>2011-05-29T08:53:57Z</time>
      </trkpt>
      <trkpt lat="43.41457" lon="-0.38883">
        <ele>205.265</ele>
        <time>2011-05-29T08:54:01Z</time>
      </trkpt>
      <trkpt lat="43.41451" lon="-0.3893">
        <ele>204.479</ele>
        <time>2011-05-29T08:54:07Z</time>
      </trkpt>
      <trkpt lat="43.41444" lon="-0.38961">
        <ele>203.986</ele>
        <time>2011-05-29T08:54:11Z</time>
      </trkpt>
      <trkpt lat="43.41449" lon="-0.38992">
        <ele>203.659</ele>
        <time>2011-05-29T08:54:15Z</time>
      </trkpt>
      <trkpt lat="43.41457" lon="-0.39028">
        <ele>202.81</ele>
        <time>2011-05-29T08:54:20Z</time>
      </trkpt>
      <trkpt lat="43.41449" lon="-0.39049">
        <ele>202.574</ele>
        <time>2011-05-29T08:54:23Z</time>
      </trkpt>
      <trkpt lat="43.4145" lon="-0.39069">
        <ele>202.429</ele>
        <time>2011-05-29T08:54:26Z</time>
      </trkpt>
      <trkpt lat="43.41459" lon="-0.39088">
        <ele>202.15</ele>
        <time>2011-05-29T08:54:30Z</time>
      </trkpt>
      <trkpt lat="43.41451" lon="-0.39099">
        <ele>201.684</ele>
        <time>2011-05-29T08:54:33Z</time>
      </trkpt>
      <trkpt lat="43.41439" lon="-0.39109">
        <ele>201.296</ele>
        <time>2011-05-29T08:54:36Z</time>
      </trkpt>
      <trkpt lat="43.41414" lon="-0.39137">
        <ele>201.057</ele>
        <time>2011-05-29T08:54:43Z</time>
      </trkpt>
      <trkpt lat="43.41406" lon="-0.39154">
        <ele>200.966</ele>
        <time>2011-05-29T08:54:46Z</time>
      </trkpt>
      <trkpt lat="43.414" lon="-0.39181">
        <ele>200.698</ele>
        <time>2011-05-29T08:54:50Z</time>
      </trkpt>
      <trkpt lat="43.41389" lon="-0.39236">
        <ele>200.048</ele>
        <time>2011-05-29T08:54:58Z</time>
      </trkpt>
      <trkpt lat="43.41372" lon="-0.39283">
        <ele>199.751</ele>
        <time>2011-05-29T08:55:05Z</time>
      </trkpt>
      <trkpt lat="43.41351" lon="-0.39331">
        <ele>199.95</ele>
        <time>2011-05-29T08:55:13Z</time>
      </trkpt>
      <trkpt lat="43.41333" lon="-0.39371">
        <ele>201.317</ele>
        <time>2011-05-29T08:55:20Z</time>
      </trkpt>
      <trkpt lat="43.41313" lon="-0.39408">
        <ele>202.707</ele>
        <time>2011-05-29T08:55:27Z</time>
      </trkpt>
      <trkpt lat="43.41298" lon="-0.39428">
        <ele>203.646</ele>
        <time>2011-05-29T08:55:32Z</time>
      </trkpt>
      <trkpt lat="43.41286" lon="-0.39424">
        <ele>204.839</ele>
        <time>2011-05-29T08:55:37Z</time>
      </trkpt>
      <trkpt lat="43.41284" lon="-0.39422">
        <ele>205.095</ele>
        <time>2011-05-29T08:55:38Z</time>
      </trkpt>
      <trkpt lat="43.41268" lon="-0.39408">
        <ele>208.414</ele>
        <time>2011-05-29T08:55:48Z</time>
      </trkpt>
      <trkpt lat="43.41254" lon="-0.39395">
        <ele>211.063</ele>
        <time>2011-05-29T08:55:58Z</time>
      </trkpt>
      <trkpt lat="43.41245" lon="-0.39383">
        <ele>213.31</ele>
        <time>2011-05-29T08:56:06Z</time>
      </trkpt>
      <trkpt lat="43.41234" lon="-0.39372">
        <ele>214.982</ele>
        <time>2011-05-29T08:56:14Z</time>
      </trkpt>
      <trkpt lat="43.41218" lon="-0.39357">
        <ele>216.568</ele>
        <time>2011-05-29T08:56:26Z</time>
      </trkpt>
      <trkpt lat="43.41207" lon="-0.39347">
        <ele>217.829</ele>
        <time>2011-05-29T08:56:34Z</time>
      </trkpt>
      <trkpt lat="43.41197" lon="-0.39332">
        <ele>218.599</ele>
        <time>2011-05-29T08:56:42Z</time>
      </trkpt>
      <trkpt lat="43.41188" lon="-0.39315">
        <ele>219.14</ele>
        <time>2011-05-29T08:56:50Z</time>
      </trkpt>
      <trkpt lat="43.41184" lon="-0.39308">
        <ele>219.107</ele>
        <time>2011-05-29T08:56:52Z</time>
      </trkpt>
      <trkpt lat="43.41179" lon="-0.39299">
        <ele>219.017</ele>
        <time>2011-05-29T08:56:54Z</time>
      </trkpt>
      <trkpt lat="43.41172" lon="-0.39269">
        <ele>217.9</ele>
        <time>2011-05-29T08:56:58Z</time>
      </trkpt>
      <trkpt lat="43.41168" lon="-0.39223">
        <ele>215.633</ele>
        <time>2011-05-29T08:57:03Z</time>
      </trkpt>
      <trkpt lat="43.41165" lon="-0.39202">
        <ele>215.185</ele>
        <time>2011-05-29T08:57:06Z</time>
      </trkpt>
      <trkpt lat="43.41153" lon="-0.39167">
        <ele>216.003</ele>
        <time>2011-05-29T08:57:13Z</time>
      </trkpt>
      <trkpt lat="43.41143" lon="-0.39133">
        <ele>216.504</ele>
        <time>2011-05-29T08:57:20Z</time>
      </trkpt>
      <trkpt lat="43.41133" lon="-0.39089">
        <ele>216.474</ele>
        <time>2011-05-29T08:57:27Z</time>
      </trkpt>
      <trkpt lat="43.41129" lon="-0.39073">
        <ele>216.039</ele>
        <time>2011-05-29T08:57:29Z</time>
      </trkpt>
      <trkpt lat="43.41125" lon="-0.39034">
        <ele>214.114</ele>
        <time>2011-05-29T08:57:33Z</time>
      </trkpt>
      <trkpt lat="43.41125" lon="-0.39013">
        <ele>212.789</ele>
        <time>2011-05-29T08:57:35Z</time>
      </trkpt>
      <trkpt lat="43.41118" lon="-0.38975">
        <ele>211.222</ele>
        <time>2011-05-29T08:57:39Z</time>
      </trkpt>
      <trkpt lat="43.41091" lon="-0.38923">
        <ele>209.84</ele>
        <time>2011-05-29T08:57:47Z</time>
      </trkpt>
      <trkpt lat="43.41077" lon="-0.38892">
        <ele>209.592</ele>
        <time>2011-05-29T08:57:52Z</time>
      </trkpt>
      <trkpt lat="43.41067" lon="-0.3886">
        <ele>210.397</ele>
        <time>2011-05-29T08:57:58Z</time>
      </trkpt>
      <trkpt lat="43.41061" lon="-0.38844">
        <ele>211.225</ele>
        <time>2011-05-29T08:58:02Z</time>
      </trkpt>
      <trkpt lat="43.41055" lon="-0.3883">
        <ele>212.821</ele>
        <time>2011-05-29T08:58:07Z</time>
      </trkpt>
      <trkpt lat="43.41043" lon="-0.38798">
        <ele>215.003</ele>
        <time>2011-05-29T08:58:18Z</time>
      </trkpt>
      <trkpt lat="43.41038" lon="-0.3878">
        <ele>215.895</ele>
        <time>2011-05-29T08:58:24Z</time>
      </trkpt>
      <trkpt lat="43.41035" lon="-0.38764">
        <ele>216.626</ele>
        <time>2011-05-29T08:58:29Z</time>
      </trkpt>
      <trkpt lat="43.4103" lon="-0.38735">
        <ele>217.939</ele>
        <time>2011-05-29T08:58:38Z</time>
      </trkpt>
      <trkpt lat="43.41029" lon="-0.38702">
        <ele>219.255</ele>
        <time>2011-05-29T08:58:48Z</time>
      </trkpt>
      <trkpt lat="43.41028" lon="-0.38677">
        <ele>220.509</ele>
        <time>2011-05-29T08:58:56Z</time>
      </trkpt>
      <trkpt lat="43.41029" lon="-0.38662">
        <ele>221.053</ele>
        <time>2011-05-29T08:59:01Z</time>
      </trkpt>
      <trkpt lat="43.4103" lon="-0.38659">
        <ele>221.192</ele>
        <time>2011-05-29T08:59:02Z</time>
      </trkpt>
      <trkpt lat="43.4104" lon="-0.38657">
        <ele>222.382</ele>
        <time>2011-05-29T08:59:07Z</time>
      </trkpt>
      <trkpt lat="43.41056" lon="-0.38657">
        <ele>224.446</ele>
        <time>2011-05-29T08:59:15Z</time>
      </trkpt>
      <trkpt lat="43.41068" lon="-0.38655">
        <ele>226.003</ele>
        <time>2011-05-29T08:59:22Z</time>
      </trkpt>
      <trkpt lat="43.41085" lon="-0.38649">
        <ele>227.431</ele>
        <time>2011-05-29T08:59:31Z</time>
      </trkpt>
      <trkpt lat="43.411" lon="-0.38645">
        <ele>227.738</ele>
        <time>2011-05-29T08:59:38Z</time>
      </trkpt>
      <trkpt lat="43.41112" lon="-0.38645">
        <ele>228.049</ele>
        <time>2011-05-29T08:59:44Z</time>
      </trkpt>
      <trkpt lat="43.41127" lon="-0.3864">
        <ele>229.344</ele>
        <time>2011-05-29T08:59:52Z</time>
      </trkpt>
      <trkpt lat="43.41141" lon="-0.38633">
        <ele>230.677</ele>
        <time>2011-05-29T09:00:00Z</time>
      </trkpt>
      <trkpt lat="43.41152" lon="-0.38627">
        <ele>231.784</ele>
        <time>2011-05-29T09:00:07Z</time>
      </trkpt>
      <trkpt lat="43.41163" lon="-0.38624">
        <ele>232.962</ele>
        <time>2011-05-29T09:00:13Z</time>
      </trkpt>
      <trkpt lat="43.41177" lon="-0.38619">
        <ele>234.54</ele>
        <time>2011-05-29T09:00:22Z</time>
      </trkpt>
      <trkpt lat="43.41186" lon="-0.38616">
        <ele>235.829</ele>
        <time>2011-05-29T09:00:28Z</time>
      </trkpt>
      <trkpt lat="43.41197" lon="-0.38612">
        <ele>236.93</ele>
        <time>2011-05-29T09:00:35Z</time>
      </trkpt>
      <trkpt lat="43.41209" lon="-0.38605">
        <ele>238.312</ele>
        <time>2011-05-29T09:00:43Z</time>
      </trkpt>
      <trkpt lat="43.41216" lon="-0.38593">
        <ele>239.377</ele>
        <time>2011-05-29T09:00:50Z</time>
      </trkpt>
      <trkpt lat="43.41221" lon="-0.38577">
        <ele>240.39</ele>
        <time>2011-05-29T09:00:58Z</time>
      </trkpt>
      <trkpt lat="43.41224" lon="-0.38555">
        <ele>242.412</ele>
        <time>2011-05-29T09:01:07Z</time>
      </trkpt>
      <trkpt lat="43.41228" lon="-0.38539">
        <ele>243.706</ele>
        <time>2011-05-29T09:01:14Z</time>
      </trkpt>
      <trkpt lat="43.41232" lon="-0.38518">
        <ele>244.99</ele>
        <time>2011-05-29T09:01:23Z</time>
      </trkpt>
      <trkpt lat="43.41235" lon="-0.385">
        <ele>246.519</ele>
        <time>2011-05-29T09:01:30Z</time>
      </trkpt>
      <trkpt lat="43.41242" lon="-0.38473">
        <ele>248.171</ele>
        <time>2011-05-29T09:01:41Z</time>
      </trkpt>
      <trkpt lat="43.41252" lon="-0.38447">
        <ele>248.943</ele>
        <time>2011-05-29T09:01:50Z</time>
      </trkpt>
      <trkpt lat="43.41259" lon="-0.38426">
        <ele>249.933</ele>
        <time>2011-05-29T09:01:57Z</time>
      </trkpt>
      <trkpt lat="43.41261" lon="-0.38402">
        <ele>250.888</ele>
        <time>2011-05-29T09:02:04Z</time>
      </trkpt>
      <trkpt lat="43.41261" lon="-0.38386">
        <ele>250.961</ele>
        <time>2011-05-29T09:02:08Z</time>
      </trkpt>
      <trkpt lat="43.41264" lon="-0.38362">
        <ele>249.761</ele>
        <time>2011-05-29T09:02:13Z</time>
      </trkpt>
      <trkpt lat="43.41264" lon="-0.38344">
        <ele>248.28</ele>
        <time>2011-05-29T09:02:17Z</time>
      </trkpt>
      <trkpt lat="43.41259" lon="-0.38338">
        <ele>248.819</ele>
        <time>2011-05-29T09:02:22Z</time>
      </trkpt>
      <trkpt lat="43.41251" lon="-0.38334">
        <ele>251.273</ele>
        <time>2011-05-29T09:02:29Z</time>
      </trkpt>
      <trkpt lat="43.4125" lon="-0.38332">
        <ele>251.643</ele>
        <time>2011-05-29T09:02:30Z</time>
      </trkpt>
      <trkpt lat="43.41242" lon="-0.38326">
        <ele>253.752</ele>
        <time>2011-05-29T09:02:37Z</time>
      </trkpt>
      <trkpt lat="43.41236" lon="-0.38318">
        <ele>255.522</ele>
        <time>2011-05-29T09:02:45Z</time>
      </trkpt>
      <trkpt lat="43.41232" lon="-0.38313">
        <ele>256.487</ele>
        <time>2011-05-29T09:02:50Z</time>
      </trkpt>
      <trkpt lat="43.41224" lon="-0.38315">
        <ele>257.558</ele>
        <time>2011-05-29T09:02:57Z</time>
      </trkpt>
      <trkpt lat="43.41214" lon="-0.38322">
        <ele>258.003</ele>
        <time>2011-05-29T09:03:03Z</time>
      </trkpt>
      <trkpt lat="43.41201" lon="-0.38332">
        <ele>258.781</ele>
        <time>2011-05-29T09:03:08Z</time>
      </trkpt>
      <trkpt lat="43.41187" lon="-0.38337">
        <ele>258.789</ele>
        <time>2011-05-29T09:03:11Z</time>
      </trkpt>
      <trkpt lat="43.41166" lon="-0.38332">
        <ele>257.81</ele>
        <time>2011-05-29T09:03:15Z</time>
      </trkpt>
      <trkpt lat="43.41158" lon="-0.38312">
        <ele>256.91</ele>
        <time>2011-05-29T09:03:18Z</time>
      </trkpt>
      <trkpt lat="43.41154" lon="-0.38286">
        <ele>256.276</ele>
        <time>2011-05-29T09:03:22Z</time>
      </trkpt>
      <trkpt lat="43.41156" lon="-0.38262">
        <ele>256.258</ele>
        <time>2011-05-29T09:03:26Z</time>
      </trkpt>
      <trkpt lat="43.41162" lon="-0.38232">
        <ele>256.942</ele>
        <time>2011-05-29T09:03:33Z</time>
      </trkpt>
      <trkpt lat="43.41165" lon="-0.38212">
        <ele>258.133</ele>
        <time>2011-05-29T09:03:39Z</time>
      </trkpt>
      <trkpt lat="43.4117" lon="-0.38198">
        <ele>258.929</ele>
        <time>2011-05-29T09:03:44Z</time>
      </trkpt>
      <trkpt lat="43.41173" lon="-0.38179">
        <ele>260.185</ele>
        <time>2011-05-29T09:03:51Z</time>
      </trkpt>
      <trkpt lat="43.41177" lon="-0.38163">
        <ele>261.001</ele>
        <time>2011-05-29T09:03:57Z</time>
      </trkpt>
      <trkpt lat="43.41184" lon="-0.38144">
        <ele>263.003</ele>
        <time>2011-05-29T09:04:06Z</time>
      </trkpt>
      <trkpt lat="43.41181" lon="-0.38128">
        <ele>263.721</ele>
        <time>2011-05-29T09:04:12Z</time>
      </trkpt>
      <trkpt lat="43.41177" lon="-0.3812">
        <ele>263.447</ele>
        <time>2011-05-29T09:04:14Z</time>
      </trkpt>
      <trkpt lat="43.4116" lon="-0.38105">
        <ele>261.635</ele>
        <time>2011-05-29T09:04:18Z</time>
      </trkpt>
      <trkpt lat="43.41148" lon="-0.38102">
        <ele>260.858</ele>
        <time>2011-05-29T09:04:20Z</time>
      </trkpt>
      <trkpt lat="43.41097" lon="-0.38086">
        <ele>254.426</ele>
        <time>2011-05-29T09:04:26Z</time>
      </trkpt>
      <trkpt lat="43.41079" lon="-0.38079">
        <ele>252.415</ele>
        <time>2011-05-29T09:04:28Z</time>
      </trkpt>
      <trkpt lat="43.4104" lon="-0.38051">
        <ele>249.064</ele>
        <time>2011-05-29T09:04:33Z</time>
      </trkpt>
      <trkpt lat="43.41011" lon="-0.38042">
        <ele>247.399</ele>
        <time>2011-05-29T09:04:37Z</time>
      </trkpt>
      <trkpt lat="43.40996" lon="-0.3804">
        <ele>246.397</ele>
        <time>2011-05-29T09:04:39Z</time>
      </trkpt>
      <trkpt lat="43.40976" lon="-0.38026">
        <ele>243.166</ele>
        <time>2011-05-29T09:04:43Z</time>
      </trkpt>
      <trkpt lat="43.4097" lon="-0.38019">
        <ele>242.139</ele>
        <time>2011-05-29T09:04:45Z</time>
      </trkpt>
      <trkpt lat="43.40953" lon="-0.38018">
        <ele>238.241</ele>
        <time>2011-05-29T09:04:49Z</time>
      </trkpt>
      <trkpt lat="43.40935" lon="-0.38033">
        <ele>233.692</ele>
        <time>2011-05-29T09:04:54Z</time>
      </trkpt>
      <trkpt lat="43.40927" lon="-0.38049">
        <ele>231.576</ele>
        <time>2011-05-29T09:04:57Z</time>
      </trkpt>
      <trkpt lat="43.40918" lon="-0.38069">
        <ele>230.014</ele>
        <time>2011-05-29T09:05:00Z</time>
      </trkpt>
      <trkpt lat="43.40908" lon="-0.38084">
        <ele>228.493</ele>
        <time>2011-05-29T09:05:04Z</time>
      </trkpt>
      <trkpt lat="43.40901" lon="-0.38094">
        <ele>227.184</ele>
        <time>2011-05-29T09:05:09Z</time>
      </trkpt>
      <trkpt lat="43.40894" lon="-0.38099">
        <ele>226.861</ele>
        <time>2011-05-29T09:05:13Z</time>
      </trkpt>
      <trkpt lat="43.40896" lon="-0.38106">
        <ele>225.858</ele>
        <time>2011-05-29T09:05:50Z</time>
      </trkpt>
      <trkpt lat="43.40896" lon="-0.38106">
        <ele>225.809</ele>
        <time>2011-05-29T09:05:51Z</time>
      </trkpt>
      <trkpt lat="43.40903" lon="-0.38108">
        <ele>226.022</ele>
        <time>2011-05-29T09:06:22Z</time>
      </trkpt>
      <trkpt lat="43.40892" lon="-0.38101">
        <ele>226.006</ele>
        <time>2011-05-29T09:07:00Z</time>
      </trkpt>
      <trkpt lat="43.40892" lon="-0.381">
        <ele>226.013</ele>
        <time>2011-05-29T09:07:01Z</time>
      </trkpt>
      <trkpt lat="43.4089" lon="-0.38104">
        <ele>226.294</ele>
        <time>2011-05-29T09:07:59Z</time>
      </trkpt>
      <trkpt lat="43.4089" lon="-0.38105">
        <ele>225.998</ele>
        <time>2011-05-29T09:08:20Z</time>
      </trkpt>
      <trkpt lat="43.4089" lon="-0.38106">
        <ele>225.976</ele>
        <time>2011-05-29T09:08:21Z</time>
      </trkpt>
      <trkpt lat="43.40894" lon="-0.38107">
        <ele>225.87</ele>
        <time>2011-05-29T09:08:34Z</time>
      </trkpt>
      <trkpt lat="43.40894" lon="-0.38109">
        <ele>226.157</ele>
        <time>2011-05-29T09:08:40Z</time>
      </trkpt>
      <trkpt lat="43.40887" lon="-0.38126">
        <ele>226.432</ele>
        <time>2011-05-29T09:08:47Z</time>
      </trkpt>
      <trkpt lat="43.40885" lon="-0.38149">
        <ele>226.028</ele>
        <time>2011-05-29T09:08:53Z</time>
      </trkpt>
      <trkpt lat="43.40893" lon="-0.38168">
        <ele>225.949</ele>
        <time>2011-05-29T09:08:58Z</time>
      </trkpt>
      <trkpt lat="43.40906" lon="-0.38195">
        <ele>227.295</ele>
        <time>2011-05-29T09:09:06Z</time>
      </trkpt>
      <trkpt lat="43.40914" lon="-0.38212">
        <ele>228.687</ele>
        <time>2011-05-29T09:09:12Z</time>
      </trkpt>
      <trkpt lat="43.40922" lon="-0.3823">
        <ele>229.969</ele>
        <time>2011-05-29T09:09:18Z</time>
      </trkpt>
      <trkpt lat="43.40934" lon="-0.38253">
        <ele>230.396</ele>
        <time>2011-05-29T09:09:24Z</time>
      </trkpt>
      <trkpt lat="43.40939" lon="-0.38283">
        <ele>229.872</ele>
        <time>2011-05-29T09:09:29Z</time>
      </trkpt>
      <trkpt lat="43.40929" lon="-0.38333">
        <ele>229.952</ele>
        <time>2011-05-29T09:09:37Z</time>
      </trkpt>
      <trkpt lat="43.40932" lon="-0.3838">
        <ele>229.041</ele>
        <time>2011-05-29T09:09:43Z</time>
      </trkpt>
      <trkpt lat="43.40941" lon="-0.3844">
        <ele>227.347</ele>
        <time>2011-05-29T09:09:49Z</time>
      </trkpt>
      <trkpt lat="43.40941" lon="-0.38451">
        <ele>226.846</ele>
        <time>2011-05-29T09:09:50Z</time>
      </trkpt>
      <trkpt lat="43.40936" lon="-0.38514">
        <ele>224.346</ele>
        <time>2011-05-29T09:09:55Z</time>
      </trkpt>
      <trkpt lat="43.4092" lon="-0.38556">
        <ele>222.613</ele>
        <time>2011-05-29T09:09:59Z</time>
      </trkpt>
      <trkpt lat="43.40905" lon="-0.38585">
        <ele>222.337</ele>
        <time>2011-05-29T09:10:03Z</time>
      </trkpt>
      <trkpt lat="43.40889" lon="-0.38621">
        <ele>223.391</ele>
        <time>2011-05-29T09:10:08Z</time>
      </trkpt>
      <trkpt lat="43.40877" lon="-0.38683">
        <ele>224.725</ele>
        <time>2011-05-29T09:10:16Z</time>
      </trkpt>
      <trkpt lat="43.40873" lon="-0.3874">
        <ele>225.11</ele>
        <time>2011-05-29T09:10:23Z</time>
      </trkpt>
      <trkpt lat="43.40871" lon="-0.38755">
        <ele>225.173</ele>
        <time>2011-05-29T09:10:25Z</time>
      </trkpt>
      <trkpt lat="43.40859" lon="-0.38786">
        <ele>224.772</ele>
        <time>2011-05-29T09:10:29Z</time>
      </trkpt>
      <trkpt lat="43.40847" lon="-0.38813">
        <ele>223.79</ele>
        <time>2011-05-29T09:10:32Z</time>
      </trkpt>
      <trkpt lat="43.40841" lon="-0.38829">
        <ele>222.481</ele>
        <time>2011-05-29T09:10:34Z</time>
      </trkpt>
      <trkpt lat="43.40827" lon="-0.3885">
        <ele>220.23</ele>
        <time>2011-05-29T09:10:38Z</time>
      </trkpt>
      <trkpt lat="43.40813" lon="-0.38851">
        <ele>218.517</ele>
        <time>2011-05-29T09:10:40Z</time>
      </trkpt>
      <trkpt lat="43.40785" lon="-0.38849">
        <ele>215.28</ele>
        <time>2011-05-29T09:10:43Z</time>
      </trkpt>
      <trkpt lat="43.40775" lon="-0.38847">
        <ele>214.101</ele>
        <time>2011-05-29T09:10:44Z</time>
      </trkpt>
      <trkpt lat="43.40742" lon="-0.3884">
        <ele>210.083</ele>
        <time>2011-05-29T09:10:47Z</time>
      </trkpt>
      <trkpt lat="43.40706" lon="-0.38837">
        <ele>205.362</ele>
        <time>2011-05-29T09:10:51Z</time>
      </trkpt>
      <trkpt lat="43.40699" lon="-0.38836">
        <ele>204.497</ele>
        <time>2011-05-29T09:10:52Z</time>
      </trkpt>
      <trkpt lat="43.40682" lon="-0.38839">
        <ele>203.277</ele>
        <time>2011-05-29T09:10:55Z</time>
      </trkpt>
      <trkpt lat="43.40667" lon="-0.38842">
        <ele>203.799</ele>
        <time>2011-05-29T09:10:59Z</time>
      </trkpt>
      <trkpt lat="43.40658" lon="-0.38843">
        <ele>205.156</ele>
        <time>2011-05-29T09:11:03Z</time>
      </trkpt>
      <trkpt lat="43.40644" lon="-0.38846">
        <ele>207.129</ele>
        <time>2011-05-29T09:11:10Z</time>
      </trkpt>
      <trkpt lat="43.40636" lon="-0.38844">
        <ele>208.846</ele>
        <time>2011-05-29T09:11:15Z</time>
      </trkpt>
      <trkpt lat="43.40629" lon="-0.38842">
        <ele>210.839</ele>
        <time>2011-05-29T09:11:21Z</time>
      </trkpt>
      <trkpt lat="43.4062" lon="-0.38837">
        <ele>212.85</ele>
        <time>2011-05-29T09:11:28Z</time>
      </trkpt>
      <trkpt lat="43.40613" lon="-0.38834">
        <ele>214.392</ele>
        <time>2011-05-29T09:11:34Z</time>
      </trkpt>
      <trkpt lat="43.40604" lon="-0.3883">
        <ele>216.258</ele>
        <time>2011-05-29T09:11:41Z</time>
      </trkpt>
      <trkpt lat="43.40594" lon="-0.38828">
        <ele>217.853</ele>
        <time>2011-05-29T09:11:47Z</time>
      </trkpt>
      <trkpt lat="43.40585" lon="-0.38826">
        <ele>219.108</ele>
        <time>2011-05-29T09:11:53Z</time>
      </trkpt>
      <trkpt lat="43.40584" lon="-0.38826">
        <ele>219.105</ele>
        <time>2011-05-29T09:11:54Z</time>
      </trkpt>
      <trkpt lat="43.40574" lon="-0.38828">
        <ele>220.682</ele>
        <time>2011-05-29T09:12:02Z</time>
      </trkpt>
      <trkpt lat="43.4056" lon="-0.3883">
        <ele>222.187</ele>
        <time>2011-05-29T09:12:12Z</time>
      </trkpt>
      <trkpt lat="43.40551" lon="-0.38832">
        <ele>222.84</ele>
        <time>2011-05-29T09:12:17Z</time>
      </trkpt>
      <trkpt lat="43.40531" lon="-0.38832">
        <ele>223.782</ele>
        <time>2011-05-29T09:12:27Z</time>
      </trkpt>
      <trkpt lat="43.40513" lon="-0.3882">
        <ele>224.737</ele>
        <time>2011-05-29T09:12:36Z</time>
      </trkpt>
      <trkpt lat="43.40502" lon="-0.38811">
        <ele>225.566</ele>
        <time>2011-05-29T09:12:42Z</time>
      </trkpt>
      <trkpt lat="43.40492" lon="-0.38803">
        <ele>226.138</ele>
        <time>2011-05-29T09:12:47Z</time>
      </trkpt>
      <trkpt lat="43.4048" lon="-0.38795">
        <ele>227.404</ele>
        <time>2011-05-29T09:12:53Z</time>
      </trkpt>
      <trkpt lat="43.40472" lon="-0.38791">
        <ele>228.249</ele>
        <time>2011-05-29T09:12:57Z</time>
      </trkpt>
      <trkpt lat="43.40463" lon="-0.38806">
        <ele>228.893</ele>
        <time>2011-05-29T09:13:03Z</time>
      </trkpt>
      <trkpt lat="43.40449" lon="-0.38835">
        <ele>228.583</ele>
        <time>2011-05-29T09:13:10Z</time>
      </trkpt>
      <trkpt lat="43.40435" lon="-0.38835">
        <ele>228.137</ele>
        <time>2011-05-29T09:13:14Z</time>
      </trkpt>
      <trkpt lat="43.4043" lon="-0.38831">
        <ele>228.186</ele>
        <time>2011-05-29T09:13:16Z</time>
      </trkpt>
      <trkpt lat="43.4041" lon="-0.38811">
        <ele>229.879</ele>
        <time>2011-05-29T09:13:24Z</time>
      </trkpt>
      <trkpt lat="43.40393" lon="-0.38792">
        <ele>230.582</ele>
        <time>2011-05-29T09:13:31Z</time>
      </trkpt>
      <trkpt lat="43.40384" lon="-0.38783">
        <ele>230.823</ele>
        <time>2011-05-29T09:13:34Z</time>
      </trkpt>
      <trkpt lat="43.40371" lon="-0.38796">
        <ele>230.646</ele>
        <time>2011-05-29T09:13:40Z</time>
      </trkpt>
      <trkpt lat="43.40367" lon="-0.38804">
        <ele>230.421</ele>
        <time>2011-05-29T09:13:42Z</time>
      </trkpt>
      <trkpt lat="43.40349" lon="-0.38816">
        <ele>228.399</ele>
        <time>2011-05-29T09:13:47Z</time>
      </trkpt>
      <trkpt lat="43.40333" lon="-0.38804">
        <ele>225.827</ele>
        <time>2011-05-29T09:13:51Z</time>
      </trkpt>
      <trkpt lat="43.40315" lon="-0.38796">
        <ele>224.177</ele>
        <time>2011-05-29T09:13:55Z</time>
      </trkpt>
      <trkpt lat="43.40305" lon="-0.38786">
        <ele>223.71</ele>
        <time>2011-05-29T09:13:58Z</time>
      </trkpt>
      <trkpt lat="43.40296" lon="-0.38777">
        <ele>223.674</ele>
        <time>2011-05-29T09:14:01Z</time>
      </trkpt>
      <trkpt lat="43.40275" lon="-0.38783">
        <ele>223.491</ele>
        <time>2011-05-29T09:14:06Z</time>
      </trkpt>
      <trkpt lat="43.40263" lon="-0.38788">
        <ele>222.842</ele>
        <time>2011-05-29T09:14:08Z</time>
      </trkpt>
      <trkpt lat="43.40241" lon="-0.38784">
        <ele>221.085</ele>
        <time>2011-05-29T09:14:12Z</time>
      </trkpt>
      <trkpt lat="43.40229" lon="-0.38767">
        <ele>220.358</ele>
        <time>2011-05-29T09:14:15Z</time>
      </trkpt>
      <trkpt lat="43.40211" lon="-0.38735">
        <ele>220.612</ele>
        <time>2011-05-29T09:14:22Z</time>
      </trkpt>
      <trkpt lat="43.40196" lon="-0.38713">
        <ele>220.306</ele>
        <time>2011-05-29T09:14:27Z</time>
      </trkpt>
      <trkpt lat="43.40176" lon="-0.38683">
        <ele>219.06</ele>
        <time>2011-05-29T09:14:32Z</time>
      </trkpt>
      <trkpt lat="43.4017" lon="-0.38659">
        <ele>216.196</ele>
        <time>2011-05-29T09:14:36Z</time>
      </trkpt>
      <trkpt lat="43.40169" lon="-0.38653">
        <ele>215.529</ele>
        <time>2011-05-29T09:14:37Z</time>
      </trkpt>
      <trkpt lat="43.40163" lon="-0.38607">
        <ele>210.98</ele>
        <time>2011-05-29T09:14:42Z</time>
      </trkpt>
      <trkpt lat="43.40155" lon="-0.38555">
        <ele>206.393</ele>
        <time>2011-05-29T09:14:46Z</time>
      </trkpt>
      <trkpt lat="43.40151" lon="-0.38541">
        <ele>204.245</ele>
        <time>2011-05-29T09:14:48Z</time>
      </trkpt>
      <trkpt lat="43.40141" lon="-0.38537">
        <ele>202.758</ele>
        <time>2011-05-29T09:14:51Z</time>
      </trkpt>
      <trkpt lat="43.40128" lon="-0.38535">
        <ele>201.39</ele>
        <time>2011-05-29T09:14:54Z</time>
      </trkpt>
      <trkpt lat="43.40111" lon="-0.38534">
        <ele>200.773</ele>
        <time>2011-05-29T09:14:57Z</time>
      </trkpt>
      <trkpt lat="43.40083" lon="-0.38527">
        <ele>200.092</ele>
        <time>2011-05-29T09:15:02Z</time>
      </trkpt>
      <trkpt lat="43.40049" lon="-0.38514">
        <ele>199.288</ele>
        <time>2011-05-29T09:15:08Z</time>
      </trkpt>
      <trkpt lat="43.40018" lon="-0.38506">
        <ele>198.072</ele>
        <time>2011-05-29T09:15:13Z</time>
      </trkpt>
      <trkpt lat="43.39998" lon="-0.38513">
        <ele>197.29</ele>
        <time>2011-05-29T09:15:17Z</time>
      </trkpt>
      <trkpt lat="43.39991" lon="-0.38519">
        <ele>196.921</ele>
        <time>2011-05-29T09:15:19Z</time>
      </trkpt>
      <trkpt lat="43.3998" lon="-0.38507">
        <ele>196.177</ele>
        <time>2011-05-29T09:15:23Z</time>
      </trkpt>
      <trkpt lat="43.39963" lon="-0.3848">
        <ele>195.832</ele>
        <time>2011-05-29T09:15:28Z</time>
      </trkpt>
      <trkpt lat="43.39945" lon="-0.38466">
        <ele>195.418</ele>
        <time>2011-05-29T09:15:33Z</time>
      </trkpt>
      <trkpt lat="43.39942" lon="-0.38464">
        <ele>195.314</ele>
        <time>2011-05-29T09:15:34Z</time>
      </trkpt>
      <trkpt lat="43.39924" lon="-0.38475">
        <ele>194.765</ele>
        <time>2011-05-29T09:15:39Z</time>
      </trkpt>
      <trkpt lat="43.39905" lon="-0.38496">
        <ele>194.278</ele>
        <time>2011-05-29T09:15:44Z</time>
      </trkpt>
      <trkpt lat="43.39878" lon="-0.38525">
        <ele>193.643</ele>
        <time>2011-05-29T09:15:50Z</time>
      </trkpt>
      <trkpt lat="43.39858" lon="-0.38546">
        <ele>193.433</ele>
        <time>2011-05-29T09:15:54Z</time>
      </trkpt>
      <trkpt lat="43.39829" lon="-0.38571">
        <ele>192.809</ele>
        <time>2011-05-29T09:16:00Z</time>
      </trkpt>
      <trkpt lat="43.39801" lon="-0.3859">
        <ele>192.302</ele>
        <time>2011-05-29T09:16:06Z</time>
      </trkpt>
      <trkpt lat="43.39758" lon="-0.38624">
        <ele>191.977</ele>
        <time>2011-05-29T09:16:14Z</time>
      </trkpt>
      <trkpt lat="43.39709" lon="-0.3867">
        <ele>191.495</ele>
        <time>2011-05-29T09:16:23Z</time>
      </trkpt>
      <trkpt lat="43.39673" lon="-0.38696">
        <ele>191.25</ele>
        <time>2011-05-29T09:16:29Z</time>
      </trkpt>
      <trkpt lat="43.39627" lon="-0.38718">
        <ele>190.558</ele>
        <time>2011-05-29T09:16:36Z</time>
      </trkpt>
      <trkpt lat="43.39613" lon="-0.38725">
        <ele>190.203</ele>
        <time>2011-05-29T09:16:38Z</time>
      </trkpt>
      <trkpt lat="43.39595" lon="-0.38744">
        <ele>189.34</ele>
        <time>2011-05-29T09:16:42Z</time>
      </trkpt>
      <trkpt lat="43.3958" lon="-0.38767">
        <ele>188.074</ele>
        <time>2011-05-29T09:16:47Z</time>
      </trkpt>
      <trkpt lat="43.39571" lon="-0.38778">
        <ele>187.661</ele>
        <time>2011-05-29T09:16:49Z</time>
      </trkpt>
      <trkpt lat="43.39552" lon="-0.38811">
        <ele>187.565</ele>
        <time>2011-05-29T09:16:54Z</time>
      </trkpt>
      <trkpt lat="43.39525" lon="-0.38849">
        <ele>187.495</ele>
        <time>2011-05-29T09:17:00Z</time>
      </trkpt>
      <trkpt lat="43.39477" lon="-0.38885">
        <ele>186.285</ele>
        <time>2011-05-29T09:17:08Z</time>
      </trkpt>
      <trkpt lat="43.39436" lon="-0.38921">
        <ele>186.54</ele>
        <time>2011-05-29T09:17:16Z</time>
      </trkpt>
      <trkpt lat="43.3942" lon="-0.38956">
        <ele>186.579</ele>
        <time>2011-05-29T09:17:21Z</time>
      </trkpt>
      <trkpt lat="43.39403" lon="-0.39021">
        <ele>186.268</ele>
        <time>2011-05-29T09:17:29Z</time>
      </trkpt>
      <trkpt lat="43.39399" lon="-0.39035">
        <ele>185.862</ele>
        <time>2011-05-29T09:17:32Z</time>
      </trkpt>
      <trkpt lat="43.39395" lon="-0.39029">
        <ele>185.422</ele>
        <time>2011-05-29T09:17:36Z</time>
      </trkpt>
      <trkpt lat="43.39391" lon="-0.3902">
        <ele>185.377</ele>
        <time>2011-05-29T09:17:39Z</time>
      </trkpt>
      <trkpt lat="43.39385" lon="-0.39023">
        <ele>185.421</ele>
        <time>2011-05-29T09:17:42Z</time>
      </trkpt>
      <trkpt lat="43.39367" lon="-0.39043">
        <ele>185.484</ele>
        <time>2011-05-29T09:17:48Z</time>
      </trkpt>
      <trkpt lat="43.39364" lon="-0.39047">
        <ele>185.479</ele>
        <time>2011-05-29T09:17:49Z</time>
      </trkpt>
      <trkpt lat="43.39341" lon="-0.39056">
        <ele>185.582</ele>
        <time>2011-05-29T09:17:54Z</time>
      </trkpt>
      <trkpt lat="43.39312" lon="-0.39047">
        <ele>185.983</ele>
        <time>2011-05-29T09:18:00Z</time>
      </trkpt>
      <trkpt lat="43.39298" lon="-0.39039">
        <ele>186.232</ele>
        <time>2011-05-29T09:18:03Z</time>
      </trkpt>
      <trkpt lat="43.39282" lon="-0.39024">
        <ele>186.407</ele>
        <time>2011-05-29T09:18:07Z</time>
      </trkpt>
      <trkpt lat="43.39266" lon="-0.38993">
        <ele>186.505</ele>
        <time>2011-05-29T09:18:13Z</time>
      </trkpt>
      <trkpt lat="43.39269" lon="-0.38976">
        <ele>186.649</ele>
        <time>2011-05-29T09:18:16Z</time>
      </trkpt>
      <trkpt lat="43.39268" lon="-0.38967">
        <ele>186.335</ele>
        <time>2011-05-29T09:18:19Z</time>
      </trkpt>
      <trkpt lat="43.39264" lon="-0.38966">
        <ele>186.151</ele>
        <time>2011-05-29T09:18:20Z</time>
      </trkpt>
      <trkpt lat="43.39228" lon="-0.38963">
        <ele>185.025</ele>
        <time>2011-05-29T09:18:27Z</time>
      </trkpt>
      <trkpt lat="43.39206" lon="-0.38951">
        <ele>185.259</ele>
        <time>2011-05-29T09:18:32Z</time>
      </trkpt>
      <trkpt lat="43.39204" lon="-0.38945">
        <ele>185.365</ele>
        <time>2011-05-29T09:18:33Z</time>
      </trkpt>
      <trkpt lat="43.39205" lon="-0.38908">
        <ele>186.038</ele>
        <time>2011-05-29T09:18:39Z</time>
      </trkpt>
      <trkpt lat="43.39208" lon="-0.38903">
        <ele>186.168</ele>
        <time>2011-05-29T09:18:40Z</time>
      </trkpt>
      <trkpt lat="43.39228" lon="-0.38858">
        <ele>186.843</ele>
        <time>2011-05-29T09:18:48Z</time>
      </trkpt>
      <trkpt lat="43.39242" lon="-0.38829">
        <ele>187.219</ele>
        <time>2011-05-29T09:18:53Z</time>
      </trkpt>
      <trkpt lat="43.39257" lon="-0.38797">
        <ele>187.817</ele>
        <time>2011-05-29T09:18:59Z</time>
      </trkpt>
      <trkpt lat="43.39266" lon="-0.38778">
        <ele>189.366</ele>
        <time>2011-05-29T09:19:04Z</time>
      </trkpt>
      <trkpt lat="43.39275" lon="-0.38757">
        <ele>191.1</ele>
        <time>2011-05-29T09:19:10Z</time>
      </trkpt>
      <trkpt lat="43.39289" lon="-0.38731">
        <ele>191.49</ele>
        <time>2011-05-29T09:19:17Z</time>
      </trkpt>
      <trkpt lat="43.39294" lon="-0.38724">
        <ele>191.625</ele>
        <time>2011-05-29T09:19:19Z</time>
      </trkpt>
      <trkpt lat="43.3929" lon="-0.38713">
        <ele>191.687</ele>
        <time>2011-05-29T09:19:23Z</time>
      </trkpt>
      <trkpt lat="43.39284" lon="-0.38709">
        <ele>191.639</ele>
        <time>2011-05-29T09:19:25Z</time>
      </trkpt>
      <trkpt lat="43.39259" lon="-0.3869">
        <ele>191.552</ele>
        <time>2011-05-29T09:19:32Z</time>
      </trkpt>
      <trkpt lat="43.39224" lon="-0.38663">
        <ele>192.201</ele>
        <time>2011-05-29T09:19:41Z</time>
      </trkpt>
      <trkpt lat="43.39187" lon="-0.3863">
        <ele>192.525</ele>
        <time>2011-05-29T09:19:50Z</time>
      </trkpt>
      <trkpt lat="43.39182" lon="-0.38626">
        <ele>192.485</ele>
        <time>2011-05-29T09:19:51Z</time>
      </trkpt>
      <trkpt lat="43.39156" lon="-0.38596">
        <ele>192.695</ele>
        <time>2011-05-29T09:19:57Z</time>
      </trkpt>
      <trkpt lat="43.3913" lon="-0.38562">
        <ele>193.486</ele>
        <time>2011-05-29T09:20:04Z</time>
      </trkpt>
      <trkpt lat="43.39104" lon="-0.38527">
        <ele>193.595</ele>
        <time>2011-05-29T09:20:11Z</time>
      </trkpt>
      <trkpt lat="43.39082" lon="-0.38478">
        <ele>193.475</ele>
        <time>2011-05-29T09:20:19Z</time>
      </trkpt>
      <trkpt lat="43.39068" lon="-0.3843">
        <ele>193.376</ele>
        <time>2011-05-29T09:20:26Z</time>
      </trkpt>
      <trkpt lat="43.39051" lon="-0.38377">
        <ele>193.587</ele>
        <time>2011-05-29T09:20:34Z</time>
      </trkpt>
      <trkpt lat="43.39049" lon="-0.38371">
        <ele>193.642</ele>
        <time>2011-05-29T09:20:35Z</time>
      </trkpt>
      <trkpt lat="43.39049" lon="-0.38344">
        <ele>193.837</ele>
        <time>2011-05-29T09:20:39Z</time>
      </trkpt>
      <trkpt lat="43.39053" lon="-0.38324">
        <ele>194.173</ele>
        <time>2011-05-29T09:20:42Z</time>
      </trkpt>
      <trkpt lat="43.39047" lon="-0.38301">
        <ele>194.596</ele>
        <time>2011-05-29T09:20:46Z</time>
      </trkpt>
      <trkpt lat="43.39005" lon="-0.38246">
        <ele>195.456</ele>
        <time>2011-05-29T09:20:57Z</time>
      </trkpt>
      <trkpt lat="43.38974" lon="-0.38223">
        <ele>194.902</ele>
        <time>2011-05-29T09:21:03Z</time>
      </trkpt>
      <trkpt lat="43.38963" lon="-0.38219">
        <ele>194.77</ele>
        <time>2011-05-29T09:21:05Z</time>
      </trkpt>
      <trkpt lat="43.38912" lon="-0.38216">
        <ele>194.42</ele>
        <time>2011-05-29T09:21:14Z</time>
      </trkpt>
      <trkpt lat="43.389" lon="-0.38221">
        <ele>194.32</ele>
        <time>2011-05-29T09:21:17Z</time>
      </trkpt>
      <trkpt lat="43.38877" lon="-0.38236">
        <ele>194.533</ele>
        <time>2011-05-29T09:21:23Z</time>
      </trkpt>
      <trkpt lat="43.38864" lon="-0.3824">
        <ele>194.755</ele>
        <time>2011-05-29T09:21:27Z</time>
      </trkpt>
      <trkpt lat="43.38857" lon="-0.38248">
        <ele>194.819</ele>
        <time>2011-05-29T09:21:29Z</time>
      </trkpt>
      <trkpt lat="43.3882" lon="-0.38275">
        <ele>194.989</ele>
        <time>2011-05-29T09:21:37Z</time>
      </trkpt>
      <trkpt lat="43.38772" lon="-0.38309">
        <ele>196.827</ele>
        <time>2011-05-29T09:21:47Z</time>
      </trkpt>
      <trkpt lat="43.38742" lon="-0.3832">
        <ele>196.006</ele>
        <time>2011-05-29T09:21:52Z</time>
      </trkpt>
      <trkpt lat="43.38703" lon="-0.38322">
        <ele>194.214</ele>
        <time>2011-05-29T09:21:57Z</time>
      </trkpt>
      <trkpt lat="43.38654" lon="-0.38322">
        <ele>192.181</ele>
        <time>2011-05-29T09:22:03Z</time>
      </trkpt>
      <trkpt lat="43.38616" lon="-0.38314">
        <ele>192.047</ele>
        <time>2011-05-29T09:22:08Z</time>
      </trkpt>
      <trkpt lat="43.38547" lon="-0.38296">
        <ele>190.984</ele>
        <time>2011-05-29T09:22:18Z</time>
      </trkpt>
      <trkpt lat="43.38493" lon="-0.38286">
        <ele>190.938</ele>
        <time>2011-05-29T09:22:26Z</time>
      </trkpt>
      <trkpt lat="43.38487" lon="-0.38284">
        <ele>191.091</ele>
        <time>2011-05-29T09:22:27Z</time>
      </trkpt>
      <trkpt lat="43.38466" lon="-0.38284">
        <ele>191.568</ele>
        <time>2011-05-29T09:22:30Z</time>
      </trkpt>
      <trkpt lat="43.38434" lon="-0.38301">
        <ele>191.996</ele>
        <time>2011-05-29T09:22:35Z</time>
      </trkpt>
      <trkpt lat="43.38384" lon="-0.38339">
        <ele>191.088</ele>
        <time>2011-05-29T09:22:43Z</time>
      </trkpt>
      <trkpt lat="43.38337" lon="-0.38368">
        <ele>192.007</ele>
        <time>2011-05-29T09:22:51Z</time>
      </trkpt>
      <trkpt lat="43.38292" lon="-0.38378">
        <ele>193.964</ele>
        <time>2011-05-29T09:22:59Z</time>
      </trkpt>
      <trkpt lat="43.3823" lon="-0.38388">
        <ele>195.782</ele>
        <time>2011-05-29T09:23:10Z</time>
      </trkpt>
      <trkpt lat="43.38193" lon="-0.38395">
        <ele>196.294</ele>
        <time>2011-05-29T09:23:17Z</time>
      </trkpt>
      <trkpt lat="43.38146" lon="-0.38403">
        <ele>196.336</ele>
        <time>2011-05-29T09:23:26Z</time>
      </trkpt>
      <trkpt lat="43.38093" lon="-0.38413">
        <ele>197.102</ele>
        <time>2011-05-29T09:23:37Z</time>
      </trkpt>
      <trkpt lat="43.38046" lon="-0.3842">
        <ele>197.63</ele>
        <time>2011-05-29T09:23:47Z</time>
      </trkpt>
      <trkpt lat="43.3801" lon="-0.38427">
        <ele>198.574</ele>
        <time>2011-05-29T09:23:55Z</time>
      </trkpt>
      <trkpt lat="43.37978" lon="-0.38434">
        <ele>199.194</ele>
        <time>2011-05-29T09:24:03Z</time>
      </trkpt>
      <trkpt lat="43.37977" lon="-0.38435">
        <ele>199.242</ele>
        <time>2011-05-29T09:24:05Z</time>
      </trkpt>
      <trkpt lat="43.37968" lon="-0.38431">
        <ele>199.271</ele>
        <time>2011-05-29T09:24:09Z</time>
      </trkpt>
      <trkpt lat="43.37963" lon="-0.38424">
        <ele>199.479</ele>
        <time>2011-05-29T09:24:11Z</time>
      </trkpt>
      <trkpt lat="43.37935" lon="-0.38374">
        <ele>200.262</ele>
        <time>2011-05-29T09:24:21Z</time>
      </trkpt>
      <trkpt lat="43.37915" lon="-0.38336">
        <ele>200.522</ele>
        <time>2011-05-29T09:24:28Z</time>
      </trkpt>
      <trkpt lat="43.37906" lon="-0.38319">
        <ele>200.549</ele>
        <time>2011-05-29T09:24:31Z</time>
      </trkpt>
      <trkpt lat="43.37872" lon="-0.38259">
        <ele>200.577</ele>
        <time>2011-05-29T09:24:41Z</time>
      </trkpt>
      <trkpt lat="43.37839" lon="-0.382">
        <ele>201.165</ele>
        <time>2011-05-29T09:24:51Z</time>
      </trkpt>
      <trkpt lat="43.37808" lon="-0.38151">
        <ele>201.751</ele>
        <time>2011-05-29T09:25:00Z</time>
      </trkpt>
      <trkpt lat="43.37781" lon="-0.38101">
        <ele>201.396</ele>
        <time>2011-05-29T09:25:08Z</time>
      </trkpt>
      <trkpt lat="43.37767" lon="-0.3807">
        <ele>201.191</ele>
        <time>2011-05-29T09:25:13Z</time>
      </trkpt>
      <trkpt lat="43.37761" lon="-0.38058">
        <ele>201.267</ele>
        <time>2011-05-29T09:25:15Z</time>
      </trkpt>
      <trkpt lat="43.37753" lon="-0.38036">
        <ele>201.372</ele>
        <time>2011-05-29T09:25:18Z</time>
      </trkpt>
      <trkpt lat="43.37752" lon="-0.38013">
        <ele>201.479</ele>
        <time>2011-05-29T09:25:21Z</time>
      </trkpt>
      <trkpt lat="43.37755" lon="-0.38006">
        <ele>201.553</ele>
        <time>2011-05-29T09:25:22Z</time>
      </trkpt>
      <trkpt lat="43.37777" lon="-0.3796">
        <ele>201.254</ele>
        <time>2011-05-29T09:25:28Z</time>
      </trkpt>
      <trkpt lat="43.37807" lon="-0.37899">
        <ele>199.996</ele>
        <time>2011-05-29T09:25:36Z</time>
      </trkpt>
      <trkpt lat="43.37831" lon="-0.37851">
        <ele>198.736</ele>
        <time>2011-05-29T09:25:42Z</time>
      </trkpt>
      <trkpt lat="43.37839" lon="-0.37835">
        <ele>198.224</ele>
        <time>2011-05-29T09:25:44Z</time>
      </trkpt>
      <trkpt lat="43.37876" lon="-0.3778">
        <ele>197.255</ele>
        <time>2011-05-29T09:25:52Z</time>
      </trkpt>
      <trkpt lat="43.37905" lon="-0.3775">
        <ele>196.271</ele>
        <time>2011-05-29T09:25:58Z</time>
      </trkpt>
      <trkpt lat="43.37923" lon="-0.37733">
        <ele>195.833</ele>
        <time>2011-05-29T09:26:02Z</time>
      </trkpt>
      <trkpt lat="43.37931" lon="-0.37712">
        <ele>195.327</ele>
        <time>2011-05-29T09:26:06Z</time>
      </trkpt>
      <trkpt lat="43.37934" lon="-0.3769">
        <ele>194.858</ele>
        <time>2011-05-29T09:26:09Z</time>
      </trkpt>
      <trkpt lat="43.37944" lon="-0.3767">
        <ele>194.584</ele>
        <time>2011-05-29T09:26:12Z</time>
      </trkpt>
      <trkpt lat="43.37946" lon="-0.37643">
        <ele>194.725</ele>
        <time>2011-05-29T09:26:16Z</time>
      </trkpt>
      <trkpt lat="43.37939" lon="-0.37623">
        <ele>195.15</ele>
        <time>2011-05-29T09:26:21Z</time>
      </trkpt>
      <trkpt lat="43.37937" lon="-0.37622">
        <ele>195.189</ele>
        <time>2011-05-29T09:26:22Z</time>
      </trkpt>
      <trkpt lat="43.37929" lon="-0.37627">
        <ele>194.852</ele>
        <time>2011-05-29T09:26:27Z</time>
      </trkpt>
      <trkpt lat="43.37928" lon="-0.37628">
        <ele>193.892</ele>
        <time>2011-05-29T09:26:36Z</time>
      </trkpt>
      <trkpt lat="43.37927" lon="-0.37628">
        <ele>193.909</ele>
        <time>2011-05-29T09:26:41Z</time>
      </trkpt>
      <trkpt lat="43.37927" lon="-0.37627">
        <ele>193.764</ele>
        <time>2011-05-29T09:26:50Z</time>
      </trkpt>
      <trkpt lat="43.37927" lon="-0.37626">
        <ele>193.895</ele>
        <time>2011-05-29T09:27:00Z</time>
      </trkpt>
      <trkpt lat="43.37926" lon="-0.37626">
        <ele>193.85</ele>
        <time>2011-05-29T09:27:05Z</time>
      </trkpt>
      <trkpt lat="43.37927" lon="-0.37626">
        <ele>193.92</ele>
        <time>2011-05-29T09:27:34Z</time>
      </trkpt>
      <trkpt lat="43.37927" lon="-0.37626">
        <ele>193.874</ele>
        <time>2011-05-29T09:27:36Z</time>
      </trkpt>
      <trkpt lat="43.37927" lon="-0.37626">
        <ele>193.858</ele>
        <time>2011-05-29T09:27:37Z</time>
      </trkpt>
      <trkpt lat="43.37926" lon="-0.37627">
        <ele>193.949</ele>
        <time>2011-05-29T09:27:49Z</time>
      </trkpt>
      <trkpt lat="43.37926" lon="-0.37628">
        <ele>194.063</ele>
        <time>2011-05-29T09:28:09Z</time>
      </trkpt>
      <trkpt lat="43.37926" lon="-0.37628">
        <ele>194.188</ele>
        <time>2011-05-29T09:28:16Z</time>
      </trkpt>
      <trkpt lat="43.37926" lon="-0.37628">
        <ele>194.131</ele>
        <time>2011-05-29T09:28:24Z</time>
      </trkpt>
      <trkpt lat="43.37926" lon="-0.37628">
        <ele>193.928</ele>
        <time>2011-05-29T09:28:31Z</time>
      </trkpt>
      <trkpt lat="43.37926" lon="-0.37628">
        <ele>193.915</ele>
        <time>2011-05-29T09:28:33Z</time>
      </trkpt>
      <trkpt lat="43.37926" lon="-0.37628">
        <ele>193.866</ele>
        <time>2011-05-29T09:28:34Z</time>
      </trkpt>
      <trkpt lat="43.37926" lon="-0.37628">
        <ele>193.777</ele>
        <time>2011-05-29T09:28:45Z</time>
      </trkpt>
      <trkpt lat="43.37926" lon="-0.37628">
        <ele>193.706</ele>
        <time>2011-05-29T09:28:47Z</time>
      </trkpt>
      <trkpt lat="43.37926" lon="-0.37628">
        <ele>193.64</ele>
        <time>2011-05-29T09:28:48Z</time>
      </trkpt>
      <trkpt lat="43.37926" lon="-0.37628">
        <ele>193.624</ele>
        <time>2011-05-29T09:28:49Z</time>
      </trkpt>
      <trkpt lat="43.37927" lon="-0.37628">
        <ele>193.793</ele>
        <time>2011-05-29T09:29:03Z</time>
      </trkpt>
      <trkpt lat="43.37927" lon="-0.37628">
        <ele>193.693</ele>
        <time>2011-05-29T09:29:06Z</time>
      </trkpt>
      <trkpt lat="43.37927" lon="-0.37628">
        <ele>193.617</ele>
        <time>2011-05-29T09:29:12Z</time>
      </trkpt>
      <trkpt lat="43.37927" lon="-0.37628">
        <ele>193.531</ele>
        <time>2011-05-29T09:29:16Z</time>
      </trkpt>
      <trkpt lat="43.37927" lon="-0.37628">
        <ele>193.579</ele>
        <time>2011-05-29T09:29:21Z</time>
      </trkpt>
      <trkpt lat="43.37927" lon="-0.37628">
        <ele>193.743</ele>
        <time>2011-05-29T09:29:25Z</time>
      </trkpt>
      <trkpt lat="43.37927" lon="-0.37628">
        <ele>193.844</ele>
        <time>2011-05-29T09:29:27Z</time>
      </trkpt>
      <trkpt lat="43.37928" lon="-0.37628">
        <ele>193.657</ele>
        <time>2011-05-29T09:29:37Z</time>
      </trkpt>
      <trkpt lat="43.37928" lon="-0.37628">
        <ele>193.658</ele>
        <time>2011-05-29T09:29:44Z</time>
      </trkpt>
      <trkpt lat="43.37928" lon="-0.37628">
        <ele>193.68</ele>
        <time>2011-05-29T09:29:45Z</time>
      </trkpt>
      <trkpt lat="43.37929" lon="-0.37627">
        <ele>194.558</ele>
        <time>2011-05-29T09:29:52Z</time>
      </trkpt>
      <trkpt lat="43.3793" lon="-0.37628">
        <ele>194.779</ele>
        <time>2011-05-29T09:29:56Z</time>
      </trkpt>
    </trkseg>
  </trk>
</gpx>